[[{"header":{"parameterUnit":"m.s-1","parameterCategory":1,"la1":31.0,"la2":29.5877,"lo1":-88.7671,"lo2":-86.6584,"dy":0.0162,"dx":0.0185,"nx":115,"ny":88,"refTime":"2023-09-03T06:00:00:Z","depth":0,"parameterNumber":2,"parameterNumberName":"U-component_of_WINDS"},"data":[0.0,0.0,0.0,0.0,0.0,0.0,0.0,0.0,0.0,0.0,0.0,0.0,0.0,0.0,0.0,0.0,0.0,0.0,0.0,0.0,0.0,0.0,0.0,0.0,0.0,0.0,0.0,0.0,0.0,0.0,0.0,0.0,0.0,0.0,0.0,0.0,0.0,0.0,0.0,0.0,0.0,0.0,0.0,0.0,0.0,0.0,0.0,0.0,0.0,0.0,0.0,0.0,0.0,0.0,0.0,0.0,0.0,0.0,0.0,0.0,0.0,0.0,0.0,0.0,0.0,0.0,0.0,0.0,0.0,0.0,0.0,0.0,0.0,0.0,0.0,0.0,0.0,0.0,0.0,0.0,0.0,0.0,0.0,0.0,0.0,0.0,0.0,0.0,0.0,0.0,0.0,0.0,0.0,0.0,0.0,0.0,0.0,0.0,0.0,0.0,0.0,0.0,0.0,0.0,0.0,0.0,0.0,0.0,0.0,0.0,0.0,0.0,0.0,0.0,0.0,0.0,0.0,0.0,0.0,0.0,0.0,0.0,0.0,0.0,0.0,0.0,0.0,0.0,0.0,0.0,0.0,0.0,0.0,0.0,0.0,0.0,0.0,0.0,0.0,0.0,0.0,0.0,0.0,0.0,0.0,0.0,0.0,0.0,0.0,0.0,0.0,0.0,0.0,0.0,0.0,0.0,0.0,0.0,0.0,0.0,0.0,0.0,0.0,0.0,0.0,0.0,0.0,0.0,0.0,0.0,0.0,0.0,0.0,0.0,0.0,0.0,0.0,0.0,0.0,0.0,0.0,0.0,0.0,0.0,0.0,0.0,0.0,0.0,0.0,0.0,0.0,0.0,0.0,0.0,0.0,0.0,0.0,0.0,0.0,0.0,0.0,0.0,0.0,0.0,0.0,0.0,0.0,0.0,0.0,0.0,0.0,0.0,0.0,0.0,0.0,0.0,0.0,0.0,0.0,0.0,0.0,0.0,0.0,0.0,0.0,0.0,0.0,0.0,0.0,0.0,0.0,0.0,0.0,0.0,0.0,0.0,0.0,0.0,0.0,0.0,0.0,0.0,0.0,0.0,0.0,0.0,0.0,0.0,0.0,0.0,0.0,0.0,0.0,0.0,0.0,0.0,0.0,0.0,0.0,0.0,0.0,0.0,0.0,0.0,0.0,0.0,0.0,0.0,0.0,0.0,0.0,0.0,0.0,0.0,0.0,0.0,0.0,0.0,0.0,0.0,0.0,0.0,0.0,0.0,0.0,0.0,0.0,0.0,0.0,0.0,0.0,0.0,0.0,0.0,0.0,0.0,0.0,0.0,0.0,0.0,0.0,0.0,0.0,0.0,0.0,0.0,0.0,0.0,0.0,0.0,0.0,0.0,0.0,0.0,0.0,0.0,0.0,0.0,0.0,0.0,0.0,0.0,0.0,0.0,0.0,0.0,0.0,0.0,0.0,0.0,0.0,0.0,0.0,0.0,0.0,0.0,0.0,0.0,0.0,0.0,0.0,0.0,0.0,0.0,0.0,0.0,0.0,0.0,0.0,0.0,0.0,0.0,0.0,0.0,0.0,0.0,0.0,0.0,0.0,0.0,0.0,0.0,0.0,0.0,0.0,0.0,0.0,0.0,0.0,0.0,0.0,0.0,0.0,0.0,0.0,0.0,0.0,0.0,0.0,0.0,0.0,0.0,0.0,0.0,0.0,0.0,0.0,0.0,0.0,0.0,0.0,0.0,0.0,0.0,0.0,0.0,0.0,0.0,0.0,0.0,0.0,0.0,0.0,0.0,0.0,0.0,0.0,0.0,0.0,0.0,0.0,0.0,0.0,0.0,0.0,0.0,0.0,0.0,0.0,0.0,0.0,0.0,0.0,0.0,0.0,0.0,0.0,0.0,0.0,0.0,0.0,0.0,0.0,0.0,0.0,0.0,0.0,0.0,0.0,0.0,0.0,0.0,0.0,0.0,0.0,0.0,0.0,0.0,0.0,0.0,0.0,0.0,0.0,0.0,0.0,0.0,0.0,0.0,0.0,0.0,0.0,0.0,0.0,0.0,0.0,0.0,0.0,0.0,0.0,0.0,0.0,0.0,0.0,0.0,0.0,0.0,0.0,0.0,0.0,0.0,0.0,0.0,0.0,0.0,0.0,0.0,0.0,0.0,0.0,0.0,0.0,0.0,0.0,0.0,0.0,0.0,0.0,0.0,0.0,0.0,0.0,0.0,0.0,0.0,0.0,0.0,0.0,0.0,0.0,0.0,0.0,0.0,0.0,0.0,0.0,0.0,0.0,0.0,0.0,0.0,0.0,0.0,0.0,0.0,0.0,0.0,0.0,0.0,0.0,0.0,0.0,0.0,0.0,0.0,0.0,0.0,0.0,0.0,0.0,0.0,0.0,0.0,0.0,0.0,0.0,0.0,0.0,0.0,0.0,0.0,0.0,0.0,0.0,0.0,0.0,0.0,0.0,0.0,0.0,0.0,0.0,0.0,0.0,0.0,0.0,0.0,0.0,0.0,0.0,0.0,0.0,0.0,0.0,0.0,0.0,0.0,0.0,0.0,0.0,0.0,0.0,0.0,0.0,0.0,0.0,0.0,0.0,0.0,0.0,0.0,0.0,0.0,0.0,0.0,0.0,0.0,0.0,0.0,0.0,0.0,0.0,0.0,0.0,0.0,0.0,0.0,0.0,0.0,0.0,0.0,0.0,0.0,0.0,0.0,0.0,0.0,0.0,0.0,0.0,0.0,0.0,0.0,0.0,0.0,0.0,0.0,0.0,0.0,0.0,0.0,0.0,0.0,0.0,0.0,0.0,0.0,0.0,0.0,0.0,0.0,0.0,0.0,0.0,0.0,0.0,0.0,0.0,0.0,0.0,0.0,0.0,0.0,0.0,0.0,0.0,0.0,0.0,0.0,0.0,0.0,0.0,0.0,0.0,0.0,0.0,0.0,0.0,0.0,0.0,0.0,0.0,0.0,0.0,0.0,0.0,0.0,0.0,0.0,0.0,0.0,0.0,0.0,0.0,0.0,0.0,0.0,0.0,0.0,0.0,0.0,0.0,0.0,0.0,0.0,0.0,0.0,0.0,0.0,0.0,0.0,0.0,0.0,0.0,0.0,0.0,0.0,0.0,0.0,0.0,0.0,0.0,0.0,0.0,0.0,0.0,0.0,0.0,0.0,0.0,0.0,0.0,0.0,0.0,0.0,0.0,0.0,0.0,0.0,0.0,0.0,0.0,0.0,0.0,0.0,0.0,0.0,0.0,0.0,0.0,0.0,0.0,0.0,0.0,0.0,0.0,0.0,0.0,0.0,0.0,0.0,0.0,0.0,0.0,0.0,0.0,0.0,0.0,0.0,0.0,0.0,0.0,0.0,0.0,0.0,0.0,0.0,0.0,0.0,0.0,0.0,0.0,0.0,0.0,0.0,0.0,0.0,0.0,0.0,0.0,0.0,0.0,0.0,0.0,0.0,0.0,0.0,0.0,0.0,0.0,0.0,0.0,0.0,0.0,0.0,0.0,0.0,0.0,0.0,0.0,0.0,0.0,0.0,0.0,0.0,0.0,0.0,0.0,0.0,0.0,0.0,0.0,0.0,0.0,0.0,0.0,0.0,0.0,0.0,0.0,0.0,0.0,0.0,0.0,0.0,0.0,0.0,0.0,0.0,0.0,0.0,0.0,0.0,0.0,0.0,0.0,0.0,0.0,0.0,0.0,0.0,0.0,0.0,0.0,0.0,0.0,0.0,0.0,0.0,0.0,0.0,0.0,0.0,0.0,0.0,0.0,0.0,0.0,0.0,0.0,0.0,0.0,0.0,0.0,0.0,0.0,0.0,0.0,0.0,0.0,0.0,0.0,0.0,0.0,0.0,0.0,0.0,0.0,0.0,0.0,0.0,0.0,0.0,0.0,0.0,0.0,0.0,0.0,0.0,0.0,0.0,0.0,0.0,0.0,0.0,0.0,0.0,0.0,0.0,0.0,0.0,0.0,0.0,0.0,0.0,0.0,0.0,0.0,0.0,0.0,0.0,0.0,0.0,0.0,0.0,0.0,0.0,0.0,0.0,0.0,0.0,0.0,0.0,0.0,0.0,0.0,0.0,0.0,0.0,0.0,0.0,0.0,0.0,0.0,0.0,0.0,0.0,0.0,0.0,0.0,0.0,0.0,0.0,0.0,0.0,0.0,0.0,0.0,0.0,0.0,0.0,0.0,0.0,0.0,0.0,0.0,0.0,0.0,0.0,0.0,0.0,0.0,0.0,0.0,0.0,0.0,0.0,-0.8082,0.0,0.0,0.0,0.0,0.0,0.0,0.0,0.0,0.0,0.0,0.0,0.0,0.0,0.0,0.0,0.0,0.0,0.0,0.0,0.0,0.0,0.0,0.0,0.0,0.0,0.0,0.0,0.0,0.0,0.0,0.0,0.0,0.0,0.0,0.0,0.0,0.0,0.0,0.0,0.0,0.0,0.0,0.0,0.0,0.0,0.0,0.0,0.0,0.0,0.0,0.0,0.0,0.0,0.0,0.0,0.0,0.0,0.0,0.0,0.0,0.0,0.0,0.0,0.0,0.0,0.0,0.0,0.0,0.0,0.0,0.0,0.0,0.0,0.0,0.0,0.0,0.0,0.0,0.0,0.0,0.0,0.0,0.0,0.0,0.0,0.0,0.0,0.0,0.0,0.0,0.0,0.0,0.0,0.0,0.0,0.0,0.0,0.0,0.0,0.0,0.0,0.0,0.0,0.0,0.0,0.0,0.0,0.0,0.0,0.0,-0.5692,-0.6538,-0.6586,-0.72,-0.8487,0.0,0.0,0.0,0.0,0.0,0.0,0.0,0.0,0.0,0.0,0.0,0.0,0.0,0.0,0.0,0.0,0.0,0.0,0.0,0.0,0.0,0.0,0.0,0.0,0.0,0.0,0.0,0.0,0.0,0.0,0.0,0.0,0.0,0.0,0.0,0.0,0.0,0.0,0.0,0.0,0.0,0.0,0.0,0.0,0.0,0.0,0.0,0.0,0.0,0.0,0.0,0.0,0.0,0.0,0.0,0.0,0.0,0.0,0.0,0.0,0.0,0.0,0.0,0.0,0.0,0.0,0.0,0.0,0.0,0.0,0.0,0.0,0.0,0.0,0.0,0.0,0.0,0.0,0.0,0.0,0.0,0.0,0.0,0.0,0.0,0.0,0.0,0.0,0.0,0.0,0.0,0.0,0.0,0.0,0.0,0.0,0.0,0.0,0.0,0.0,0.0,0.0,0.0,0.0,0.0,0.0,0.0,0.0,0.0,0.0,0.0,0.0,-0.714,-0.7817,-0.9196,0.0,0.0,0.0,0.0,0.0,0.0,0.0,0.0,0.0,0.0,0.0,0.0,0.0,0.0,0.0,0.0,0.0,0.0,0.0,0.0,0.0,0.0,0.0,0.0,0.0,0.0,0.0,0.0,0.0,0.0,0.0,0.0,0.0,0.0,0.0,0.0,0.0,0.0,0.0,0.0,0.0,0.0,0.0,0.0,0.0,0.0,0.0,0.0,0.0,0.0,0.0,0.0,0.0,0.0,0.0,0.0,0.0,0.0,0.0,0.0,0.0,0.0,0.0,0.0,0.0,0.0,0.0,0.0,0.0,0.0,0.0,0.0,0.0,0.0,0.0,0.0,0.0,0.0,0.0,0.0,0.0,0.0,0.0,0.0,0.0,0.0,0.0,0.0,0.0,0.0,0.0,0.0,0.0,0.0,0.0,0.0,0.0,0.0,0.0,0.0,0.0,0.0,0.0,0.0,0.0,0.0,0.0,0.0,0.0,0.0,-0.668,-0.7768,-0.871,0.0,-1.0509,0.0,0.0,0.0,0.0,0.0,0.0,0.0,0.0,0.0,0.0,0.0,0.0,0.0,0.0,0.0,0.0,0.0,0.0,0.0,0.0,0.0,0.0,0.0,0.0,0.0,0.0,0.0,0.0,0.0,0.0,0.0,0.0,0.0,0.0,0.0,0.0,0.0,0.0,0.0,0.0,0.0,0.0,0.0,0.0,0.0,0.0,0.0,0.0,0.0,0.0,0.0,0.0,0.0,0.0,0.0,0.0,0.0,0.0,0.0,0.0,0.0,0.0,0.0,0.0,0.0,0.0,0.0,0.0,0.0,0.0,0.0,0.0,0.0,0.0,0.0,0.0,0.0,0.0,0.0,0.0,0.0,0.0,0.0,0.0,0.0,0.0,0.0,0.0,0.0,0.0,0.0,0.0,0.0,0.0,0.0,0.0,0.0,0.0,0.0,0.0,0.0,0.0,0.0,0.0,0.0,0.0,0.0,0.0,0.0,0.0,-0.7248,-0.7892,-0.8623,-0.927,0.0,0.0,0.0,0.0,0.0,0.0,0.0,0.0,0.0,0.0,0.0,0.0,0.0,0.0,0.0,0.0,0.0,0.0,0.0,0.0,0.0,0.0,0.0,0.0,0.0,0.0,0.0,0.0,0.0,0.0,0.0,0.0,0.0,0.0,0.0,0.0,0.0,0.0,0.0,0.0,0.0,0.0,0.0,0.0,0.0,0.0,0.0,0.0,0.0,0.0,0.0,0.0,0.0,0.0,0.0,0.0,0.0,0.0,0.0,0.0,0.0,0.0,0.0,0.0,0.0,0.0,0.0,0.0,0.0,0.0,0.0,0.0,0.0,0.0,0.0,0.0,0.0,0.0,0.0,0.0,0.0,0.0,0.0,0.0,0.0,0.0,0.0,0.0,0.0,0.0,0.0,0.0,0.0,0.0,0.0,0.0,0.0,0.0,0.0,0.0,0.0,0.0,0.0,0.0,0.0,0.0,0.0,0.0,0.0,0.0,-0.7504,-0.7973,-0.8446,-0.8656,-0.886,-0.9083,0.0,0.0,0.0,0.0,0.0,0.0,0.0,0.0,0.0,0.0,0.0,0.0,0.0,0.0,0.0,0.0,0.0,0.0,0.0,0.0,0.0,0.0,0.0,0.0,0.0,0.0,0.0,0.0,0.0,0.0,0.0,0.0,0.0,0.0,0.0,0.0,0.0,0.0,0.0,0.0,0.0,0.0,0.0,0.0,0.0,0.0,0.0,0.0,0.0,0.0,0.0,0.0,0.0,0.0,0.0,0.0,0.0,0.0,0.0,0.0,0.0,0.0,0.0,0.0,0.0,0.0,0.0,0.0,0.0,0.0,0.0,0.0,0.0,0.0,0.0,0.0,0.0,0.0,0.0,0.0,0.0,0.0,0.0,0.0,0.0,0.0,0.0,0.0,0.0,0.0,0.0,0.0,0.0,0.0,0.0,0.0,0.0,0.0,0.0,0.0,0.0,0.0,0.0,0.0,0.0,0.0,0.0,0.0,-0.893,-0.8591,-0.8829,-0.9801,-0.9236,-0.8943,0.0,0.0,0.0,0.0,0.0,0.0,0.0,0.0,0.0,0.0,0.0,0.0,0.0,0.0,0.0,0.0,0.0,0.0,0.0,0.0,0.0,0.0,0.0,0.0,0.0,0.0,0.0,0.0,0.0,0.0,0.0,0.0,0.0,0.0,0.0,0.0,0.0,0.0,0.0,0.0,0.0,0.0,0.0,0.0,0.0,0.0,0.0,0.0,0.0,0.0,0.0,0.0,0.0,0.0,0.0,0.0,0.0,0.0,0.0,0.0,0.0,0.0,0.0,0.0,0.0,0.0,0.0,0.0,0.0,0.0,0.0,0.0,0.0,0.0,0.0,0.0,0.0,0.0,0.0,0.0,0.0,0.0,0.0,0.0,0.0,0.0,0.0,0.0,0.0,0.0,0.0,0.0,0.0,0.0,0.0,0.0,0.0,0.0,0.0,0.0,0.0,0.0,0.0,0.0,0.0,0.0,0.0,0.0,0.0,-0.893,-0.8627,-0.8568,-0.8954,-0.8511,-0.8294,0.0,0.0,0.0,0.0,0.0,0.0,0.0,0.0,0.0,0.0,0.0,0.0,0.0,0.0,0.0,0.0,0.0,0.0,0.0,0.0,0.0,0.0,0.0,0.0,0.0,0.0,0.0,0.0,0.0,0.0,0.0,0.0,0.0,0.0,0.0,0.0,0.0,0.0,0.0,0.0,0.0,0.0,0.0,0.0,0.0,0.0,0.0,0.0,0.0,0.0,0.0,0.0,0.0,0.0,0.0,0.0,0.0,0.0,0.0,0.0,0.0,0.0,0.0,0.0,0.0,0.0,0.0,0.0,0.0,0.0,0.0,0.0,0.0,0.0,0.0,0.0,0.0,0.0,0.0,0.0,0.0,0.0,0.0,0.0,0.0,0.0,0.0,0.0,0.0,0.0,0.0,0.0,0.0,0.0,0.0,0.0,0.0,0.0,0.0,0.0,0.0,0.0,0.0,0.0,0.0,0.0,0.0,0.0,0.0,-0.964,0.0,-0.886,-0.8846,-0.8227,-0.7905,0.0,0.0,0.0,0.0,0.0,0.0,0.0,0.0,0.0,0.0,0.0,0.0,0.0,0.0,0.0,0.0,0.0,0.0,0.0,0.0,0.0,0.0,0.0,0.0,0.0,0.0,0.0,0.0,0.0,0.0,0.0,0.0,0.0,0.0,0.0,0.0,0.0,0.0,0.0,0.0,0.0,0.0,0.0,0.0,0.0,0.0,0.0,0.0,0.0,0.0,0.0,0.0,0.0,0.0,0.0,0.0,0.0,0.0,0.0,0.0,0.0,0.0,0.0,0.0,0.0,0.0,0.0,0.0,0.0,0.0,0.0,0.0,0.0,0.0,0.0,0.0,0.0,0.0,0.0,0.0,0.0,0.0,0.0,0.0,0.0,0.0,0.0,0.0,0.0,0.0,0.0,0.0,0.0,0.0,0.0,0.0,0.0,0.0,0.0,0.0,0.0,0.0,0.0,0.0,0.0,0.0,0.0,0.0,-1.0706,-1.1196,-1.0254,-0.9725,-0.974,-0.8553,-0.7905,0.0,0.0,0.0,0.0,0.0,0.0,0.0,0.0,0.0,0.0,0.0,0.0,0.0,0.0,0.0,0.0,0.0,0.0,0.0,0.0,0.0,0.0,0.0,0.0,0.0,0.0,0.0,0.0,0.0,0.0,0.0,0.0,0.0,0.0,0.0,0.0,0.0,0.0,0.0,0.0,0.0,0.0,0.0,0.0,0.0,0.0,0.0,0.0,0.0,0.0,0.0,0.0,0.0,0.0,0.0,0.0,0.0,0.0,0.0,0.0,0.0,0.0,0.0,0.0,0.0,0.0,0.0,0.0,0.0,0.0,0.0,0.0,0.0,0.0,0.0,0.0,0.0,0.0,0.0,0.0,0.0,0.0,0.0,0.0,0.0,0.0,0.0,0.0,0.0,0.0,0.0,0.0,0.0,0.0,0.0,0.0,0.0,0.0,0.0,0.0,0.0,0.0,0.0,0.0,0.0,0.0,0.0,0.0,0.0,-1.0698,-1.0021,-0.9716,-0.9751,-0.8392,-0.7896,0.0,0.0,0.0,0.0,0.0,0.0,0.0,0.0,0.0,0.0,0.0,0.0,0.0,0.0,0.0,0.0,0.0,0.0,0.0,0.0,0.0,0.0,0.0,0.0,0.0,0.0,0.0,0.0,0.0,0.0,0.0,0.0,0.0,0.0,0.0,0.0,0.0,0.0,0.0,0.0,0.0,0.0,0.0,0.0,0.0,0.0,0.0,0.0,0.0,0.0,0.0,0.0,0.0,0.0,0.0,0.0,0.0,0.0,0.0,0.0,0.0,0.0,0.0,0.0,0.0,0.0,0.0,0.0,0.0,0.0,0.0,0.0,0.0,0.0,0.0,0.0,0.0,0.0,0.0,0.0,0.0,0.0,0.0,0.0,0.0,0.0,0.0,0.0,0.0,0.0,0.0,0.0,0.0,0.0,0.0,0.0,0.0,0.0,0.0,0.0,0.0,0.0,0.0,0.0,0.0,0.0,0.0,0.0,0.0,-1.2071,-1.1302,-1.0831,-1.0653,-0.9212,-0.8553,-0.8771,0.0,0.0,0.0,0.0,0.0,0.0,0.0,0.0,0.0,0.0,0.0,0.0,0.0,0.0,0.0,0.0,0.0,0.0,0.0,0.0,0.0,0.0,0.0,0.0,0.0,0.0,0.0,0.0,0.0,0.0,0.0,0.0,0.0,0.0,0.0,0.0,0.0,0.0,0.0,0.0,0.0,0.0,0.0,0.0,0.0,0.0,0.0,0.0,0.0,0.0,0.0,0.0,0.0,0.0,0.0,0.0,0.0,0.0,0.0,0.0,0.0,0.0,0.0,0.0,0.0,0.0,0.0,0.0,0.0,0.0,0.0,0.0,0.0,0.0,0.0,0.0,0.0,0.0,0.0,0.0,0.0,0.0,0.0,0.0,0.0,0.0,0.0,0.0,0.0,0.0,0.0,0.0,0.0,0.0,0.0,0.0,0.0,0.0,0.0,0.0,0.0,0.0,0.0,0.0,0.0,0.0,0.0,0.0,-1.4893,-1.3932,-1.2999,-1.2145,-1.0767,-0.9662,0.0,0.0,0.0,0.0,0.0,0.0,0.0,0.0,0.0,0.0,0.0,0.0,0.0,0.0,0.0,0.0,0.0,0.0,0.0,0.0,0.0,0.0,0.0,0.0,0.0,0.0,0.0,0.0,0.0,0.0,0.0,0.0,0.0,0.0,0.0,0.0,0.0,0.0,0.0,0.0,0.0,0.0,0.0,0.0,0.0,0.0,0.0,0.0,0.0,0.0,0.0,0.0,0.0,0.0,0.0,0.0,0.0,0.0,0.0,0.0,0.0,0.0,0.0,0.0,0.0,0.0,0.0,0.0,0.0,0.0,0.0,0.0,0.0,0.0,0.0,0.0,0.0,0.0,0.0,0.0,0.0,0.0,0.0,0.0,0.0,0.0,0.0,0.0,0.0,0.0,0.0,0.0,0.0,0.0,0.0,0.0,0.0,0.0,0.0,0.0,0.0,0.0,0.0,0.0,0.0,0.0,0.0,0.0,0.0,-1.621,-1.6828,-1.5822,-1.3008,-1.1368,-1.0073,0.0,0.0,0.0,0.0,0.0,0.0,0.0,0.0,0.0,0.0,0.0,0.0,0.0,0.0,0.0,0.0,0.0,0.0,0.0,0.0,0.0,0.0,0.0,0.0,0.0,0.0,0.0,0.0,0.0,0.0,0.0,0.0,0.0,0.0,0.0,0.0,0.0,0.0,0.0,0.0,0.0,0.0,0.0,0.0,0.0,0.0,0.0,0.0,0.0,0.0,0.0,0.0,0.0,0.0,0.0,0.0,0.0,0.0,0.0,0.0,0.0,0.0,0.0,0.0,0.0,0.0,0.0,0.0,0.0,0.0,0.0,0.0,0.0,0.0,0.0,0.0,0.0,0.0,0.0,0.0,0.0,0.0,0.0,0.0,0.0,0.0,0.0,0.0,0.0,0.0,0.0,0.0,0.0,0.0,0.0,0.0,0.0,0.0,0.0,0.0,0.0,0.0,0.0,0.0,0.0,0.0,0.0,0.0,-1.709,-1.7506,-1.8754,-1.7859,-1.4569,-1.3108,-1.1554,0.0,0.0,0.0,0.0,0.0,0.0,0.0,0.0,0.0,0.0,0.0,0.0,0.0,0.0,0.0,0.0,0.0,0.0,0.0,0.0,0.0,0.0,0.0,0.0,0.0,0.0,0.0,0.0,0.0,0.0,0.0,0.0,0.0,0.0,0.0,0.0,0.0,0.0,0.0,0.0,0.0,0.0,0.0,0.0,0.0,0.0,0.0,0.0,0.0,0.0,0.0,0.0,0.0,0.0,0.0,0.0,0.0,0.0,0.0,0.0,0.0,0.0,0.0,0.0,0.0,0.0,0.0,0.0,0.0,0.0,0.0,0.0,0.0,0.0,0.0,0.0,0.0,0.0,0.0,0.0,0.0,0.0,0.0,0.0,0.0,0.0,0.0,0.0,0.0,0.0,0.0,0.0,0.0,0.0,0.0,0.0,0.0,0.0,0.0,0.0,0.0,0.0,0.0,0.0,0.0,0.0,0.0,0.0,-1.833,-1.8802,-2.0098,-1.9458,-1.6739,-1.5331,-1.3291,0.0,0.0,0.0,0.0,0.0,0.0,0.0,0.0,0.0,0.0,0.0,0.0,0.0,0.0,0.0,0.0,0.0,0.0,0.0,0.0,0.0,0.0,0.0,0.0,0.0,0.0,0.0,0.0,0.0,0.0,0.0,0.0,0.0,0.0,0.0,0.0,0.0,0.0,0.0,0.0,0.0,0.0,0.0,0.0,0.0,0.0,0.0,0.0,0.0,0.0,0.0,0.0,0.0,0.0,0.0,0.0,0.0,0.0,0.0,0.0,0.0,0.0,0.0,0.0,0.0,0.0,0.0,0.0,0.0,0.0,0.0,0.0,0.0,0.0,0.0,0.0,0.0,0.0,0.0,0.0,0.0,0.0,0.0,0.0,0.0,0.0,0.0,0.0,0.0,0.0,0.0,0.0,0.0,0.0,0.0,0.0,0.0,0.0,0.0,0.0,0.0,0.0,0.0,0.0,0.0,0.0,0.0,0.0,-1.9043,-2.0146,-2.1426,-2.1302,-1.9697,-1.6099,-1.281,0.0,0.0,0.0,0.0,0.0,0.0,0.0,0.0,0.0,0.0,0.0,0.0,0.0,0.0,0.0,0.0,0.0,0.0,0.0,0.0,0.0,0.0,0.0,0.0,0.0,0.0,0.0,0.0,0.0,0.0,0.0,0.0,0.0,0.0,0.0,0.0,0.0,0.0,0.0,0.0,0.0,0.0,0.0,0.0,0.0,0.0,0.0,0.0,-0.6299,0.0,0.0,0.0,0.0,0.0,0.0,0.0,0.0,0.0,0.0,0.0,0.0,0.0,0.0,0.0,0.0,0.0,0.0,0.0,0.0,0.0,0.0,0.0,0.0,0.0,0.0,0.0,0.0,0.0,0.0,0.0,0.0,0.0,0.0,0.0,0.0,0.0,0.0,0.0,0.0,0.0,0.0,0.0,0.0,0.0,0.0,0.0,0.0,0.0,0.0,0.0,0.0,0.0,0.0,0.0,0.0,0.0,0.0,0.0,-1.9873,-2.1152,-2.206,-2.1678,-1.9913,-1.6616,-1.3774,0.0,0.0,0.0,0.0,0.0,0.0,0.0,0.0,0.0,0.0,0.0,0.0,0.0,0.0,0.0,0.0,0.0,0.0,0.0,0.0,0.0,0.0,0.0,0.0,0.0,0.0,0.0,0.0,0.0,0.0,0.0,0.0,0.0,0.0,0.0,0.0,0.0,0.0,0.0,0.0,0.0,0.0,0.0,0.0,0.0,0.0,0.0,0.0,0.0,0.0,0.0,0.0,0.0,0.0,0.0,0.0,0.0,0.0,0.0,0.0,0.0,0.0,0.0,0.0,0.0,0.0,0.0,0.0,0.0,0.0,0.0,0.0,0.0,0.0,0.0,0.0,0.0,0.0,0.0,0.0,0.0,0.0,0.0,0.0,0.0,0.0,0.0,0.0,0.0,0.0,0.0,0.0,0.0,0.0,0.0,0.0,0.0,0.0,0.0,0.0,0.0,0.0,0.0,0.0,0.0,0.0,0.0,-1.916,-2.0557,-2.2021,-2.2373,-2.154,-1.9552,-1.7119,-1.5137,-1.3548,0.0,0.0,0.0,0.0,0.0,0.0,0.0,0.0,0.0,0.0,0.0,0.0,0.0,0.0,0.0,0.0,0.0,0.0,0.0,0.0,0.0,0.0,0.0,0.0,0.0,0.0,0.0,0.0,0.0,0.0,0.0,0.0,0.0,0.0,0.0,0.0,0.0,0.0,-0.9346,-0.9796,0.0,0.0,0.0,0.0,0.0,0.0,0.0,0.0,-0.699,0.0,0.0,0.0,0.0,0.0,0.0,0.0,0.0,0.0,0.0,0.0,0.0,0.0,0.0,0.0,0.0,0.0,0.0,0.0,0.0,0.0,0.0,0.0,0.0,0.0,0.0,0.0,0.0,0.0,0.0,0.0,0.0,0.0,0.0,0.0,0.0,0.0,0.0,0.0,0.0,0.0,0.0,0.0,0.0,0.0,0.0,0.0,0.0,0.0,0.0,0.0,0.0,0.0,0.0,0.0,0.0,-2.0028,-1.9619,-2.0547,-2.2808,-2.2656,-2.1987,-2.0833,-1.778,-1.5445,-1.3873,0.0,0.0,0.0,0.0,0.0,0.0,0.0,0.0,0.0,0.0,0.0,0.0,0.0,0.0,0.0,0.0,0.0,0.0,0.0,0.0,0.0,0.0,0.0,0.0,0.0,0.0,0.0,0.0,0.0,0.0,0.0,0.0,0.0,0.0,0.0,0.0,0.0,0.0,0.0,-1.1702,-1.1397,0.0,0.0,0.0,0.0,0.0,0.0,0.0,0.0,-0.7542,0.0,0.0,0.0,0.0,0.0,0.0,0.0,0.0,0.0,0.0,0.0,0.0,0.0,0.0,0.0,0.0,0.0,0.0,0.0,0.0,0.0,0.0,0.0,0.0,0.0,0.0,0.0,0.0,0.0,0.0,0.0,0.0,0.0,0.0,0.0,0.0,0.0,0.0,0.0,0.0,0.0,0.0,0.0,0.0,0.0,0.0,0.0,0.0,0.0,0.0,0.0,0.0,0.0,0.0,0.0,-1.9793,-2.0166,-2.1181,-2.3003,-2.2734,-2.1992,-2.0859,-1.8036,-1.5607,0.0,0.0,0.0,0.0,0.0,0.0,0.0,0.0,0.0,0.0,0.0,0.0,0.0,0.0,0.0,0.0,0.0,0.0,0.0,0.0,0.0,0.0,0.0,0.0,0.0,0.0,0.0,0.0,0.0,0.0,0.0,0.0,0.0,0.0,0.0,0.0,0.0,0.0,0.0,0.0,-1.3379,-1.3261,-1.2456,0.0,0.0,0.0,0.0,0.0,0.0,-0.9208,-0.8697,0.0,0.0,0.0,0.0,0.0,0.0,0.0,0.0,0.0,0.0,0.0,0.0,0.0,0.0,0.0,0.0,0.0,0.0,0.0,0.0,0.0,0.0,0.0,0.0,0.0,0.0,0.0,0.0,0.0,0.0,0.0,0.0,0.0,0.0,0.0,0.0,0.0,0.0,0.0,0.0,0.0,0.0,0.0,0.0,0.0,0.0,0.0,0.0,0.0,0.0,0.0,0.0,0.0,0.0,0.0,-1.9258,-2.0478,-2.1726,-2.3003,-2.2637,-2.1807,-2.0576,-1.7931,-1.5499,0.0,0.0,0.0,0.0,0.0,0.0,0.0,0.0,0.0,0.0,0.0,0.0,0.0,0.0,0.0,0.0,0.0,0.0,0.0,0.0,0.0,0.0,0.0,0.0,0.0,0.0,0.0,0.0,0.0,0.0,0.0,0.0,0.0,0.0,0.0,0.0,0.0,0.0,0.0,0.0,0.0,-1.5244,-1.4366,-1.3085,0.0,0.0,0.0,0.0,-1.078,-1.0549,0.0,0.0,0.0,0.0,0.0,0.0,0.0,0.0,0.0,0.0,0.0,0.0,0.0,0.0,0.0,0.0,0.0,0.0,0.0,0.0,0.0,0.0,0.0,0.0,0.0,0.0,0.0,0.0,0.0,0.0,0.0,0.0,0.0,0.0,0.0,0.0,0.0,0.0,0.0,0.0,0.0,0.0,0.0,0.0,0.0,0.0,0.0,0.0,0.0,0.0,0.0,0.0,0.0,0.0,0.0,0.0,-1.9248,-2.0185,-2.1455,-2.2964,-2.2363,-2.1554,-2.0566,-1.717,-1.4684,0.0,0.0,0.0,0.0,0.0,0.0,0.0,0.0,0.0,0.0,0.0,0.0,0.0,0.0,0.0,0.0,0.0,0.0,0.0,0.0,0.0,0.0,0.0,0.0,0.0,0.0,0.0,0.0,0.0,0.0,0.0,0.0,0.0,0.0,0.0,0.0,0.0,0.0,0.0,0.0,0.0,-1.7327,-1.623,-1.5081,-1.4336,0.0,0.0,-1.4504,-1.2735,-1.2961,0.0,0.0,0.0,0.0,0.0,0.0,0.0,0.0,0.0,0.0,0.0,0.0,0.0,0.0,0.0,0.0,0.0,0.0,0.0,0.0,0.0,0.0,0.0,0.0,0.0,0.0,0.0,0.0,0.0,0.0,0.0,0.0,0.0,0.0,0.0,0.0,0.0,0.0,0.0,0.0,0.0,0.0,0.0,0.0,0.0,0.0,0.0,0.0,0.0,0.0,0.0,0.0,0.0,0.0,0.0,-1.9252,-1.9961,-2.1387,-2.2361,-2.2705,-2.1912,-2.1094,-2.0215,-1.7275,-1.5029,0.0,0.0,0.0,0.0,0.0,0.0,0.0,0.0,0.0,0.0,0.0,0.0,0.0,0.0,0.0,0.0,0.0,0.0,0.0,0.0,0.0,0.0,0.0,0.0,0.0,0.0,0.0,0.0,0.0,0.0,0.0,0.0,0.0,0.0,0.0,0.0,0.0,0.0,0.0,0.0,0.0,0.0,-1.7933,-1.7187,0.0,0.0,0.0,-1.7958,-1.5393,0.0,0.0,0.0,0.0,0.0,0.0,0.0,0.0,0.0,0.0,0.0,0.0,0.0,0.0,0.0,0.0,0.0,0.0,0.0,0.0,0.0,0.0,0.0,0.0,0.0,0.0,0.0,0.0,0.0,0.0,0.0,0.0,0.0,0.0,0.0,0.0,0.0,0.0,0.0,0.0,0.0,0.0,0.0,0.0,0.0,0.0,0.0,0.0,0.0,0.0,0.0,0.0,0.0,0.0,0.0,0.0,0.0,-2.1044,-2.2531,-2.3166,-2.2916,-2.1901,-2.0839,-1.9766,-1.7319,0.0,0.0,0.0,0.0,0.0,0.0,0.0,0.0,0.0,0.0,0.0,0.0,0.0,0.0,0.0,0.0,0.0,0.0,0.0,0.0,0.0,0.0,0.0,0.0,0.0,0.0,0.0,-1.046,0.0,0.0,0.0,0.0,0.0,0.0,0.0,0.0,0.0,0.0,0.0,0.0,0.0,0.0,-1.9723,-1.9459,-1.9182,-1.8971,0.0,0.0,-2.077,-1.7562,-1.6637,-1.5675,0.0,0.0,0.0,0.0,0.0,0.0,0.0,0.0,0.0,0.0,0.0,0.0,0.0,0.0,0.0,0.0,0.0,0.0,0.0,0.0,0.0,0.0,0.0,0.0,0.0,0.0,0.0,0.0,0.0,0.0,0.0,0.0,0.0,0.0,0.0,0.0,0.0,0.0,0.0,0.0,0.0,0.0,0.0,0.0,0.0,0.0,0.0,0.0,0.0,0.0,0.0,0.0,0.0,0.0,-2.1823,-2.2728,-2.3114,-2.3592,-2.3991,-2.2631,-2.1035,-1.9365,-1.7001,-1.4966,0.0,0.0,0.0,0.0,0.0,0.0,0.0,0.0,0.0,0.0,0.0,0.0,0.0,0.0,0.0,0.0,0.0,0.0,0.0,0.0,0.0,0.0,0.0,0.0,0.0,0.0,0.0,0.0,0.0,0.0,0.0,0.0,0.0,0.0,0.0,0.0,0.0,0.0,0.0,0.0,0.0,-2.1713,-2.0653,-2.0947,-2.1104,0.0,-2.1929,-2.1836,-1.8536,-1.8777,-1.8284,-1.4955,0.0,0.0,0.0,0.0,0.0,0.0,0.0,0.0,0.0,0.0,0.0,0.0,0.0,0.0,0.0,0.0,0.0,0.0,0.0,0.0,0.0,0.0,0.0,0.0,0.0,0.0,0.0,0.0,0.0,0.0,0.0,0.0,0.0,0.0,0.0,0.0,0.0,0.0,0.0,0.0,0.0,0.0,0.0,0.0,0.0,0.0,0.0,0.0,0.0,0.0,0.0,0.0,0.0,-2.3206,-2.3584,-2.4705,-2.5228,-2.5113,-2.3442,-2.1963,-2.0746,-1.7635,-1.5427,0.0,0.0,0.0,0.0,0.0,0.0,0.0,0.0,0.0,0.0,0.0,0.0,0.0,0.0,0.0,0.0,0.0,0.0,0.0,0.0,0.0,0.0,0.0,0.0,0.0,0.0,0.0,0.0,-1.2953,-1.3174,-1.3394,0.0,0.0,0.0,0.0,0.0,0.0,0.0,0.0,0.0,0.0,-2.1501,-2.2048,-2.293,0.0,0.0,-2.2694,-2.237,-2.0224,-2.0099,-1.9379,-1.6831,-1.6101,0.0,0.0,0.0,0.0,0.0,0.0,0.0,0.0,0.0,0.0,0.0,0.0,0.0,0.0,0.0,0.0,0.0,0.0,0.0,0.0,0.0,0.0,0.0,0.0,0.0,0.0,0.0,0.0,0.0,0.0,0.0,0.0,0.0,0.0,0.0,0.0,0.0,0.0,0.0,0.0,0.0,0.0,0.0,0.0,0.0,0.0,0.0,0.0,0.0,0.0,0.0,0.0,-2.4402,-2.4723,-2.5897,-2.6441,-2.6319,-2.4668,-2.3226,-2.2046,-1.8882,-1.6581,0.0,0.0,0.0,0.0,0.0,0.0,0.0,0.0,0.0,0.0,0.0,0.0,0.0,0.0,0.0,0.0,0.0,0.0,0.0,0.0,0.0,0.0,0.0,0.0,0.0,0.0,0.0,0.0,-1.4091,-1.3983,-1.3728,0.0,0.0,0.0,0.0,0.0,0.0,0.0,0.0,0.0,0.0,-2.2083,-2.3238,-2.4494,-2.4958,-2.3985,-2.3697,-2.3182,-2.2068,-2.1576,-2.06,-1.8363,0.0,0.0,0.0,0.0,0.0,0.0,0.0,0.0,0.0,0.0,0.0,0.0,0.0,0.0,0.0,0.0,0.0,0.0,0.0,0.0,0.0,0.0,0.0,0.0,0.0,0.0,0.0,-2.2173,0.0,0.0,-2.2366,0.0,0.0,0.0,0.0,0.0,0.0,0.0,0.0,0.0,0.0,0.0,0.0,0.0,0.0,0.0,0.0,0.0,0.0,0.0,0.0,0.0,0.0,-2.5314,-2.6427,-2.6493,-2.6835,-2.7439,-2.6347,-2.4873,-2.3149,-2.0818,-1.8575,-1.6337,0.0,0.0,0.0,0.0,0.0,0.0,0.0,0.0,0.0,0.0,0.0,0.0,0.0,0.0,0.0,0.0,0.0,0.0,0.0,0.0,0.0,0.0,0.0,0.0,0.0,0.0,-1.615,-1.6325,-1.5933,0.0,0.0,0.0,0.0,0.0,0.0,0.0,0.0,0.0,-2.0704,-2.2564,-2.3929,-2.3966,-2.5393,-2.6147,-2.5548,-2.5051,-2.455,-2.3917,-2.3378,-2.2126,0.0,0.0,0.0,0.0,0.0,0.0,0.0,0.0,0.0,0.0,0.0,0.0,0.0,0.0,0.0,0.0,0.0,0.0,0.0,0.0,0.0,0.0,0.0,0.0,0.0,0.0,0.0,-2.5933,-2.5653,0.0,0.0,0.0,0.0,0.0,0.0,0.0,0.0,0.0,0.0,0.0,-2.7248,-2.7021,0.0,0.0,0.0,0.0,0.0,0.0,0.0,0.0,0.0,0.0,0.0,0.0,-2.5548,-2.6954,-2.7394,-2.8039,-2.8978,-2.7642,-2.6341,-2.5038,-2.2731,-2.0106,-1.7183,0.0,0.0,0.0,0.0,0.0,0.0,0.0,0.0,0.0,0.0,0.0,0.0,0.0,0.0,0.0,0.0,0.0,0.0,0.0,0.0,0.0,0.0,0.0,0.0,0.0,-1.6054,0.0,0.0,0.0,0.0,0.0,0.0,0.0,0.0,0.0,0.0,0.0,-2.0501,-2.1619,-2.2694,-2.3534,-2.3941,-2.4782,-2.5172,0.0,0.0,0.0,0.0,0.0,0.0,0.0,0.0,0.0,0.0,0.0,0.0,0.0,0.0,-2.1642,-1.8854,-1.805,-1.7821,-1.7848,0.0,0.0,0.0,0.0,0.0,0.0,0.0,0.0,0.0,0.0,0.0,0.0,0.0,0.0,-2.88,-2.8976,-2.8775,0.0,0.0,0.0,0.0,0.0,0.0,0.0,0.0,-2.9829,-3.0733,-3.0382,-3.0384,-3.022,0.0,-2.8678,-2.6709,0.0,0.0,0.0,0.0,0.0,0.0,0.0,0.0,-2.5925,-2.7014,-2.7921,-2.885,-2.9729,-2.8813,-2.7869,-2.6993,-2.4352,-2.1415,-1.8306,-1.6746,-1.5891,0.0,0.0,0.0,0.0,0.0,0.0,0.0,0.0,0.0,0.0,0.0,0.0,0.0,0.0,0.0,0.0,0.0,0.0,0.0,0.0,0.0,0.0,0.0,-1.7538,0.0,0.0,0.0,0.0,0.0,0.0,0.0,0.0,0.0,-2.0702,-2.084,-2.1553,-2.3238,-2.3572,-2.3898,-2.4481,0.0,0.0,0.0,0.0,0.0,0.0,0.0,-2.3647,-2.2719,-2.3195,-2.376,-2.3966,-2.2949,-2.2824,-2.4946,0.0,0.0,-2.1272,-2.0416,-2.017,-2.0209,-2.02,-2.0299,-2.0826,-2.0941,-2.1043,0.0,0.0,0.0,0.0,-2.8448,0.0,0.0,0.0,-3.0105,-3.0922,0.0,-3.0633,0.0,0.0,0.0,0.0,-2.762,-3.0118,0.0,0.0,-3.2887,-3.3552,-3.175,-3.3219,-3.3131,-3.165,-3.2591,-3.1596,-2.8812,-2.546,0.0,0.0,0.0,0.0,0.0,0.0,-2.6524,-2.6663,-2.8134,-2.9202,-2.9767,-2.9779,-2.9503,-2.8762,-2.5664,-2.2591,-1.978,-1.8764,-1.7833,-1.6843,-1.6017,0.0,0.0,0.0,0.0,0.0,0.0,0.0,0.0,0.0,0.0,0.0,0.0,0.0,0.0,0.0,0.0,0.0,0.0,0.0,0.0,-1.9311,0.0,0.0,0.0,0.0,0.0,0.0,0.0,0.0,0.0,0.0,-2.246,-2.2882,-2.3772,-2.5385,0.0,0.0,0.0,0.0,-2.4913,-2.546,-2.5172,-2.5247,-2.6248,-2.5925,-2.5034,-2.3484,0.0,0.0,-2.4243,-2.5435,-2.6122,-2.5134,-2.5837,-2.6361,-2.5636,-2.4474,-2.3797,-2.3766,-2.2924,-2.2543,-2.2945,-2.2422,-2.1933,-3.5478,0.0,0.0,0.0,0.0,-3.3006,-3.4211,-3.5629,-3.5228,-3.4663,-3.3947,-3.3106,0.0,0.0,0.0,0.0,0.0,0.0,-3.1574,-3.2001,-3.4204,-3.4919,-3.4367,-3.5642,-3.5579,-3.4329,-3.4286,-3.3031,-3.0708,-2.9272,-2.768,-2.603,0.0,0.0,0.0,0.0,-2.7065,-2.8172,-2.865,-2.9176,-2.9779,-2.9779,-2.9327,-2.8324,-2.6264,-2.412,-2.2008,-2.0902,-1.9927,-1.9002,-1.7893,0.0,0.0,0.0,0.0,0.0,0.0,0.0,0.0,0.0,0.0,0.0,0.0,0.0,0.0,0.0,0.0,0.0,0.0,0.0,-2.0912,-2.0494,-2.0413,0.0,0.0,0.0,0.0,0.0,0.0,0.0,0.0,0.0,-2.5624,-2.5285,-2.5222,0.0,0.0,-2.5887,-2.5636,-2.4437,-2.3923,-2.4876,-2.5573,0.0,-2.5883,-2.5711,-2.5573,-2.5544,-2.6147,-2.6653,-2.6892,-2.7318,-2.7457,-2.6889,-2.7278,-2.7344,-2.6386,-2.5041,-2.3941,-2.3459,-2.3427,-2.369,-2.4148,-2.4343,-2.4443,-4.1837,-3.7358,-3.5439,-3.4742,-3.4951,-3.5705,-3.6772,-3.7977,-3.7425,-3.6985,-3.6609,-3.5403,-3.3947,-3.2395,-3.1486,0.0,0.0,0.0,-3.3307,-3.4437,-3.5855,-3.636,-3.627,-3.7098,-3.6935,-3.5868,-3.5303,-3.4248,-3.2704,-3.1964,-3.0683,-2.8913,0.0,-2.7203,-2.7316,-2.7381,-2.7821,-2.8586,-2.9051,-2.944,-2.9779,-2.9779,-2.9252,-2.8122,-2.7118,-2.566,-2.3712,-2.2508,-2.1405,-2.0457,-1.9357,-1.912,0.0,0.0,0.0,0.0,0.0,0.0,0.0,0.0,0.0,0.0,0.0,-1.8604,-2.0041,0.0,0.0,0.0,-2.1538,-2.1807,-2.182,-2.1518,0.0,0.0,0.0,0.0,0.0,0.0,0.0,-2.371,-2.4293,-2.5209,-2.6776,-2.6942,-2.7042,-2.7394,-2.6914,-2.6373,-2.5988,0.0,-2.4098,-2.5008,-2.5875,-2.6449,-2.6289,-2.6264,-2.6465,-2.7052,-2.7228,-2.7404,-2.7708,-2.7946,-2.7971,-2.7693,-2.7542,-2.7366,-2.6989,-2.5871,-2.4883,-2.4531,-2.4732,-2.5084,-2.541,-2.5711,-2.5937,-4.7601,-4.5504,-4.1042,-3.8267,-3.695,-3.7901,-3.8316,-3.8228,-3.7739,-3.8341,-3.9509,-3.7486,-3.6493,-3.6279,-3.4293,0.0,-3.4123,-3.4663,-3.5441,-3.6505,-3.7525,-3.7713,-3.7211,-3.7701,-3.7387,-3.638,-3.5855,-3.5282,-3.4738,-3.3759,-3.2667,-3.1499,-2.9503,-2.816,-2.7582,-2.8499,-2.8712,-2.826,-2.9264,-2.9779,-2.9779,-2.9779,-2.9252,-2.8134,-2.8059,-2.7017,-2.4901,-2.3626,-2.2469,-2.1404,-2.0488,-2.0048,-2.0124,0.0,0.0,0.0,0.0,0.0,0.0,0.0,0.0,0.0,0.0,0.0,0.0,0.0,0.0,-2.2318,-2.2334,0.0,-2.2372,-2.2385,0.0,0.0,0.0,-2.4318,-2.4738,-2.4406,-2.4343,-2.4895,0.0,0.0,-2.6562,-2.7996,-2.895,-2.89,-2.7582,-2.6612,-2.6575,-2.5657,-2.5089,-2.5598,-2.6147,-2.67,-2.7216,-2.7293,-2.7457,-2.7896,-2.7607,-2.7266,-2.7306,-2.7595,-2.7783,-2.7517,-2.6952,-2.6688,-2.7379,-2.6826,-2.6487,-2.6386,-2.6411,-2.6449,-2.6411,-2.6424,-2.6436,-4.9662,-4.8181,-4.6571,-4.3794,-4.0514,-4.096,-4.094,-4.0498,-4.04,-4.0111,-3.9597,-3.8216,-3.7149,-3.638,-3.5864,-3.5701,-3.5852,-3.6358,-3.6734,-3.7023,-3.7688,-3.7713,-3.7199,-3.7324,-3.7023,-3.643,-3.6279,-3.5893,-3.5307,-3.5031,-3.4173,-3.2759,-3.2194,-3.0984,-2.9277,-2.9465,-2.9528,-2.939,-2.9654,-2.9779,-2.9779,-2.9779,-2.9264,-2.8147,-2.7695,-2.664,-2.4863,-2.411,-2.3406,-2.2662,-2.1518,-2.1331,-2.2274,-2.1138,0.0,0.0,0.0,0.0,0.0,0.0,0.0,0.0,0.0,-2.2291,-2.3328,0.0,-2.3728,0.0,-2.2531,-2.2456,-2.2869,-2.2907,0.0,0.0,-2.4644,-2.5109,-2.4845,-2.5059,-2.5435,-2.6034,-2.6587,-2.7092,-2.7645,-2.8812,-2.9415,-2.895,-2.8235,-2.7557,-2.7143,-2.6549,-2.6147,-2.626,-2.6424,-2.6851,-2.7708,-2.7908,-2.7959,-2.8072,-2.7318,-2.6839,-2.7253,-2.7052,-2.6851,-2.6763,-2.6625,-2.6587,-2.6776,-2.66,-2.6524,-2.6487,-2.6487,-2.6487,-2.6487,-2.6487,-2.6487,-5.1012,-5.0003,-4.9044,-4.6433,-4.2919,-4.2736,-4.2118,-4.1263,-4.1025,-4.0626,-4.0011,-3.9145,-3.8417,-3.7839,-3.7637,-3.7536,-3.7536,-3.7525,-3.755,-3.7563,-3.7864,-3.7713,-3.7199,-3.7186,-3.6945,-3.6417,-3.6417,-3.6241,-3.5918,-3.5621,-3.4906,-3.3822,-3.3558,-3.2579,-3.0934,-3.062,-3.0507,-3.0507,-3.003,-2.9779,-2.9779,-2.9779,-2.9377,-2.8499,-2.7695,-2.6628,-2.5209,-2.4418,-2.3853,-2.3496,-2.2806,-2.2751,-2.3441,-2.2556,-2.2268,0.0,0.0,0.0,0.0,0.0,0.0,0.0,0.0,0.0,0.0,0.0,-2.4274,-2.3885,-2.3584,-2.364,-2.4148,-2.4469,-2.4745,-2.5071,-2.5871,-2.6138,-2.5611,-2.5799,-2.6135,-2.6449,-2.719,-2.7758,-2.8097,-2.9089,-2.9578,-2.8976,-2.8624,-2.8185,-2.7406,-2.6851,-2.6487,-2.6499,-2.6914,-2.7517,-2.8348,-2.8473,-2.8473,-2.8411,-2.7758,-2.7278,-2.7291,-2.6864,-2.6487,-2.6512,-2.6889,-2.7228,-2.7228,-2.7193,-2.7228,-2.7193,-2.7205,-2.7052,-2.66,-2.6487,-2.6487,-5.1678,-5.0954,-4.9731,-4.7427,-4.4429,-4.3607,-4.2463,-4.115,-4.0727,-4.0475,-4.0388,-3.991,-3.9697,-3.9659,-3.912,-3.8881,-3.873,-3.8241,-3.7927,-3.7801,-3.7864,-3.7613,-3.7086,-3.7073,-3.687,-3.6417,-3.6417,-3.6417,-3.6392,-3.5868,-3.5282,-3.4726,-3.4236,-3.3483,-3.2453,-3.1876,-3.1461,-3.1185,-3.0457,-3.0068,-2.9993,-2.9993,-2.9691,-2.9001,-2.7908,-2.6753,-2.5636,-2.4569,-2.4029,-2.4092,-2.4042,-2.4029,-2.4073,-2.3892,-2.3879,0.0,-2.4002,0.0,0.0,0.0,0.0,0.0,0.0,0.0,0.0,-2.4205,-2.4456,-2.5039,-2.5039,-2.5222,-2.5661,-2.626,-2.66,-2.6612,-2.709,-2.719,-2.6575,-2.6612,-2.67,-2.6713,-2.7582,-2.821,-2.8273,-2.9139,-2.9591,-2.9126,-2.8925,-2.8537,-2.7682,-2.7065,-2.67,-2.6688,-2.7532,-2.8323,-2.8725,-2.8863,-2.8863,-2.8813,-2.8398,-2.7959,-2.7482,-2.7027,-2.6688,-2.6876,-2.7544,-2.8122,-2.8185,-2.8122,-2.8084,-2.8034,-2.8009,-2.7745,-2.7027,-2.6801,-2.67,-5.102,-5.033,-4.9594,-4.7427,-4.447,-4.376,-4.2372,-4.0664,-4.0551,-4.0262,-3.9848,-3.9735,-3.9697,-3.9647,-3.912,-3.8668,-3.8165,-3.8052,-3.7525,-3.6684,-3.7123,-3.7048,-3.6581,-3.6568,-3.6505,-3.6417,-3.6417,-3.6417,-3.6417,-3.6304,-3.5705,-3.4738,-3.458,-3.4191,-3.3583,0.0,0.0,0.0,-3.1185,-3.1537,-3.111,-3.1085,-3.062,-2.9641,-2.8109,0.0,-2.5624,-2.4569,-2.4217,-2.4619,-2.4243,0.0,0.0,0.0,0.0,0.0,0.0,0.0,0.0,0.0,0.0,0.0,-2.6477,-2.6239,-2.5398,-2.5285,-2.5724,-2.6691,-2.6414,-2.6223,-2.6336,-2.6839,-2.7165,-2.719,-2.762,-2.757,-2.6663,-2.7278,-2.7795,-2.7808,-2.8373,-2.8737,-2.8762,-2.9377,-2.9741,-2.9591,-2.9227,-2.8838,-2.8612,-2.7871,-2.7505,-2.777,-2.836,-2.875,-2.8875,-2.8913,-2.8938,-2.8825,-2.8473,-2.8122,-2.7959,-2.7693,-2.7656,-2.8072,-2.8448,-2.8599,-2.8586,-2.8335,-2.8185,-2.8122,-2.8134,-2.8034,-2.7833,-2.7795,-2.7795,-4.9868,-4.9254,-4.8925,-4.6945,0.0,-4.3628,-4.2195,-4.0111,-4.0111,-3.9961,-3.9697,-3.9697,-3.9697,-3.9672,-3.9408,-3.8806,-3.8002,-3.8002,-3.7412,-3.6443,-3.6694,-3.6669,-3.6417,-3.6417,-3.6417,-3.6417,-3.6417,-3.6417,-3.6417,-3.6417,-3.5943,-3.5127,-3.4806,-3.4449,-3.3897,-3.34,-3.239,-3.0997,-3.1273,-3.1286,-3.1009,-3.0733,-3.0344,-2.9779,-2.816,0.0,0.0,0.0,0.0,0.0,0.0,0.0,0.0,-2.5988,0.0,-2.6097,-2.6804,-2.7281,-2.7304,-2.7268,-2.7304,-2.7316,-2.7532,-2.7344,-2.649,-2.6678,-2.6954,-2.7278,-2.7268,-2.7304,-2.7316,-2.7758,-2.8109,-2.8109,-2.8348,-2.836,-2.816,-2.8084,-2.8335,-2.8825,-2.8938,-2.8888,-2.89,-2.9428,-2.9767,-2.9779,-2.9553,-2.9352,-2.9264,-2.8486,-2.8072,-2.8787,-2.8875,-2.9013,-2.9251,-2.9352,-2.9352,-2.9302,-2.9114,-2.8837,-2.8561,-2.8599,-2.8686,-2.8549,-2.8837,-2.9239,-2.9227,-2.9063,-2.8925,-2.895,-2.8938,-2.8938,-2.89,-2.8499,-2.8109,-4.8925,-4.8297,-4.8297,-4.645,-4.349,-4.349,-4.2084,-3.9697,-3.9697,0.0,0.0,-3.9697,-3.9697,-3.9697,-3.9584,-3.9032,-3.8165,-3.7952,-3.7425,-3.6694,-3.6593,-3.6606,-3.6681,-3.6606,-3.6556,-3.6543,-3.6455,-3.6417,-3.6417,-3.6417,-3.6081,-3.5495,-3.5044,-3.4587,-3.4048,-3.3508,-3.2993,-3.2491,-3.1637,-3.1057,-3.0896,-3.0457,-3.0131,-2.9955,-2.8398,-2.7532,-2.7419,-2.6038,-2.5498,-2.6,-2.595,-2.5937,-2.6063,-2.6917,-2.7266,-2.6876,-2.7595,-2.8109,-2.8109,-2.8109,-2.8147,-2.8247,-2.8348,-2.8172,-2.762,-2.7984,-2.8109,-2.7745,-2.8134,-2.8398,-2.8411,-2.88,-2.9038,-2.9089,-2.9076,-2.9264,-2.9641,-2.9001,-2.88,-2.9553,-2.9365,-2.9051,-2.9076,-2.9503,-2.9779,-2.9779,-2.9754,-2.9779,-2.9679,-2.9013,-2.8762,-2.949,-2.9377,-2.9239,-2.9641,-2.9754,-2.9779,-2.9729,-2.9741,-2.9616,-2.9302,-2.9465,-2.9377,-2.8674,-2.9227,-2.9666,-2.9767,-2.9716,-2.9779,-2.9779,-2.9779,-2.9779,-2.9704,-2.9063,-2.8486,-4.8925,-4.8297,-4.8297,-4.645,-4.349,-4.349,-4.2035,-3.9749,-3.9697,-3.9697,-3.9697,-3.9697,-3.9697,-3.9672,-3.9207,-3.8894,-3.873,-3.7739,-3.7462,-3.7751,-3.7287,-3.7312,-3.7751,-3.7299,-3.7073,-3.7036,-3.6644,-3.6417,-3.6417,-3.6417,-3.6094,-3.5571,-3.542,-3.5094,-3.4613,-3.406,-3.3746,-3.3658,-3.352,-3.2968,-3.2014,-3.1913,-3.1424,-3.0507,-2.9289,-2.8473,-2.7996,-2.7306,-2.7193,-2.7708,-2.7306,-2.7256,-2.772,-2.7896,-2.7959,-2.7883,-2.8021,-2.8109,-2.8122,-2.8109,-2.831,-2.875,-2.9264,-2.9315,-2.8725,-2.8725,-2.8976,-2.9365,-2.9453,-2.9553,-2.9553,-2.9591,-2.9628,-2.9641,-2.9654,-2.9716,-2.9779,-2.9628,-2.9553,-2.9754,-2.9729,-2.9641,-2.9628,-2.9729,-2.9779,-2.9779,-2.9779,-2.9779,-2.9767,-2.9679,-2.9616,-2.9754,-2.9729,-2.9716,-2.9767,-2.9779,-2.9779,-2.9779,-2.9779,-2.9754,-2.9641,-2.9691,-2.9679,-2.9553,-2.9654,-2.9754,-2.9779,-2.9779,-2.9779,-2.9779,-2.9792,-2.9779,-2.974,-2.954,-2.9478,-4.8027,-4.7758,-4.7758,-4.61,-4.3409,-4.2021,-4.1092,-4.0538,-4.0262,-3.9973,-3.971,-3.9697,-3.9697,-3.9672,-3.9433,-3.9157,-3.8894,-3.8329,-3.8065,-3.7977,-3.7739,-3.7764,-3.7977,-3.7739,-3.7475,-3.7174,-3.6983,-3.6707,-3.643,-3.6417,-3.6279,-3.5981,-3.5658,-3.5232,-3.4693,-3.4474,-3.4349,-3.4324,-3.3445,-3.2729,-3.2227,-3.1637,-3.111,-3.058,-2.9477,-2.8775,-2.8524,-2.8021,-2.7846,-2.8097,-2.7858,-2.7846,-2.8097,-2.8386,-2.8512,-2.8574,-2.885,-2.9013,-2.9026,-2.9013,-2.9126,-2.9377,-2.9628,-2.9691,-2.9428,-2.939,-2.9503,-2.9767,-2.9779,-2.9779,-2.9779,-2.9779,-2.9779,-2.9779,-2.9779,-2.9779,-2.9779,-2.9779,-2.9779,-2.9779,-2.9779,-2.9779,-2.9779,-2.9779,-2.9779,-2.9779,-2.9779,-2.9779,-2.9779,-2.9779,-2.9779,-2.9779,-2.9779,-2.9779,-2.9779,-2.9779,-2.9779,-2.9779,-2.9779,-2.9779,-2.9779,-2.9779,-2.9779,-2.9779,-2.9779,-2.9779,-2.9779,-2.9779,-2.9779,-2.9792,-2.9663,-2.9611,-2.9599,-2.9495,-2.9507,-4.7651,-4.7651,-4.7651,-4.6063,-4.3375,-4.1356,-4.0738,-4.1091,-4.0814,-4.0388,-3.9923,-3.9885,-3.981,-3.9697,-3.9697,-3.9459,-3.9082,-3.8931,-3.8693,-3.8391,-3.8253,-3.8266,-3.8354,-3.8266,-3.7914,-3.7412,-3.7249,-3.6897,-3.6468,-3.6417,-3.6417,-3.6367,-3.5943,-3.5504,-3.5102,-3.4964,-3.4868,-3.4813,-3.3508,-3.2667,-3.239,-3.1474,-3.0922,-3.0733,-2.9803,-2.9276,-2.9251,-2.8775,-2.8486,-2.8486,-2.8486,-2.8486,-2.8511,-2.8888,-2.9114,-2.9139,-2.9541,-2.9779,-2.9779,-2.9779,-2.9779,-2.9779,-2.9779,-2.9779,-2.9779,-2.9779,-2.9779,-2.9779,-2.9779,-2.9779,-2.9779,-2.9779,-2.9779,-2.9779,-2.9779,-2.9779,-2.9779,-2.9779,-2.9779,-2.9779,-2.9779,-2.9779,-2.9779,-2.9779,-2.9779,-2.9779,-2.9779,-2.9779,-2.9779,-2.9779,-2.9779,-2.9779,-2.9779,-2.9779,-2.9779,-2.9779,-2.9779,-2.9779,-2.9779,-2.9779,-2.9779,-2.9779,-2.9779,-2.9779,-2.9779,-2.9779,-2.9779,-2.9779,-2.9779,-2.9792,-2.9599,-2.9419,-2.9341,-2.9236,-2.9221,-4.8636,-4.8677,-4.8636,-4.6665,-4.3655,-4.3041,-4.1982,-4.0845,-4.1,-4.0953,-4.0463,-4.0438,-4.0149,-3.9735,-3.9697,-3.9647,-3.9546,-3.9094,-3.9107,-3.9408,-3.9032,-3.9057,-3.9396,-3.907,-3.8479,-3.7927,-3.7462,-3.6998,-3.6531,-3.6455,-3.643,-3.6417,-3.6355,-3.6292,-3.6191,-3.5705,-3.5433,-3.542,-3.4781,-3.3997,-3.3031,-3.239,-3.1825,-3.1323,-3.0771,-3.0457,-3.0419,-2.993,-2.9641,-2.9628,-2.9603,-2.9616,-2.9628,-2.9679,-2.9691,-2.9704,-2.9754,-2.9779,-2.9779,-2.9779,-2.9779,-2.9779,-2.9779,-2.9779,-2.9779,-2.9779,-2.9779,-2.9779,-2.9779,-2.9779,-2.9779,-2.9779,-2.9779,-2.9779,-2.9779,-2.9779,-2.9779,-2.9779,-2.9779,-2.9779,-2.9779,-2.9779,-2.9779,-2.9779,-2.9779,-2.9779,-2.9779,-2.9779,-2.9779,-2.9779,-2.9779,-2.9779,-2.9779,-2.9779,-2.9779,-2.9779,-2.9779,-2.9779,-2.9779,-2.9779,-2.9779,-2.9779,-2.9779,-2.9779,-2.9779,-2.9779,-2.9779,-2.9779,-2.9779,-2.9753,-2.9573,-2.9341,-2.9197,-2.9091,-2.9091,-4.9175,-4.9694,-4.9054,-4.762,-4.5562,-4.361,-4.2879,-4.312,-4.2211,-4.1517,-4.0987,-4.0949,-4.0513,-3.971,-3.9697,-3.9697,-3.9672,-3.9459,-3.9459,-3.9672,-3.9446,-3.9484,-3.9647,-3.9471,-3.9069,-3.8542,-3.8278,-3.7938,-3.7362,-3.701,-3.6847,-3.681,-3.6581,-3.6417,-3.6392,-3.6144,-3.6019,-3.6019,-3.5479,-3.4931,-3.4462,-3.3345,-3.2616,-3.2328,-3.1537,-3.1072,-3.1022,-3.0557,-3.0281,-3.0256,-2.9967,-2.9779,-2.9779,-2.9779,-2.9779,-2.9779,-2.9779,-2.9779,-2.9779,-2.9779,-2.9779,-2.9779,-2.9779,-2.9779,-2.9779,-2.9779,-2.9779,-2.9779,-2.9779,-2.9779,-2.9779,-2.9779,-2.9779,-2.9779,-2.9779,-2.9779,-2.9779,-2.9779,-2.9779,-2.9779,-2.9779,-2.9779,-2.9779,-2.9779,-2.9779,-2.9779,-2.9779,-2.9779,-2.9779,-2.9779,-2.9779,-2.9779,-2.9779,-2.9779,-2.9779,-2.9779,-2.9779,-2.9779,-2.9779,-2.9779,-2.9779,-2.9779,-2.9779,-2.9779,-2.9779,-2.9779,-2.9779,-2.9779,-2.9779,-2.9714,-2.9468,-2.9118,-2.8816,-2.8736,-2.8749,-5.001,-5.0566,-4.9376,-4.8,-4.6479,-4.4165,-4.3656,-4.4242,-4.271,-4.1706,-4.1275,-4.0987,-4.045,-3.9772,-3.9697,-3.9697,-3.9697,-3.9697,-3.9697,-3.9697,-3.9697,-3.9697,-3.9697,-3.9697,-3.9408,-3.8944,-3.8906,-3.8555,-3.8027,-3.7626,-3.7337,-3.7149,-3.6832,-3.6556,-3.643,-3.6417,-3.6417,-3.6367,-3.5956,-3.5768,-3.5579,-3.4449,-3.3608,-3.3244,-3.2215,-3.1612,-3.1599,-3.111,-3.0821,-3.0821,-3.0432,-3.0168,-3.003,-3.0018,-2.9955,-2.9804,-2.9779,-2.9779,-2.9779,-2.9779,-2.9779,-2.9779,-2.9779,-2.9779,-2.9779,-2.9779,-2.9779,-2.9779,-2.9779,-2.9779,-2.9779,-2.9779,-2.9779,-2.9779,-2.9779,-2.9779,-2.9779,-2.9779,-2.9779,-2.9779,-2.9779,-2.9779,-2.9779,-2.9779,-2.9779,-2.9779,-2.9779,-2.9779,-2.9779,-2.9779,-2.9779,-2.9779,-2.9779,-2.9779,-2.9779,-2.9779,-2.9779,-2.9779,-2.9779,-2.9779,-2.9779,-2.9779,-2.9779,-2.9779,-2.9779,-2.9779,-2.9779,-2.9779,-2.974,-2.9624,-2.9378,-2.9052,-2.8736,-2.8578,-2.851,-5.1506,-5.1484,-4.9639,-4.7591,-4.5499,-4.5066,-4.4327,-4.3597,-4.2019,-4.1351,-4.1188,-4.0362,-3.9785,-3.9735,-3.9747,-3.9697,-3.9697,-3.9697,-3.9697,-3.9697,-3.9697,-3.9697,-3.9697,-3.9685,-3.9421,-3.8981,-3.9007,-3.8655,-3.8103,-3.8002,-3.7701,-3.7236,-3.7174,-3.6945,-3.6581,-3.6531,-3.643,-3.6455,-3.6417,-3.6367,-3.6267,-3.5692,-3.4806,-3.3909,-3.278,-3.2215,-3.2127,-3.165,-3.1361,-3.1361,-3.1273,-3.1072,-3.0645,-3.0557,-3.0319,-2.9892,-2.9804,-2.9779,-2.9779,-2.9779,-2.9779,-2.9779,-2.9779,-2.9779,-2.9779,-2.9779,-2.9779,-2.9779,-2.9779,-2.9779,-2.9779,-2.9779,-2.9779,-2.9779,-2.9779,-2.9779,-2.9779,-2.9779,-2.9779,-2.9779,-2.9779,-2.9779,-2.9779,-2.9779,-2.9779,-2.9779,-2.9779,-2.9779,-2.9779,-2.9779,-2.9779,-2.9779,-2.9779,-2.9779,-2.9779,-2.9779,-2.9779,-2.9779,-2.9779,-2.9779,-2.9779,-2.9779,-2.9779,-2.9779,-2.9779,-2.9779,-2.9779,-2.974,-2.965,-2.9521,-2.9365,-2.904,-2.8764,-2.8618,-2.8538,-5.1842,-5.0817,-4.9416,-4.8414,-4.7743,-4.5914,-4.5326,-4.5459,-4.3357,-4.2183,-4.1844,-4.143,-4.089,-4.0224,-4.0224,-4.0023,-3.9722,-3.9697,-3.9697,-3.9697,-3.9697,-3.9697,-3.9697,-3.9697,-3.9609,-3.9433,-3.9396,-3.9295,-3.9069,-3.8743,-3.8517,-3.8228,-3.7877,-3.76,-3.745,-3.7425,-3.7249,-3.6923,-3.6897,-3.6769,-3.6405,-3.5818,-3.5282,-3.4893,-3.3884,-3.3131,-3.278,-3.2215,-3.1913,-3.1913,-3.1587,-3.1311,-3.111,-3.0796,-3.0532,-3.0319,-2.9993,-2.9779,-2.9779,-2.9779,-2.9779,-2.9779,-2.9779,-2.9817,-2.9779,-2.9779,-2.9779,-2.9779,-2.9779,-2.9779,-2.9779,-2.9779,-2.9779,-2.9779,-2.9779,-2.9779,-2.9779,-2.9779,-2.9779,-2.9779,-2.9779,-2.9779,-2.9779,-2.9779,-2.9779,-2.9779,-2.9779,-2.9779,-2.9779,-2.9779,-2.9779,-2.9779,-2.9779,-2.9779,-2.9779,-2.9779,-2.9779,-2.9779,-2.9779,-2.9779,-2.9779,-2.9779,-2.9779,-2.9779,-2.9779,-2.9779,-2.9779,-2.9779,-2.9689,-2.9509,-2.9314,-2.9157,-2.8882,-2.8724,-2.8618,-5.2318,-5.0696,-4.9778,-4.9371,-4.8998,-4.6502,-4.5944,-4.6418,-4.395,-4.2552,-4.2225,-4.2037,-4.1379,-4.0664,-4.0701,-4.0362,-3.9747,-3.9697,-3.9697,-3.9697,-3.9697,-3.9697,-3.9697,-3.9697,-3.9697,-3.9697,-3.9697,-3.9697,-3.9659,-3.932,-3.9057,-3.8831,-3.8454,-3.8191,-3.804,-3.8002,-3.7801,-3.7487,-3.7274,-3.7033,-3.6644,-3.6094,-3.5671,-3.5433,-3.4768,-3.4085,-3.3382,-3.2792,-3.2491,-3.2441,-3.2127,-3.1851,-3.1637,-3.116,-3.0859,-3.0821,-3.052,-3.0319,-3.0306,-3.0306,-3.0306,-3.0306,-3.0306,-3.0256,-3.0093,-3.0055,-2.998,-2.9854,-2.9779,-2.9779,-2.9779,-2.9779,-2.9779,-2.9779,-2.9779,-2.9779,-2.9779,-2.9779,-2.9779,-2.9779,-2.9779,-2.9779,-2.9779,-2.9779,-2.9779,-2.9779,-2.9779,-2.9779,-2.9779,-2.9779,-2.9779,-2.9779,-2.9779,-2.9779,-2.9779,-2.9779,-2.9779,-2.9779,-2.9779,-2.9779,-2.9779,-2.9779,-2.9779,-2.9779,-2.9779,-2.9779,-2.9779,-2.9779,-2.9689,-2.9548,-2.9419,-2.9263,-2.9079,-2.8882,-2.8764,-5.2975,-5.1407,-5.0939,-5.0123,-4.9117,-4.7107,-4.6197,-4.5813,-4.3525,-4.2515,-4.2263,-4.1693,-4.1291,-4.0802,-4.1166,-4.0777,-3.9986,-3.9885,-3.9835,-3.9785,-3.9772,-3.9772,-3.9772,-3.9722,-3.9697,-3.9697,-3.9697,-3.9697,-3.9685,-3.9622,-3.9383,-3.9045,-3.8957,-3.8655,-3.8065,-3.8178,-3.809,-3.7927,-3.7538,-3.7211,-3.7111,-3.6631,-3.6069,-3.5608,-3.5433,-3.4906,-3.3985,-3.3382,-3.3043,-3.3074,-3.3036,-3.2767,-3.2227,-3.17,-3.1386,-3.1386,-3.1348,-3.1336,-3.1311,-3.126,-3.121,-3.121,-3.1311,-3.1047,-3.0696,-3.0608,-3.0432,-3.008,-2.9955,-2.9905,-2.993,-2.9892,-2.9842,-2.9779,-2.9779,-2.9779,-2.9779,-2.9779,-2.9779,-2.9779,-2.9779,-2.9779,-2.9779,-2.9779,-2.9779,-2.9779,-2.9779,-2.9779,-2.9779,-2.9779,-2.9779,-2.9779,-2.9779,-2.9779,-2.9779,-2.9779,-2.9779,-2.9779,-2.9779,-2.9779,-2.9779,-2.9779,-2.9779,-2.9779,-2.9779,-2.9779,-2.9779,-2.9779,-2.9779,-2.965,-2.9548,-2.9419,-2.9263,-2.9067,-2.891,-5.3101,-5.2005,-5.0408,-4.9854,-4.9729,-4.8201,-4.727,-4.6651,-4.4877,-4.365,-4.2851,-4.2547,-4.2158,-4.1756,-4.1831,-4.1505,-4.0799,-4.0814,-4.0626,-4.0325,-4.0262,-4.0249,-4.0174,-3.9873,-3.9697,-3.9697,-3.9697,-3.9697,-3.9697,-3.9697,-3.9584,-3.9471,-3.9433,-3.9358,-3.9145,-3.9157,-3.9007,-3.8567,-3.804,-3.7575,-3.7186,-3.6694,-3.6329,-3.6094,-3.5696,-3.5307,-3.4969,-3.4135,-3.3483,-3.3187,-3.3124,-3.3036,-3.2742,-3.2265,-3.1976,-3.1913,-3.1587,-3.1386,-3.1386,-3.1411,-3.1436,-3.1399,-3.1411,-3.1336,-3.1185,-3.1148,-3.106,-3.0884,-3.0896,-3.0896,-3.0846,-3.0545,-3.0244,-2.9842,-2.9779,-2.9779,-2.9779,-2.9779,-2.9779,-2.9779,-2.9779,-2.9779,-2.9779,-2.9779,-2.9779,-2.9779,-2.9779,-2.9779,-2.9779,-2.9779,-2.9779,-2.9779,-2.9779,-2.9779,-2.9779,-2.9779,-2.9779,-2.9779,-2.9779,-2.9779,-2.9779,-2.9779,-2.9779,-2.9779,-2.9779,-2.9779,-2.9779,-2.9779,-2.9779,-2.9779,-2.9689,-2.956,-2.9419,-2.9263,-2.9106,-5.3558,-5.2681,-5.0781,-5.0227,-5.0339,-4.8619,-4.7558,-4.6823,-4.5048,-4.381,-4.3085,-4.2974,-4.2728,-4.2326,-4.2414,-4.2032,-4.1388,-4.1677,-4.1643,-4.1141,-4.0877,-4.0674,-4.0488,-3.9948,-3.9697,-3.9697,-3.9697,-3.9697,-3.9697,-3.9697,-3.9697,-3.9697,-3.9697,-3.9685,-3.9697,-3.9685,-3.9496,-3.9132,-3.863,-3.8165,-3.7726,-3.7109,-3.6719,-3.6631,-3.6132,-3.578,-3.5483,-3.4818,-3.4248,-3.3759,-3.3508,-3.3382,-3.3345,-3.2855,-3.2528,-3.2466,-3.2252,-3.2039,-3.2055,-3.2077,-3.2026,-3.2026,-3.2014,-3.1901,-3.1763,-3.17,-3.1637,-3.1424,-3.1361,-3.1386,-3.1323,-3.1122,-3.0746,-3.0444,-3.0005,-2.9817,-2.9779,-2.9779,-2.9779,-2.9779,-2.9779,-2.9779,-2.9779,-2.9779,-2.9779,-2.9779,-2.9779,-2.9779,-2.9779,-2.9779,-2.9779,-2.9779,-2.9779,-2.9779,-2.9779,-2.9779,-2.9779,-2.9779,-2.9779,-2.9779,-2.9779,-2.9779,-2.9779,-2.9779,-2.9779,-2.9779,-2.9779,-2.9779,-2.9779,-2.9779,-2.9779,-2.9689,-2.956,-2.9419,-2.9263,-5.423,-5.3394,-5.191,-5.1218,-5.0857,-4.8645,-4.7476,-4.6695,-4.463,-4.3394,-4.3085,-4.2986,-4.2766,-4.2476,-4.271,-4.2396,-4.1756,-4.2396,-4.2572,-4.2108,-4.1693,-4.1163,-4.0526,-3.9948,-3.971,-3.9697,-3.9697,-3.9697,-3.9697,-3.9697,-3.9697,-3.9697,-3.9697,-3.9697,-3.9697,-3.9697,-3.9685,-3.9546,-3.9094,-3.8844,-3.8756,-3.7776,-3.7236,-3.7186,-3.6697,-3.6207,-3.5796,-3.5571,-3.5219,-3.4726,-3.4161,-3.3947,-3.3847,-3.3432,-3.3219,-3.3144,-3.3149,-3.3061,-3.3099,-3.2935,-3.296,-3.2935,-3.291,-3.2855,-3.2353,-3.2252,-3.2102,-3.1725,-3.165,-3.1599,-3.1612,-3.1486,-3.1399,-3.1248,-3.047,-2.9967,-2.9792,-2.9779,-2.9779,-2.9779,-2.9779,-2.9779,-2.9779,-2.9779,-2.9779,-2.9779,-2.9779,-2.9779,-2.9779,-2.9779,-2.9779,-2.9779,-2.9779,-2.9779,-2.9779,-2.9779,-2.9779,-2.9779,-2.9779,-2.9779,-2.9779,-2.9779,-2.9779,-2.9779,-2.9779,-2.9779,-2.9779,-2.9779,-2.9779,-2.9779,-2.9779,-2.9779,-2.9689,-2.956,-2.9509,-5.5199,-5.4182,-5.2971,-5.1972,-5.1199,-5.0335,-4.8886,-4.7146,-4.6331,-4.4671,-4.3394,-4.2986,-4.2898,-4.2773,-4.2898,-4.2798,-4.2647,-4.2823,-4.2936,-4.2828,-4.2635,-4.1731,-4.0626,-3.9973,-3.9722,-3.9722,-3.9747,-3.9697,-3.9697,-3.9697,-3.9697,-3.9697,-3.9697,-3.9697,-3.9697,-3.9697,-3.9697,-3.9609,-3.9157,-3.8944,-3.8844,-3.8203,-3.7814,-3.7739,-3.7262,-3.691,-3.6697,-3.6358,-3.568,-3.4801,-3.4613,-3.4455,-3.45,-3.4311,-3.4035,-3.3746,-3.3658,-3.3483,-3.3181,-3.3149,-3.3136,-3.3124,-3.3124,-3.3048,-3.288,-3.2842,-3.2767,-3.2671,-3.2629,-3.2604,-3.2541,-3.224,-3.1876,-3.1399,-3.0834,-3.0281,-2.993,-2.9779,-2.9779,-2.9779,-2.9779,-2.9779,-2.9779,-2.9779,-2.9779,-2.9779,-2.9779,-2.9779,-2.9779,-2.9779,-2.9779,-2.9779,-2.9779,-2.9779,-2.9779,-2.9779,-2.9779,-2.9779,-2.9779,-2.9779,-2.9779,-2.9779,-2.9779,-2.9779,-2.9779,-2.9779,-2.9779,-2.9779,-2.9779,-2.9779,-2.9779,-2.9779,-2.9779,-2.9689,-2.9689,-5.5594,-5.4489,-5.3352,-5.223,-5.1152,-5.0588,-4.9406,-4.7923,-4.663,-4.5409,-4.3962,-4.3184,-4.2986,-4.2986,-4.2986,-4.2986,-4.2986,-4.2986,-4.2974,-4.2924,-4.2685,-4.2057,-4.1241,-4.0651,-4.0262,-4.0036,-4.0036,-3.991,-3.9735,-3.9697,-3.9697,-3.9697,-3.9697,-3.9697,-3.9697,-3.9697,-3.9697,-3.9647,-3.9371,-3.922,-3.917,-3.8668,-3.8404,-3.8266,-3.7826,-3.745,-3.7161,-3.6694,-3.6078,-3.5491,-3.5215,-3.5019,-3.4994,-3.4793,-3.4575,-3.4261,-3.4236,-3.401,-3.3545,-3.342,-3.335,-3.3187,-3.3124,-3.3124,-3.3111,-3.3124,-3.3124,-3.3086,-3.3124,-3.3124,-3.3074,-3.2767,-3.2328,-3.1851,-3.1461,-3.0972,-3.0231,-2.9942,-2.9804,-2.9779,-2.9779,-2.9779,-2.9779,-2.9779,-2.9779,-2.9779,-2.9779,-2.9779,-2.9779,-2.9779,-2.9779,-2.9779,-2.9779,-2.9779,-2.9779,-2.9779,-2.9779,-2.9779,-2.9779,-2.9779,-2.9779,-2.9779,-2.9779,-2.9779,-2.9779,-2.9779,-2.9779,-2.9779,-2.9779,-2.9779,-2.9779,-2.9779,-2.9779,-2.9779,-2.9779,-5.5691,-5.4505,-5.3613,-5.2561,-5.1493,-5.0176,-4.9839,-4.9022,-4.6916,-4.5462,-4.4725,-4.37,-4.324,-4.2986,-4.2986,-4.2986,-4.2986,-4.2986,-4.2986,-4.2848,-4.2665,-4.2288,-4.2187,-4.1417,-4.089,-4.0501,-4.0501,-4.0162,-3.9823,-3.9697,-3.9697,-3.9697,-3.9697,-3.9697,-3.9697,-3.9697,-3.9697,-3.9697,-3.9647,-3.9597,-3.9534,-3.9182,-3.8969,-3.8868,-3.8391,-3.7839,-3.7349,-3.687,-3.648,-3.648,-3.5918,-3.5621,-3.552,-3.514,-3.4901,-3.4793,-3.4743,-3.4517,-3.4098,-3.3972,-3.3771,-3.3395,-3.3287,-3.3224,-3.33,-3.325,-3.3124,-3.3124,-3.3124,-3.3124,-3.3111,-3.3086,-3.2805,-3.2365,-3.2227,-3.1712,-3.0947,-3.0244,-2.9854,-2.9792,-2.9779,-2.9779,-2.9779,-2.9779,-2.9779,-2.9779,-2.9779,-2.9779,-2.9779,-2.9779,-2.9779,-2.9779,-2.9779,-2.9779,-2.9779,-2.9779,-2.9779,-2.9779,-2.9779,-2.9779,-2.9779,-2.9779,-2.9779,-2.9779,-2.9779,-2.9779,-2.9779,-2.9779,-2.9779,-2.9779,-2.9779,-2.9779,-2.9779,-2.9779,-2.9779,-5.6393,-5.4672,-5.5272,-5.4693,-5.3371,-5.2489,-5.1833,-5.1161,-4.9164,-4.6978,-4.5302,-4.4684,-4.3962,-4.2986,-4.2986,-4.2986,-4.2986,-4.2986,-4.2986,-4.3004,-4.2942,-4.2854,-4.2597,-4.1869,-4.1103,-4.0714,-4.0551,-4.0237,-3.9848,-3.976,-3.9697,-3.9697,-3.9697,-3.9697,-3.9697,-3.9697,-3.9697,-3.9697,-3.9697,-3.9697,-3.9697,-3.9584,-3.9471,-3.9421,-3.8931,-3.8404,-3.7852,-3.7299,-3.7071,-3.6872,-3.6508,-3.6169,-3.6094,-3.6053,-3.5742,-3.5454,-3.532,-3.5082,-3.4675,-3.448,-3.4374,-3.3972,-3.3809,-3.3784,-3.3884,-3.3426,-3.3187,-3.3124,-3.3124,-3.3124,-3.3124,-3.3124,-3.3036,-3.2792,-3.2478,-3.2139,-3.1662,-3.0934,-3.0331,-2.9967,-2.9829,-2.9792,-2.9804,-2.9804,-2.9792,-2.9792,-2.9792,-2.9792,-2.9779,-2.9779,-2.9779,-2.9779,-2.9779,-2.9779,-2.9779,-2.9779,-2.9779,-2.9779,-2.9779,-2.9779,-2.9779,-2.9779,-2.9779,-2.9779,-2.9779,-2.9779,-2.9779,-2.9779,-2.9779,-2.9779,-2.9779,-2.9779,-2.9779,-2.9779,-2.9779,-5.6142,-5.4697,-5.5231,-5.4697,-5.3645,-5.3612,-5.3201,-5.22,-5.0686,-4.8439,-4.6213,-4.5356,-4.4277,-4.303,-4.2986,-4.2986,-4.2986,-4.2986,-4.2986,-4.2974,-4.2974,-4.2974,-4.2924,-4.2421,-4.1831,-4.1354,-4.1304,-4.0865,-4.0287,-4.0049,-3.9961,-3.971,-3.9722,-3.9697,-3.9697,-3.971,-3.9697,-3.9697,-3.9697,-3.9697,-3.9697,-3.9697,-3.9697,-3.9597,-3.9182,-3.8743,-3.8404,-3.7864,-3.7475,-3.7186,-3.6945,-3.6644,-3.6443,-3.6417,-3.6194,-3.6006,-3.5931,-3.5667,-3.5219,-3.5031,-3.4914,-3.4487,-3.4349,-3.4349,-3.4274,-3.3822,-3.3508,-3.3395,-3.33,-3.3124,-3.3124,-3.3124,-3.3124,-3.3074,-3.2805,-3.2621,-3.2395,-3.1599,-3.0809,-3.0407,-3.0256,-3.0218,-3.0156,-3.0068,-2.988,-2.9892,-2.9867,-2.9854,-2.9792,-2.9792,-2.9779,-2.9779,-2.9779,-2.9779,-2.9779,-2.9779,-2.9779,-2.9779,-2.9779,-2.9779,-2.9779,-2.9779,-2.9779,-2.9779,-2.9779,-2.9779,-2.9779,-2.9779,-2.9779,-2.9779,-2.9779,-2.9779,-2.9779,-2.9779,-2.9779,-5.5288,-5.4236,-5.4457,-5.4019,-5.3318,-5.4131,-5.412,-5.3217,-5.1729,-4.9806,-4.764,-4.6132,-4.5236,-4.3846,-4.3771,-4.37,-4.3755,-4.381,-4.4113,-4.4071,-4.3657,-4.3547,-4.3398,-4.3088,-4.2622,-4.2351,-4.2125,-4.1505,-4.0865,-4.0561,-4.0463,-4.0061,-3.9986,-4.0036,-3.991,-3.9823,-3.981,-3.9722,-3.9697,-3.9697,-3.9697,-3.9697,-3.9697,-3.9609,-3.9346,-3.9069,-3.8894,-3.8442,-3.7902,-3.7362,-3.7224,-3.6933,-3.6568,-3.6417,-3.6417,-3.6392,-3.6342,-3.6081,-3.578,-3.5642,-3.5479,-3.4989,-3.4818,-3.4806,-3.4693,-3.4399,-3.4098,-3.3847,-3.359,-3.312,-3.3063,-3.2982,-3.3025,-3.3025,-3.3068,-3.3124,-3.296,-3.219,-3.165,-3.1323,-3.0972,-3.0733,-3.062,-3.0507,-3.0231,-3.0018,-3.0005,-3.0005,-2.998,-2.9892,-2.9942,-3.0244,-3.0382,-3.0419,-3.0419,-3.0369,-3.0294,-3.0206,-3.0118,-3.0118,-3.0043,-2.9854,-2.9854,-2.9792,-2.9779,-2.9817,-2.9817,-2.9779,-2.9779,-2.9779,-2.9779,-2.9779,-2.9779,-2.9779,-2.9779,-5.3861,-5.2485,-5.3957,-5.4272,-5.3923,-5.4407,-5.4867,-5.4883,-5.323,-5.1364,-4.9439,-4.8704,-4.722,-4.5997,-4.6206,-4.637,-4.6017,-4.6018,-4.611,-4.5886,-4.5195,-4.4684,-4.4522,-4.3907,-4.3207,-4.2748,-4.2544,-4.2061,-4.1367,-4.1137,-4.1065,-4.1028,-4.0965,-4.0789,-4.0475,-4.0362,-4.0187,-3.9936,-3.9835,-3.9785,-3.9785,-3.9722,-3.9697,-3.9697,-3.9521,-3.9496,-3.9408,-3.9007,-3.8467,-3.7914,-3.7425,-3.6948,-3.6451,-3.6326,-3.636,-3.6417,-3.6417,-3.6317,-3.6157,-3.6182,-3.6229,-3.6006,-3.5655,-3.537,-3.5245,-3.4868,-3.4555,-3.4272,-3.3801,-3.3252,-3.2791,-3.2779,-3.2754,-3.281,-3.2939,-3.3081,-3.3031,-3.2787,-3.2604,-3.2365,-3.1813,-3.126,-3.116,-3.1035,-3.0821,-3.0708,-3.0721,-3.0746,-3.0758,-3.052,-3.0281,-3.0708,-3.1185,-3.1198,-3.1198,-3.1122,-3.106,-3.0972,-3.0896,-3.0896,-3.0683,-3.0143,-2.9955,-3.0043,-3.0018,-3.0018,-2.9967,-2.993,-3.0005,-3.0156,-3.0005,-2.9829,-2.988,-2.9942,-2.9792,-5.1256,-5.1408,-5.2265,-5.2962,-5.3611,-5.4867,-5.5303,-5.504,-5.4291,-5.2465,-5.0457,-4.9498,-4.8204,-4.6743,-4.6781,-4.7094,-4.7215,-4.7505,-4.7371,-4.6998,-4.6383,-4.6069,-4.6083,-4.5356,-4.4684,-4.4199,-4.3749,-4.2901,-4.1861,-4.1769,-4.163,-4.13,-4.1275,-4.1125,-4.0949,-4.0887,-4.0789,-4.0501,-4.0262,-4.0099,-4.0049,-3.9873,-3.971,-3.9697,-3.9697,-3.9697,-3.9647,-3.9496,-3.9032,-3.8542,-3.8203,-3.7232,-3.6284,-3.5819,-3.5938,-3.6243,-3.6323,-3.6358,-3.6417,-3.6417,-3.6392,-3.638,-3.6081,-3.5994,-3.5843,-3.5491,-3.4961,-3.4449,-3.3846,-3.3279,-3.2963,-3.2716,-3.2574,-3.255,-3.268,-3.2865,-3.2952,-3.2865,-3.2909,-3.2945,-3.2323,-3.1809,-3.1763,-3.1612,-3.1424,-3.1386,-3.1424,-3.1461,-3.1512,-3.126,-3.0934,-3.116,-3.1612,-3.1625,-3.1637,-3.1662,-3.1662,-3.1625,-3.1587,-3.1587,-3.1436,-3.0934,-3.0608,-3.0495,-3.0432,-3.0595,-3.0507,-3.0608,-3.0583,-3.052,-3.0419,-3.0306,-3.0168,-3.0068,-3.0005,-4.8441,-4.9719,-5.0251,-5.1131,-5.2483,-5.4815,-5.5393,-5.4775,-5.4917,-5.3341,-5.0689,-5.0156,-4.8911,-4.7531,-4.7756,-4.8235,-4.8227,-4.8957,-4.8988,-4.8477,-4.7959,-4.7699,-4.7517,-4.7094,-4.637,-4.5502,-4.4847,-4.4097,-4.2659,-4.2376,-4.2057,-4.1919,-4.1718,-4.1568,-4.1543,-4.1505,-4.148,-4.1125,-4.0814,-4.0513,-4.0262,-3.9948,-3.9697,-3.9697,-3.9697,-3.9697,-3.9685,-3.9647,-3.9333,-3.8855,-3.8327,-3.7463,-3.5707,-3.497,-3.5081,-3.5587,-3.562,-3.5715,-3.5918,-3.5918,-3.5763,-3.5763,-3.6216,-3.6345,-3.6223,-3.5765,-3.5167,-3.4437,-3.3771,-3.3247,-3.3019,-3.2658,-3.2457,-3.2416,-3.2455,-3.2519,-3.2692,-3.2692,-3.255,-3.2475,-3.2354,-3.2301,-3.2231,-3.2303,-3.2194,-3.2156,-3.2194,-3.2114,-3.2152,-3.2064,-3.1851,-3.1813,-3.1938,-3.1951,-3.1989,-3.2064,-3.2114,-3.2194,-3.2139,-3.2139,-3.2014,-3.1788,-3.1549,-3.1399,-3.1574,-3.1712,-3.1512,-3.1185,-3.1047,-3.0947,-3.0871,-3.0809,-3.0721,-3.0608,-3.052,-4.6292,-4.6182,-4.8448,-4.9475,-5.0217,-5.3373,-5.4764,-5.4627,-5.492,-5.4082,-5.1922,-5.1635,-5.0469,-4.9543,-5.0641,-5.1357,-5.1609,-5.1754,-5.1641,-5.0886,-5.0095,-4.9409,-4.8809,-4.7619,-4.7402,-4.6799,-4.5767,-4.4305,-4.3271,-4.2952,-4.2811,-4.2672,-4.2559,-4.2547,-4.2082,-4.2057,-4.1794,-4.1313,-4.0786,-4.0337,-3.9936,-3.9772,-3.971,-3.9697,-3.9697,-3.9581,-3.953,-3.9505,-3.9382,-3.8752,-3.7633,-3.6665,-3.5604,-3.4068,-3.3475,-3.3237,-3.319,-3.3353,-3.4337,-3.4629,-3.4775,-3.5017,-3.5619,-3.6216,-3.6083,-3.5761,-3.5215,-3.4831,-3.3955,-3.3326,-3.292,-3.2592,-3.2454,-3.2442,-3.2475,-3.244,-3.2481,-3.2685,-3.2535,-3.213,-3.2042,-3.2432,-3.2653,-3.2807,-3.2948,-3.2935,-3.2855,-3.2737,-3.2674,-3.2451,-3.2401,-3.2272,-3.2247,-3.2247,-3.2222,-3.2326,-3.2394,-3.2549,-3.2604,-3.2616,-3.2528,-3.2441,-3.2679,-3.2604,-3.2704,-3.2461,-3.2031,-3.1693,-3.1524,-3.1436,-3.1461,-3.1399,-3.1298,-3.1173,-3.0984,-4.4427,-4.534,-4.8063,-4.921,-4.9611,-5.2623,-5.3971,-5.4099,-5.4555,-5.3729,-5.2259,-5.2093,-5.142,-5.065,-5.1738,-5.2109,-5.2336,-5.2875,-5.2815,-5.2306,-5.1535,-5.0934,-5.0371,-4.9679,-4.9196,-4.8175,-4.7517,-4.6226,-4.4738,-4.3394,-4.2986,-4.2986,-4.2974,-4.2861,-4.264,-4.2678,-4.2509,-4.2108,-4.1467,-4.0727,-4.0224,-3.9873,-3.9697,-3.9697,-3.9697,-3.9297,-3.8896,-3.9337,-3.9042,-3.8512,-3.7943,-3.7196,-3.562,-3.4276,-3.3557,-3.2168,-3.1284,-3.1641,-3.2908,-3.3201,-3.3586,-3.4227,-3.4872,-3.5174,-3.5235,-3.5138,-3.4605,-3.3711,-3.32,-3.287,-3.278,-3.2477,-3.2498,-3.2528,-3.2611,-3.2357,-3.2325,-3.2545,-3.2575,-3.2124,-3.1812,-3.2204,-3.2558,-3.2604,-3.2636,-3.2649,-3.2581,-3.2556,-3.25,-3.2488,-3.2488,-3.2513,-3.25,-3.2513,-3.2494,-3.2537,-3.2548,-3.2684,-3.2867,-3.2893,-3.2968,-3.3031,-3.3038,-3.2909,-3.2673,-3.2443,-3.2299,-3.2339,-3.2248,-3.2177,-3.2077,-3.1964,-3.1825,-3.1474,-3.1204,-4.3393,-4.4725,-4.7159,-4.824,-4.8698,-5.1398,-5.2869,-5.3335,-5.3564,-5.2914,-5.1715,-5.1142,-5.0559,-5.0597,-5.1002,-5.1546,-5.1736,-5.2715,-5.271,-5.2381,-5.2112,-5.1718,-5.119,-5.0917,-5.054,-4.9664,-4.8999,-4.7923,-4.6279,-4.4576,-4.3492,-4.303,-4.2986,-4.2961,-4.2974,-4.2911,-4.2798,-4.2484,-4.1718,-4.0974,-4.0488,-3.9936,-3.976,-3.9697,-3.9581,-3.9193,-3.8465,-3.9013,-3.9013,-3.8703,-3.8469,-3.7584,-3.5943,-3.4891,-3.4024,-3.2825,-3.1888,-3.155,-3.2132,-3.2251,-3.2561,-3.3101,-3.381,-3.3859,-3.3871,-3.4005,-3.3808,-3.2733,-3.2318,-3.2336,-3.2483,-3.2225,-3.2294,-3.2499,-3.27,-3.241,-3.2258,-3.2609,-3.2677,-3.2323,-3.202,-3.185,-3.211,-3.2214,-3.2277,-3.2286,-3.23,-3.2325,-3.2369,-3.235,-3.2155,-3.2167,-3.2306,-3.235,-3.2412,-3.2487,-3.2562,-3.2798,-3.2983,-3.302,-3.3032,-3.2964,-3.2909,-3.2766,-3.2593,-3.2345,-3.2074,-3.2556,-3.3013,-3.278,-3.2554,-3.2491,-3.2303,-3.1897,-3.1622,-4.3704,-4.324,-4.4645,-4.5666,-4.6554,-4.9081,-5.1074,-5.2179,-5.1866,-5.1545,-5.0718,-4.9012,-4.7856,-4.7983,-4.9352,-5.0254,-5.039,-5.2309,-5.2409,-5.2192,-5.2127,-5.1798,-5.1424,-5.1167,-5.1105,-5.076,-5.0032,-4.9308,-4.8289,-4.6161,-4.4522,-4.3184,-4.3085,-4.303,-4.2886,-4.276,-4.271,-4.2409,-4.1781,-4.1125,-4.0626,-4.0111,-3.9772,-3.971,-3.9697,-3.9645,-3.953,-3.9581,-3.9413,-3.9013,-3.8622,-3.8007,-3.6814,-3.5745,-3.4755,-3.3986,-3.357,-3.2964,-3.2564,-3.1687,-3.0968,-3.1129,-3.1785,-3.2644,-3.2493,-3.2061,-3.188,-3.188,-3.1393,-3.1578,-3.1761,-3.1873,-3.1939,-3.2483,-3.2861,-3.3043,-3.2887,-3.2806,-3.2827,-3.2491,-3.2153,-3.1767,-3.1493,-3.1565,-3.2023,-3.2091,-3.2273,-3.2297,-3.2208,-3.2151,-3.1699,-3.1621,-3.1906,-3.2015,-3.2123,-3.2328,-3.2806,-3.3044,-3.3252,-3.3109,-3.2891,-3.2866,-3.2922,-3.2593,-3.2419,-3.2157,-3.1937,-3.2201,-3.2506,-3.2952,-3.3036,-3.283,-3.2652,-3.2311,-3.2196,-4.2217,-4.1969,-4.1584,-4.2774,-4.511,-4.7614,-4.905,-4.9605,-4.9659,-4.9222,-4.849,-4.7167,-4.655,-4.6878,-4.7573,-4.8353,-4.8683,-5.0427,-5.0918,-5.141,-5.1554,-5.1688,-5.1424,-5.1167,-5.1182,-5.112,-5.0555,-4.9873,-4.8936,-4.7757,-4.6226,-4.4792,-4.3538,-4.2502,-4.2296,-4.2421,-4.2577,-4.2602,-4.2095,-4.1555,-4.0974,-4.0488,-4.0036,-3.971,-3.9697,-3.9141,-3.8635,-3.931,-3.9025,-3.8739,-3.8675,-3.8295,-3.7808,-3.6726,-3.6056,-3.5332,-3.5029,-3.4419,-3.3386,-3.2137,-3.0863,-3.0693,-3.1429,-3.1949,-3.133,-3.1165,-3.0764,-3.0567,-3.0422,-3.0692,-3.1081,-3.1342,-3.1638,-3.2406,-3.2935,-3.3285,-3.3456,-3.3289,-3.2463,-3.1929,-3.1601,-3.1323,-3.1076,-3.0886,-3.1456,-3.1914,-3.2119,-3.2251,-3.2193,-3.1931,-3.1505,-3.1275,-3.1575,-3.194,-3.211,-3.2581,-3.3097,-3.333,-3.3516,-3.3355,-3.3182,-3.3069,-3.3005,-3.2646,-3.223,-3.1906,-3.1728,-3.1753,-3.2057,-3.2593,-3.2952,-3.3086,-3.2871,-3.2612,-3.2276,-4.1399,-4.0565,-3.9363,-4.0711,-4.3684,-4.5043,-4.6198,-4.6948,-4.6983,-4.622,-4.4954,-4.4275,-4.3861,-4.4151,-4.5151,-4.5671,-4.6397,-4.8024,-4.9013,-4.9695,-5.033,-5.0877,-5.0894,-5.0964,-5.1229,-5.1229,-5.112,-5.0603,-4.9921,-4.9421,-4.7933,-4.6087,-4.4235,-4.292,-4.1982,-4.1957,-4.2489,-4.271,-4.2258,-4.1794,-4.1213,-4.0588,-4.0124,-3.9722,-3.9697,-3.9362,-3.8908,-3.9258,-3.9245,-3.9013,-3.8961,-3.9037,-3.8582,-3.8019,-3.7583,-3.6823,-3.6117,-3.574,-3.495,-3.3453,-3.1667,-3.1201,-3.1279,-3.1091,-3.0412,-3.0182,-2.9691,-2.9343,-2.9459,-2.9837,-3.0391,-3.0587,-3.1338,-3.2113,-3.2737,-3.3157,-3.3586,-3.3562,-3.2319,-3.1297,-3.1023,-3.0867,-3.1002,-3.0905,-3.1468,-3.191,-3.2031,-3.2194,-3.2214,-3.1891,-3.1315,-3.1191,-3.1298,-3.172,-3.2159,-3.2709,-3.3201,-3.3666,-3.3822,-3.381,-3.3654,-3.3469,-3.304,-3.2469,-3.2088,-3.171,-3.1518,-3.1496,-3.1833,-3.232,-3.2593,-3.2822,-3.255,-3.2189,-3.1681,-4.1567,-3.9184,-3.8518,-3.9807,-4.1852,-4.0926,-4.2235,-4.4486,-4.4069,-4.2852,-4.1326,-3.997,-3.9193,-3.9578,-4.1521,-4.257,-4.3576,-4.5726,-4.7153,-4.762,-4.8738,-4.9155,-4.9693,-5.0191,-5.076,-5.112,-5.1167,-5.112,-5.0964,-5.0032,-4.8873,-4.732,-4.5117,-4.3261,-4.2246,-4.2187,-4.2502,-4.2748,-4.1944,-4.1656,-4.1125,-4.0488,-4.0099,-3.9735,-3.9697,-3.9478,-3.9478,-3.9478,-3.9465,-3.9413,-3.9465,-3.953,-3.9362,-3.931,-3.9141,-3.8856,-3.7796,-3.7323,-3.7068,-3.5024,-3.3367,-3.1891,-3.1741,-3.0584,-2.9395,-2.8893,-2.8939,-2.9055,-2.8983,-2.9179,-2.9447,-2.9816,-3.0847,-3.1953,-3.2611,-3.3373,-3.3831,-3.3373,-3.2055,-3.0578,-3.0391,-3.0411,-3.0753,-3.1076,-3.1622,-3.1948,-3.2001,-3.2099,-3.2158,-3.1638,-3.1015,-3.0721,-3.0782,-3.1622,-3.2131,-3.2759,-3.3298,-3.383,-3.4109,-3.4182,-3.4063,-3.3814,-3.324,-3.2446,-3.1913,-3.1576,-3.1356,-3.1147,-3.1386,-3.1621,-3.2194,-3.2376,-3.2113,-3.1878,-3.1517,-4.1042,-3.9136,-3.7146,-3.6828,-3.7869,-3.9218,-4.0387,-4.1248,-4.1463,-4.09,-3.963,-3.8606,-3.8076,-3.8269,-3.8733,-3.999,-4.1106,-4.2928,-4.4447,-4.5806,-4.7029,-4.767,-4.8239,-4.9049,-4.981,-5.0143,-5.0555,-5.112,-5.112,-5.0493,-4.9493,-4.7909,-4.5549,-4.3256,-4.2401,-4.225,-4.2489,-4.2848,-4.2547,-4.2133,-4.1404,-4.0902,-4.04,-3.9772,-3.971,-3.9735,-3.9697,-3.9697,-3.9645,-3.9581,-3.953,-3.9581,-3.953,-3.953,-3.9193,-3.857,-3.7465,-3.6972,-3.6356,-3.5003,-3.4406,-3.3084,-3.1489,-3.0615,-3.052,-2.9669,-2.9425,-2.9143,-2.8981,-2.9193,-2.9379,-2.9346,-3.0266,-3.1993,-3.2939,-3.3956,-3.4311,-3.3039,-3.1717,-3.0047,-2.929,-2.971,-3.0088,-3.0694,-3.1287,-3.1795,-3.1889,-3.2044,-3.2128,-3.1184,-3.0427,-3.0077,-3.017,-3.1225,-3.2092,-3.2661,-3.3505,-3.4149,-3.4446,-3.4614,-3.4398,-3.3801,-3.3467,-3.2688,-3.2076,-3.1485,-3.0751,-3.0249,-3.0471,-3.0825,-3.1392,-3.2297,-3.2648,-3.23,-3.1731,-4.187,-3.9268,-3.7493,-3.6105,-3.5649,-3.724,-3.8491,-3.9401,-3.9927,-3.9357,-3.8155,-3.7409,-3.6681,-3.6393,-3.6823,-3.7546,-3.8607,-4.0283,-4.1996,-4.3517,-4.4929,-4.5686,-4.6602,-4.7707,-4.8325,-4.8851,-4.9727,-5.0445,-5.0445,-5.0964,-5.0029,-4.8055,-4.5816,-4.436,-4.3312,-4.2674,-4.2476,-4.2735,-4.261,-4.2133,-4.1568,-4.1062,-4.0686,-4.0074,-3.9835,-3.9936,-3.9772,-3.9645,-3.9413,-3.9245,-3.9245,-3.9077,-3.8804,-3.8921,-3.8477,-3.7423,-3.6649,-3.5934,-3.488,-3.4493,-3.4153,-3.432,-3.1895,-3.0918,-3.1068,-3.0016,-2.9689,-2.947,-2.9287,-2.9319,-2.9431,-2.9291,-3.0112,-3.1875,-3.3017,-3.4024,-3.4944,-3.3776,-3.1735,-3.0036,-2.904,-2.9377,-2.9576,-3.0223,-3.0871,-3.1333,-3.1735,-3.1874,-3.1856,-3.0858,-2.9931,-2.9606,-2.9501,-3.0358,-3.1473,-3.2558,-3.3424,-3.4422,-3.4509,-3.4413,-3.3611,-3.2794,-3.2878,-3.2775,-3.1765,-3.0751,-2.9643,-2.9229,-2.9634,-3.006,-3.0505,-3.1598,-3.2909,-3.2747,-3.2157,-4.4043,-3.9893,-3.9473,-3.7839,-3.5704,-3.5954,-3.7346,-3.9605,-3.9147,-3.8115,-3.6801,-3.6134,-3.5376,-3.4284,-3.491,-3.572,-3.6328,-3.775,-3.9429,-4.0877,-4.2568,-4.3656,-4.5049,-4.6331,-4.6888,-4.7503,-4.8289,-4.9161,-4.9259,-5.0,-4.9615,-4.8625,-4.7297,-4.5695,-4.4256,-4.3331,-4.2891,-4.2927,-4.2703,-4.217,-4.1668,-4.1442,-4.0877,-4.0312,-4.0136,-4.0061,-3.9821,-3.9426,-3.8752,-3.8465,-3.8582,-3.7542,-3.7382,-3.8214,-3.7275,-3.6283,-3.5508,-3.4403,-3.336,-3.3088,-3.3462,-3.3721,-3.2852,-3.1641,-3.092,-3.0386,-3.0008,-2.9834,-2.9707,-2.9648,-2.9653,-2.9842,-3.0138,-3.1503,-3.2765,-3.4102,-3.5611,-3.4551,-3.2276,-3.0713,-2.9782,-2.9563,-2.9421,-2.9887,-3.0386,-3.08,-3.1176,-3.1331,-3.1164,-3.0318,-2.9489,-2.9056,-2.9109,-2.9489,-3.062,-3.1929,-3.2672,-3.3434,-3.3636,-3.3505,-3.2598,-3.1984,-3.2046,-3.1828,-3.1087,-3.0129,-2.9137,-2.8798,-2.898,-2.9426,-3.003,-3.1238,-3.2663,-3.3083,-3.2606,-4.5448,-4.3064,-4.1426,-3.9168,-3.6997,-3.7774,-3.8837,-3.9513,-3.8755,-3.8178,-3.8185,-3.7202,-3.6159,-3.5232,-3.5486,-3.5701,-3.5998,-3.6589,-3.8379,-3.9849,-4.1281,-4.2313,-4.3526,-4.482,-4.5449,-4.6069,-4.6785,-4.7591,-4.7861,-4.8718,-4.9393,-4.8839,-4.7815,-4.6383,-4.5221,-4.4315,-4.3669,-4.3083,-4.2791,-4.2359,-4.2032,-4.1894,-4.1191,-4.0639,-4.045,-4.021,-3.9576,-3.8647,-3.7914,-3.7636,-3.6823,-3.6108,-3.7358,-3.7648,-3.7091,-3.5508,-3.4403,-3.3134,-3.1872,-3.1546,-3.1883,-3.2379,-3.1721,-3.2148,-3.163,-3.113,-3.0468,-3.0283,-3.0137,-3.0059,-2.998,-3.0128,-3.0432,-3.1306,-3.2478,-3.3665,-3.4839,-3.4164,-3.2005,-3.1003,-3.0068,-2.9773,-2.959,-2.9445,-2.9896,-3.0335,-3.0617,-3.0757,-3.061,-2.9829,-2.9703,-2.934,-2.904,-2.9463,-3.0041,-3.1196,-3.1749,-3.2263,-3.246,-3.2415,-3.1571,-3.1111,-3.1246,-3.0908,-3.0245,-2.9503,-2.8665,-2.8639,-2.8992,-2.935,-2.9987,-3.1196,-3.2225,-3.2622,-3.3076,-4.6942,-4.5404,-4.3654,-4.1657,-4.0082,-4.0635,-4.1102,-4.0997,-4.0216,-3.9626,-3.8868,-3.8526,-3.7753,-3.6838,-3.681,-3.682,-3.6892,-3.7362,-3.8638,-4.0036,-4.0758,-4.192,-4.2955,-4.3275,-4.3581,-4.4266,-4.4982,-4.5554,-4.6338,-4.7303,-4.8028,-4.8112,-4.7523,-4.6343,-4.513,-4.4266,-4.3661,-4.3227,-4.2886,-4.2635,-4.2489,-4.2351,-4.1668,-4.0827,-4.0676,-4.0177,-3.9019,-3.782,-3.7091,-3.6259,-3.4958,-3.5288,-3.6151,-3.6097,-3.7037,-3.5672,-3.4236,-3.3134,-3.2092,-3.1276,-3.1054,-3.0898,-3.0898,-3.1315,-3.1526,-3.1168,-3.0888,-3.0732,-3.0586,-3.0459,-3.0361,-3.0388,-3.0791,-3.1207,-3.2169,-3.3072,-3.3149,-3.3105,-3.2141,-3.1087,-3.0498,-3.0137,-2.9824,-2.9551,-2.9456,-2.9894,-3.0077,-3.0086,-3.0039,-2.9637,-3.0002,-3.0342,-2.9819,-2.9638,-3.0123,-3.0438,-3.0821,-3.1135,-3.1178,-3.0981,-3.0401,-3.0535,-3.0845,-3.0287,-2.9513,-2.8923,-2.8552,-2.8888,-2.9281,-2.9466,-2.9497,-3.0166,-3.1195,-3.2115,-3.2575,-4.8451,-4.6986,-4.5827,-4.4521,-4.3693,-4.3537,-4.349,-4.345,-4.2739,-4.1349,-3.9685,-3.9734,-3.9277,-3.8342,-3.8323,-3.8153,-3.7992,-3.8203,-3.8948,-4.0616,-4.0889,-4.1792,-4.2224,-4.1773,-4.2382,-4.2637,-4.3267,-4.4323,-4.5196,-4.6062,-4.6661,-4.6926,-4.6089,-4.5342,-4.5008,-4.4222,-4.3589,-4.3116,-4.2811,-4.2627,-4.2502,-4.2451,-4.2233,-4.0915,-4.063,-4.0335,-3.8451,-3.7103,-3.6131,-3.4814,-3.3875,-3.4121,-3.4626,-3.5222,-3.6325,-3.5988,-3.4504,-3.3417,-3.2426,-3.1604,-3.1064,-3.0898,-3.0957,-3.1005,-3.1112,-3.1112,-3.0947,-3.0898,-3.0732,-3.0703,-3.0635,-3.0605,-3.0892,-3.113,-3.1726,-3.2102,-3.1999,-3.1999,-3.1828,-3.1005,-3.0762,-3.0439,-3.0283,-3.0019,-2.9883,-2.9914,-2.9715,-2.9652,-2.9972,-2.9798,-2.9998,-3.0867,-3.0319,-2.9751,-2.9832,-3.0087,-3.0001,-3.0112,-3.0209,-3.0052,-2.9799,-3.0074,-3.0494,-3.0047,-2.956,-2.9036,-2.8764,-2.8981,-2.8961,-2.8747,-2.883,-2.9071,-2.9943,-3.0995,-3.1961,-4.9296,-4.849,-4.6313,-4.5207,-4.4978,-4.4918,-4.4396,-4.3612,-4.4411,-4.3448,-4.1725,-4.1096,-4.042,-3.9634,-3.9813,-3.9534,-3.8755,-3.9234,-3.9462,-4.0362,-4.1016,-4.1952,-4.2706,-4.225,-4.1955,-4.1716,-4.2301,-4.35,-4.4474,-4.5063,-4.5703,-4.6727,-4.5955,-4.5313,-4.4833,-4.4167,-4.381,-4.306,-4.2652,-4.2464,-4.2338,-4.2464,-4.2258,-4.1241,-4.0755,-4.0589,-3.8919,-3.7177,-3.6196,-3.498,-3.3037,-3.3335,-3.4714,-3.612,-3.6984,-3.6918,-3.477,-3.3631,-3.2815,-3.193,-3.1276,-3.0947,-3.0898,-3.0898,-3.0957,-3.0898,-3.0898,-3.0898,-3.0898,-3.0898,-3.0898,-3.0898,-3.0947,-3.1112,-3.1276,-3.1112,-3.0947,-3.1112,-3.1276,-3.117,-3.0947,-3.0897,-3.0808,-3.0643,-3.043,-3.0137,-2.9792,-2.9862,-3.0764,-3.0916,-3.0032,-3.0522,-3.0323,-2.9949,-3.0102,-2.9938,-2.9967,-2.9857,-2.9913,-2.9629,-2.9309,-2.9934,-3.0517,-3.0222,-2.9839,-2.9123,-2.8651,-2.8581,-2.8475,-2.8344,-2.8601,-2.9059,-2.8751,-2.9482,-3.07,-4.9069,-4.8608,-4.668,-4.6006,-4.6226,-4.6255,-4.5824,-4.5312,-4.5343,-4.4779,-4.3635,-4.2407,-4.1424,-4.0856,-4.1196,-4.1172,-4.0303,-4.0691,-4.1268,-4.1655,-4.1773,-4.2391,-4.2681,-4.2444,-4.2194,-4.1842,-4.2419,-4.3347,-4.3883,-4.3883,-4.4369,-4.505,-4.4811,-4.4679,-4.4155,-4.4071,-4.381,-4.2992,-4.2464,-4.2225,-4.2187,-4.2338,-4.212,-4.1279,-4.1125,-4.0814,-3.9557,-3.7757,-3.6486,-3.501,-3.3111,-3.3126,-3.4352,-3.5522,-3.6294,-3.6108,-3.5002,-3.3789,-3.3088,-3.2322,-3.1441,-3.1112,-3.0898,-3.0898,-3.0898,-3.0898,-3.0898,-3.0898,-3.0898,-3.0898,-3.0898,-3.0898,-3.0898,-3.1005,-3.1064,-3.1005,-3.0947,-3.1005,-3.1064,-3.1005,-3.1334,-3.2129,-3.2017,-3.1997,-3.1801,-3.1573,-3.1027,-3.0174,-3.1043,-3.162,-3.0831,-3.0389,-3.0397,-3.093,-3.16,-3.094,-3.0094,-2.992,-2.9756,-3.0006,-3.0214,-3.0386,-3.0567,-3.0391,-2.9877,-2.8892,-2.8481,-2.8773,-2.8621,-2.8548,-2.8804,-2.9207,-2.8698,-2.8301,-2.9313,-4.8542,-4.8111,-4.6849,-4.6668,-4.7206,-4.7062,-4.7062,-4.6975,-4.5973,-4.5403,-4.5064,-4.3503,-4.2734,-4.2394,-4.2486,-4.2713,-4.2731,-4.2441,-4.2906,-4.295,-4.3206,-4.3044,-4.2475,-4.1968,-4.2137,-4.225,-4.2544,-4.2612,-4.2722,-4.284,-4.2827,-4.2426,-4.2627,-4.2942,-4.2949,-4.303,-4.2974,-4.2785,-4.2421,-4.2125,-4.2112,-4.2162,-4.1794,-4.1718,-4.1672,-4.1126,-4.0001,-3.865,-3.712,-3.5294,-3.3532,-3.3064,-3.335,-3.4332,-3.5179,-3.5123,-3.4414,-3.3586,-3.3145,-3.2587,-3.1815,-3.1276,-3.1005,-3.0898,-3.0898,-3.0898,-3.0898,-3.0898,-3.0898,-3.0898,-3.0898,-3.0898,-3.0898,-3.0898,-3.0898,-3.0898,-3.0898,-3.0898,-3.0898,-3.0898,-3.1662,-3.2644,-3.2954,-3.3,-3.2783,-3.2633,-3.215,-3.1441,-3.1034,-3.1303,-3.1126,-3.0914,-3.0962,-3.1701,-3.237,-3.1714,-3.0351,-3.0322,-3.0299,-3.0726,-3.0948,-3.0831,-3.074,-3.0782,-3.0113,-2.9266,-2.9218,-2.954,-2.927,-2.866,-2.8698,-2.8857,-2.8654,-2.8301,-2.8301,-4.8628,-4.802,-4.6793,-4.6696,-4.7104,-4.6255,-4.6358,-4.7004,-4.5958,-4.5403,-4.5295,-4.5089,-4.4249,-4.3062,-4.3558,-4.3532,-4.2854,-4.3099,-4.3112,-4.3062,-4.3175,-4.3087,-4.2899,-4.2444,-4.2725,-4.2557,-4.2263,-4.1869,-4.2356,-4.2476,-4.2564,-4.2778,-4.2376,-4.264,-4.2961,-4.2986,-4.2949,-4.2735,-4.2183,-4.1693,-4.1743,-4.1781,-4.1794,-4.1781,-4.1856,-4.153,-4.0792,-3.9556,-3.7804,-3.5915,-3.3987,-3.2809,-3.2455,-3.2939,-3.3776,-3.4136,-3.3371,-3.2928,-3.2483,-3.2254,-3.1546,-3.1112,-3.0898,-3.0898,-3.0898,-3.0898,-3.0898,-3.0898,-3.0898,-3.0898,-3.0898,-3.0898,-3.0898,-3.0898,-3.0898,-3.0898,-3.0898,-3.0898,-3.0898,-3.1005,-3.1276,-3.2207,-3.3021,-3.2851,-3.2416,-3.215,-3.1825,-3.117,-3.0957,-3.1112,-3.1276,-3.1276,-3.1334,-3.117,-3.1257,-3.1459,-3.0684,-3.0684,-3.0693,-3.0859,-3.0933,-3.0894,-3.0843,-3.0797,-3.0691,-3.0113,-3.0183,-3.0076,-2.9333,-2.8721,-2.8457,-2.8398,-2.8301,-2.8301,-2.8301]},{"header":{"parameterUnit":"m.s-1","parameterCategory":1,"la1":31.0,"la2":29.5877,"lo1":-88.7671,"lo2":-86.6584,"dy":0.0162,"dx":0.0185,"nx":115,"ny":88,"refTime":"2023-09-03T06:00:00:Z","depth":0,"parameterNumber":3,"parameterNumberName":"V-component_of_WINDS"},"data":[0.0,0.0,0.0,0.0,0.0,0.0,0.0,0.0,0.0,0.0,0.0,0.0,0.0,0.0,0.0,0.0,0.0,0.0,0.0,0.0,0.0,0.0,0.0,0.0,0.0,0.0,0.0,0.0,0.0,0.0,0.0,0.0,0.0,0.0,0.0,0.0,0.0,0.0,0.0,0.0,0.0,0.0,0.0,0.0,0.0,0.0,0.0,0.0,0.0,0.0,0.0,0.0,0.0,0.0,0.0,0.0,0.0,0.0,0.0,0.0,0.0,0.0,0.0,0.0,0.0,0.0,0.0,0.0,0.0,0.0,0.0,0.0,0.0,0.0,0.0,0.0,0.0,0.0,0.0,0.0,0.0,0.0,0.0,0.0,0.0,0.0,0.0,0.0,0.0,0.0,0.0,0.0,0.0,0.0,0.0,0.0,0.0,0.0,0.0,0.0,0.0,0.0,0.0,0.0,0.0,0.0,0.0,0.0,0.0,0.0,0.0,0.0,0.0,0.0,0.0,0.0,0.0,0.0,0.0,0.0,0.0,0.0,0.0,0.0,0.0,0.0,0.0,0.0,0.0,0.0,0.0,0.0,0.0,0.0,0.0,0.0,0.0,0.0,0.0,0.0,0.0,0.0,0.0,0.0,0.0,0.0,0.0,0.0,0.0,0.0,0.0,0.0,0.0,0.0,0.0,0.0,0.0,0.0,0.0,0.0,0.0,0.0,0.0,0.0,0.0,0.0,0.0,0.0,0.0,0.0,0.0,0.0,0.0,0.0,0.0,0.0,0.0,0.0,0.0,0.0,0.0,0.0,0.0,0.0,0.0,0.0,0.0,0.0,0.0,0.0,0.0,0.0,0.0,0.0,0.0,0.0,0.0,0.0,0.0,0.0,0.0,0.0,0.0,0.0,0.0,0.0,0.0,0.0,0.0,0.0,0.0,0.0,0.0,0.0,0.0,0.0,0.0,0.0,0.0,0.0,0.0,0.0,0.0,0.0,0.0,0.0,0.0,0.0,0.0,0.0,0.0,0.0,0.0,0.0,0.0,0.0,0.0,0.0,0.0,0.0,0.0,0.0,0.0,0.0,0.0,0.0,0.0,0.0,0.0,0.0,0.0,0.0,0.0,0.0,0.0,0.0,0.0,0.0,0.0,0.0,0.0,0.0,0.0,0.0,0.0,0.0,0.0,0.0,0.0,0.0,0.0,0.0,0.0,0.0,0.0,0.0,0.0,0.0,0.0,0.0,0.0,0.0,0.0,0.0,0.0,0.0,0.0,0.0,0.0,0.0,0.0,0.0,0.0,0.0,0.0,0.0,0.0,0.0,0.0,0.0,0.0,0.0,0.0,0.0,0.0,0.0,0.0,0.0,0.0,0.0,0.0,0.0,0.0,0.0,0.0,0.0,0.0,0.0,0.0,0.0,0.0,0.0,0.0,0.0,0.0,0.0,0.0,0.0,0.0,0.0,0.0,0.0,0.0,0.0,0.0,0.0,0.0,0.0,0.0,0.0,0.0,0.0,0.0,0.0,0.0,0.0,0.0,0.0,0.0,0.0,0.0,0.0,0.0,0.0,0.0,0.0,0.0,0.0,0.0,0.0,0.0,0.0,0.0,0.0,0.0,0.0,0.0,0.0,0.0,0.0,0.0,0.0,0.0,0.0,0.0,0.0,0.0,0.0,0.0,0.0,0.0,0.0,0.0,0.0,0.0,0.0,0.0,0.0,0.0,0.0,0.0,0.0,0.0,0.0,0.0,0.0,0.0,0.0,0.0,0.0,0.0,0.0,0.0,0.0,0.0,0.0,0.0,0.0,0.0,0.0,0.0,0.0,0.0,0.0,0.0,0.0,0.0,0.0,0.0,0.0,0.0,0.0,0.0,0.0,0.0,0.0,0.0,0.0,0.0,0.0,0.0,0.0,0.0,0.0,0.0,0.0,0.0,0.0,0.0,0.0,0.0,0.0,0.0,0.0,0.0,0.0,0.0,0.0,0.0,0.0,0.0,0.0,0.0,0.0,0.0,0.0,0.0,0.0,0.0,0.0,0.0,0.0,0.0,0.0,0.0,0.0,0.0,0.0,0.0,0.0,0.0,0.0,0.0,0.0,0.0,0.0,0.0,0.0,0.0,0.0,0.0,0.0,0.0,0.0,0.0,0.0,0.0,0.0,0.0,0.0,0.0,0.0,0.0,0.0,0.0,0.0,0.0,0.0,0.0,0.0,0.0,0.0,0.0,0.0,0.0,0.0,0.0,0.0,0.0,0.0,0.0,0.0,0.0,0.0,0.0,0.0,0.0,0.0,0.0,0.0,0.0,0.0,0.0,0.0,0.0,0.0,0.0,0.0,0.0,0.0,0.0,0.0,0.0,0.0,0.0,0.0,0.0,0.0,0.0,0.0,0.0,0.0,0.0,0.0,0.0,0.0,0.0,0.0,0.0,0.0,0.0,0.0,0.0,0.0,0.0,0.0,0.0,0.0,0.0,0.0,0.0,0.0,0.0,0.0,0.0,0.0,0.0,0.0,0.0,0.0,0.0,0.0,0.0,0.0,0.0,0.0,0.0,0.0,0.0,0.0,0.0,0.0,0.0,0.0,0.0,0.0,0.0,0.0,0.0,0.0,0.0,0.0,0.0,0.0,0.0,0.0,0.0,0.0,0.0,0.0,0.0,0.0,0.0,0.0,0.0,0.0,0.0,0.0,0.0,0.0,0.0,0.0,0.0,0.0,0.0,0.0,0.0,0.0,0.0,0.0,0.0,0.0,0.0,0.0,0.0,0.0,0.0,0.0,0.0,0.0,0.0,0.0,0.0,0.0,0.0,0.0,0.0,0.0,0.0,0.0,0.0,0.0,0.0,0.0,0.0,0.0,0.0,0.0,0.0,0.0,0.0,0.0,0.0,0.0,0.0,0.0,0.0,0.0,0.0,0.0,0.0,0.0,0.0,0.0,0.0,0.0,0.0,0.0,0.0,0.0,0.0,0.0,0.0,0.0,0.0,0.0,0.0,0.0,0.0,0.0,0.0,0.0,0.0,0.0,0.0,0.0,0.0,0.0,0.0,0.0,0.0,0.0,0.0,0.0,0.0,0.0,0.0,0.0,0.0,0.0,0.0,0.0,0.0,0.0,0.0,0.0,0.0,0.0,0.0,0.0,0.0,0.0,0.0,0.0,0.0,0.0,0.0,0.0,0.0,0.0,0.0,0.0,0.0,0.0,0.0,0.0,0.0,0.0,0.0,0.0,0.0,0.0,0.0,0.0,0.0,0.0,0.0,0.0,0.0,0.0,0.0,0.0,0.0,0.0,0.0,0.0,0.0,0.0,0.0,0.0,0.0,0.0,0.0,0.0,0.0,0.0,0.0,0.0,0.0,0.0,0.0,0.0,0.0,0.0,0.0,0.0,0.0,0.0,0.0,0.0,0.0,0.0,0.0,0.0,0.0,0.0,0.0,0.0,0.0,0.0,0.0,0.0,0.0,0.0,0.0,0.0,0.0,0.0,0.0,0.0,0.0,0.0,0.0,0.0,0.0,0.0,0.0,0.0,0.0,0.0,0.0,0.0,0.0,0.0,0.0,0.0,0.0,0.0,0.0,0.0,0.0,0.0,0.0,0.0,0.0,0.0,0.0,0.0,0.0,0.0,0.0,0.0,0.0,0.0,0.0,0.0,0.0,0.0,0.0,0.0,0.0,0.0,0.0,0.0,0.0,0.0,0.0,0.0,0.0,0.0,0.0,0.0,0.0,0.0,0.0,0.0,0.0,0.0,0.0,0.0,0.0,0.0,0.0,0.0,0.0,0.0,0.0,0.0,0.0,0.0,0.0,0.0,0.0,0.0,0.0,0.0,0.0,0.0,0.0,0.0,0.0,0.0,0.0,0.0,0.0,0.0,0.0,0.0,0.0,0.0,0.0,0.0,0.0,0.0,0.0,0.0,0.0,0.0,0.0,0.0,0.0,0.0,0.0,0.0,0.0,0.0,0.0,0.0,0.0,0.0,0.0,0.0,0.0,0.0,0.0,0.0,0.0,0.0,0.0,0.0,0.0,0.0,0.0,0.0,0.0,0.0,0.0,0.0,0.0,0.0,0.0,0.0,0.0,0.0,0.0,0.0,0.0,0.0,0.0,0.0,0.0,0.0,0.0,0.0,0.0,0.0,0.0,0.0,0.0,0.0,0.0,0.0,0.0,0.0,0.0,0.0,0.0,0.0,0.0,0.0,0.0,0.0,0.0,0.0,0.0,0.0,0.0,0.0,0.0,0.0,0.0,0.0,0.0,0.0,0.0,0.0,1.5566,0.0,0.0,0.0,0.0,0.0,0.0,0.0,0.0,0.0,0.0,0.0,0.0,0.0,0.0,0.0,0.0,0.0,0.0,0.0,0.0,0.0,0.0,0.0,0.0,0.0,0.0,0.0,0.0,0.0,0.0,0.0,0.0,0.0,0.0,0.0,0.0,0.0,0.0,0.0,0.0,0.0,0.0,0.0,0.0,0.0,0.0,0.0,0.0,0.0,0.0,0.0,0.0,0.0,0.0,0.0,0.0,0.0,0.0,0.0,0.0,0.0,0.0,0.0,0.0,0.0,0.0,0.0,0.0,0.0,0.0,0.0,0.0,0.0,0.0,0.0,0.0,0.0,0.0,0.0,0.0,0.0,0.0,0.0,0.0,0.0,0.0,0.0,0.0,0.0,0.0,0.0,0.0,0.0,0.0,0.0,0.0,0.0,0.0,0.0,0.0,0.0,0.0,0.0,0.0,0.0,0.0,0.0,0.0,0.0,0.0,1.5074,1.598,1.462,1.472,1.6522,0.0,0.0,0.0,0.0,0.0,0.0,0.0,0.0,0.0,0.0,0.0,0.0,0.0,0.0,0.0,0.0,0.0,0.0,0.0,0.0,0.0,0.0,0.0,0.0,0.0,0.0,0.0,0.0,0.0,0.0,0.0,0.0,0.0,0.0,0.0,0.0,0.0,0.0,0.0,0.0,0.0,0.0,0.0,0.0,0.0,0.0,0.0,0.0,0.0,0.0,0.0,0.0,0.0,0.0,0.0,0.0,0.0,0.0,0.0,0.0,0.0,0.0,0.0,0.0,0.0,0.0,0.0,0.0,0.0,0.0,0.0,0.0,0.0,0.0,0.0,0.0,0.0,0.0,0.0,0.0,0.0,0.0,0.0,0.0,0.0,0.0,0.0,0.0,0.0,0.0,0.0,0.0,0.0,0.0,0.0,0.0,0.0,0.0,0.0,0.0,0.0,0.0,0.0,0.0,0.0,0.0,0.0,0.0,0.0,0.0,0.0,0.0,1.6084,1.6027,1.776,0.0,0.0,0.0,0.0,0.0,0.0,0.0,0.0,0.0,0.0,0.0,0.0,0.0,0.0,0.0,0.0,0.0,0.0,0.0,0.0,0.0,0.0,0.0,0.0,0.0,0.0,0.0,0.0,0.0,0.0,0.0,0.0,0.0,0.0,0.0,0.0,0.0,0.0,0.0,0.0,0.0,0.0,0.0,0.0,0.0,0.0,0.0,0.0,0.0,0.0,0.0,0.0,0.0,0.0,0.0,0.0,0.0,0.0,0.0,0.0,0.0,0.0,0.0,0.0,0.0,0.0,0.0,0.0,0.0,0.0,0.0,0.0,0.0,0.0,0.0,0.0,0.0,0.0,0.0,0.0,0.0,0.0,0.0,0.0,0.0,0.0,0.0,0.0,0.0,0.0,0.0,0.0,0.0,0.0,0.0,0.0,0.0,0.0,0.0,0.0,0.0,0.0,0.0,0.0,0.0,0.0,0.0,0.0,0.0,0.0,1.8229,2.12,1.9853,0.0,2.0027,0.0,0.0,0.0,0.0,0.0,0.0,0.0,0.0,0.0,0.0,0.0,0.0,0.0,0.0,0.0,0.0,0.0,0.0,0.0,0.0,0.0,0.0,0.0,0.0,0.0,0.0,0.0,0.0,0.0,0.0,0.0,0.0,0.0,0.0,0.0,0.0,0.0,0.0,0.0,0.0,0.0,0.0,0.0,0.0,0.0,0.0,0.0,0.0,0.0,0.0,0.0,0.0,0.0,0.0,0.0,0.0,0.0,0.0,0.0,0.0,0.0,0.0,0.0,0.0,0.0,0.0,0.0,0.0,0.0,0.0,0.0,0.0,0.0,0.0,0.0,0.0,0.0,0.0,0.0,0.0,0.0,0.0,0.0,0.0,0.0,0.0,0.0,0.0,0.0,0.0,0.0,0.0,0.0,0.0,0.0,0.0,0.0,0.0,0.0,0.0,0.0,0.0,0.0,0.0,0.0,0.0,0.0,0.0,0.0,0.0,1.9913,2.1757,2.1078,2.0459,0.0,0.0,0.0,0.0,0.0,0.0,0.0,0.0,0.0,0.0,0.0,0.0,0.0,0.0,0.0,0.0,0.0,0.0,0.0,0.0,0.0,0.0,0.0,0.0,0.0,0.0,0.0,0.0,0.0,0.0,0.0,0.0,0.0,0.0,0.0,0.0,0.0,0.0,0.0,0.0,0.0,0.0,0.0,0.0,0.0,0.0,0.0,0.0,0.0,0.0,0.0,0.0,0.0,0.0,0.0,0.0,0.0,0.0,0.0,0.0,0.0,0.0,0.0,0.0,0.0,0.0,0.0,0.0,0.0,0.0,0.0,0.0,0.0,0.0,0.0,0.0,0.0,0.0,0.0,0.0,0.0,0.0,0.0,0.0,0.0,0.0,0.0,0.0,0.0,0.0,0.0,0.0,0.0,0.0,0.0,0.0,0.0,0.0,0.0,0.0,0.0,0.0,0.0,0.0,0.0,0.0,0.0,0.0,0.0,0.0,2.1191,2.154,2.2218,2.1696,2.1,2.0222,0.0,0.0,0.0,0.0,0.0,0.0,0.0,0.0,0.0,0.0,0.0,0.0,0.0,0.0,0.0,0.0,0.0,0.0,0.0,0.0,0.0,0.0,0.0,0.0,0.0,0.0,0.0,0.0,0.0,0.0,0.0,0.0,0.0,0.0,0.0,0.0,0.0,0.0,0.0,0.0,0.0,0.0,0.0,0.0,0.0,0.0,0.0,0.0,0.0,0.0,0.0,0.0,0.0,0.0,0.0,0.0,0.0,0.0,0.0,0.0,0.0,0.0,0.0,0.0,0.0,0.0,0.0,0.0,0.0,0.0,0.0,0.0,0.0,0.0,0.0,0.0,0.0,0.0,0.0,0.0,0.0,0.0,0.0,0.0,0.0,0.0,0.0,0.0,0.0,0.0,0.0,0.0,0.0,0.0,0.0,0.0,0.0,0.0,0.0,0.0,0.0,0.0,0.0,0.0,0.0,0.0,0.0,0.0,2.4871,2.3602,2.3076,2.3444,2.2092,2.1262,0.0,0.0,0.0,0.0,0.0,0.0,0.0,0.0,0.0,0.0,0.0,0.0,0.0,0.0,0.0,0.0,0.0,0.0,0.0,0.0,0.0,0.0,0.0,0.0,0.0,0.0,0.0,0.0,0.0,0.0,0.0,0.0,0.0,0.0,0.0,0.0,0.0,0.0,0.0,0.0,0.0,0.0,0.0,0.0,0.0,0.0,0.0,0.0,0.0,0.0,0.0,0.0,0.0,0.0,0.0,0.0,0.0,0.0,0.0,0.0,0.0,0.0,0.0,0.0,0.0,0.0,0.0,0.0,0.0,0.0,0.0,0.0,0.0,0.0,0.0,0.0,0.0,0.0,0.0,0.0,0.0,0.0,0.0,0.0,0.0,0.0,0.0,0.0,0.0,0.0,0.0,0.0,0.0,0.0,0.0,0.0,0.0,0.0,0.0,0.0,0.0,0.0,0.0,0.0,0.0,0.0,0.0,0.0,0.0,2.2743,2.2922,2.307,2.3174,2.2172,2.1607,0.0,0.0,0.0,0.0,0.0,0.0,0.0,0.0,0.0,0.0,0.0,0.0,0.0,0.0,0.0,0.0,0.0,0.0,0.0,0.0,0.0,0.0,0.0,0.0,0.0,0.0,0.0,0.0,0.0,0.0,0.0,0.0,0.0,0.0,0.0,0.0,0.0,0.0,0.0,0.0,0.0,0.0,0.0,0.0,0.0,0.0,0.0,0.0,0.0,0.0,0.0,0.0,0.0,0.0,0.0,0.0,0.0,0.0,0.0,0.0,0.0,0.0,0.0,0.0,0.0,0.0,0.0,0.0,0.0,0.0,0.0,0.0,0.0,0.0,0.0,0.0,0.0,0.0,0.0,0.0,0.0,0.0,0.0,0.0,0.0,0.0,0.0,0.0,0.0,0.0,0.0,0.0,0.0,0.0,0.0,0.0,0.0,0.0,0.0,0.0,0.0,0.0,0.0,0.0,0.0,0.0,0.0,0.0,0.0,2.2303,0.0,2.3231,2.3195,2.23,2.1794,0.0,0.0,0.0,0.0,0.0,0.0,0.0,0.0,0.0,0.0,0.0,0.0,0.0,0.0,0.0,0.0,0.0,0.0,0.0,0.0,0.0,0.0,0.0,0.0,0.0,0.0,0.0,0.0,0.0,0.0,0.0,0.0,0.0,0.0,0.0,0.0,0.0,0.0,0.0,0.0,0.0,0.0,0.0,0.0,0.0,0.0,0.0,0.0,0.0,0.0,0.0,0.0,0.0,0.0,0.0,0.0,0.0,0.0,0.0,0.0,0.0,0.0,0.0,0.0,0.0,0.0,0.0,0.0,0.0,0.0,0.0,0.0,0.0,0.0,0.0,0.0,0.0,0.0,0.0,0.0,0.0,0.0,0.0,0.0,0.0,0.0,0.0,0.0,0.0,0.0,0.0,0.0,0.0,0.0,0.0,0.0,0.0,0.0,0.0,0.0,0.0,0.0,0.0,0.0,0.0,0.0,0.0,0.0,2.2764,2.4217,2.3867,2.3623,2.366,2.2428,2.1794,0.0,0.0,0.0,0.0,0.0,0.0,0.0,0.0,0.0,0.0,0.0,0.0,0.0,0.0,0.0,0.0,0.0,0.0,0.0,0.0,0.0,0.0,0.0,0.0,0.0,0.0,0.0,0.0,0.0,0.0,0.0,0.0,0.0,0.0,0.0,0.0,0.0,0.0,0.0,0.0,0.0,0.0,0.0,0.0,0.0,0.0,0.0,0.0,0.0,0.0,0.0,0.0,0.0,0.0,0.0,0.0,0.0,0.0,0.0,0.0,0.0,0.0,0.0,0.0,0.0,0.0,0.0,0.0,0.0,0.0,0.0,0.0,0.0,0.0,0.0,0.0,0.0,0.0,0.0,0.0,0.0,0.0,0.0,0.0,0.0,0.0,0.0,0.0,0.0,0.0,0.0,0.0,0.0,0.0,0.0,0.0,0.0,0.0,0.0,0.0,0.0,0.0,0.0,0.0,0.0,0.0,0.0,0.0,0.0,2.2747,2.2775,2.3098,2.3613,2.1863,2.1694,0.0,0.0,0.0,0.0,0.0,0.0,0.0,0.0,0.0,0.0,0.0,0.0,0.0,0.0,0.0,0.0,0.0,0.0,0.0,0.0,0.0,0.0,0.0,0.0,0.0,0.0,0.0,0.0,0.0,0.0,0.0,0.0,0.0,0.0,0.0,0.0,0.0,0.0,0.0,0.0,0.0,0.0,0.0,0.0,0.0,0.0,0.0,0.0,0.0,0.0,0.0,0.0,0.0,0.0,0.0,0.0,0.0,0.0,0.0,0.0,0.0,0.0,0.0,0.0,0.0,0.0,0.0,0.0,0.0,0.0,0.0,0.0,0.0,0.0,0.0,0.0,0.0,0.0,0.0,0.0,0.0,0.0,0.0,0.0,0.0,0.0,0.0,0.0,0.0,0.0,0.0,0.0,0.0,0.0,0.0,0.0,0.0,0.0,0.0,0.0,0.0,0.0,0.0,0.0,0.0,0.0,0.0,0.0,0.0,2.3376,2.3367,2.3697,2.4354,2.2588,2.2428,2.4098,0.0,0.0,0.0,0.0,0.0,0.0,0.0,0.0,0.0,0.0,0.0,0.0,0.0,0.0,0.0,0.0,0.0,0.0,0.0,0.0,0.0,0.0,0.0,0.0,0.0,0.0,0.0,0.0,0.0,0.0,0.0,0.0,0.0,0.0,0.0,0.0,0.0,0.0,0.0,0.0,0.0,0.0,0.0,0.0,0.0,0.0,0.0,0.0,0.0,0.0,0.0,0.0,0.0,0.0,0.0,0.0,0.0,0.0,0.0,0.0,0.0,0.0,0.0,0.0,0.0,0.0,0.0,0.0,0.0,0.0,0.0,0.0,0.0,0.0,0.0,0.0,0.0,0.0,0.0,0.0,0.0,0.0,0.0,0.0,0.0,0.0,0.0,0.0,0.0,0.0,0.0,0.0,0.0,0.0,0.0,0.0,0.0,0.0,0.0,0.0,0.0,0.0,0.0,0.0,0.0,0.0,0.0,0.0,2.5795,2.5527,2.5512,2.5606,2.4325,2.3839,0.0,0.0,0.0,0.0,0.0,0.0,0.0,0.0,0.0,0.0,0.0,0.0,0.0,0.0,0.0,0.0,0.0,0.0,0.0,0.0,0.0,0.0,0.0,0.0,0.0,0.0,0.0,0.0,0.0,0.0,0.0,0.0,0.0,0.0,0.0,0.0,0.0,0.0,0.0,0.0,0.0,0.0,0.0,0.0,0.0,0.0,0.0,0.0,0.0,0.0,0.0,0.0,0.0,0.0,0.0,0.0,0.0,0.0,0.0,0.0,0.0,0.0,0.0,0.0,0.0,0.0,0.0,0.0,0.0,0.0,0.0,0.0,0.0,0.0,0.0,0.0,0.0,0.0,0.0,0.0,0.0,0.0,0.0,0.0,0.0,0.0,0.0,0.0,0.0,0.0,0.0,0.0,0.0,0.0,0.0,0.0,0.0,0.0,0.0,0.0,0.0,0.0,0.0,0.0,0.0,0.0,0.0,0.0,0.0,2.8147,2.9593,2.9369,2.7271,2.5383,2.4621,0.0,0.0,0.0,0.0,0.0,0.0,0.0,0.0,0.0,0.0,0.0,0.0,0.0,0.0,0.0,0.0,0.0,0.0,0.0,0.0,0.0,0.0,0.0,0.0,0.0,0.0,0.0,0.0,0.0,0.0,0.0,0.0,0.0,0.0,0.0,0.0,0.0,0.0,0.0,0.0,0.0,0.0,0.0,0.0,0.0,0.0,0.0,0.0,0.0,0.0,0.0,0.0,0.0,0.0,0.0,0.0,0.0,0.0,0.0,0.0,0.0,0.0,0.0,0.0,0.0,0.0,0.0,0.0,0.0,0.0,0.0,0.0,0.0,0.0,0.0,0.0,0.0,0.0,0.0,0.0,0.0,0.0,0.0,0.0,0.0,0.0,0.0,0.0,0.0,0.0,0.0,0.0,0.0,0.0,0.0,0.0,0.0,0.0,0.0,0.0,0.0,0.0,0.0,0.0,0.0,0.0,0.0,0.0,2.96,3.0398,3.2564,3.2552,3.0205,2.8433,2.6731,0.0,0.0,0.0,0.0,0.0,0.0,0.0,0.0,0.0,0.0,0.0,0.0,0.0,0.0,0.0,0.0,0.0,0.0,0.0,0.0,0.0,0.0,0.0,0.0,0.0,0.0,0.0,0.0,0.0,0.0,0.0,0.0,0.0,0.0,0.0,0.0,0.0,0.0,0.0,0.0,0.0,0.0,0.0,0.0,0.0,0.0,0.0,0.0,0.0,0.0,0.0,0.0,0.0,0.0,0.0,0.0,0.0,0.0,0.0,0.0,0.0,0.0,0.0,0.0,0.0,0.0,0.0,0.0,0.0,0.0,0.0,0.0,0.0,0.0,0.0,0.0,0.0,0.0,0.0,0.0,0.0,0.0,0.0,0.0,0.0,0.0,0.0,0.0,0.0,0.0,0.0,0.0,0.0,0.0,0.0,0.0,0.0,0.0,0.0,0.0,0.0,0.0,0.0,0.0,0.0,0.0,0.0,0.0,3.1749,3.2649,3.481,3.5194,3.3666,3.1962,2.9165,0.0,0.0,0.0,0.0,0.0,0.0,0.0,0.0,0.0,0.0,0.0,0.0,0.0,0.0,0.0,0.0,0.0,0.0,0.0,0.0,0.0,0.0,0.0,0.0,0.0,0.0,0.0,0.0,0.0,0.0,0.0,0.0,0.0,0.0,0.0,0.0,0.0,0.0,0.0,0.0,0.0,0.0,0.0,0.0,0.0,0.0,0.0,0.0,0.0,0.0,0.0,0.0,0.0,0.0,0.0,0.0,0.0,0.0,0.0,0.0,0.0,0.0,0.0,0.0,0.0,0.0,0.0,0.0,0.0,0.0,0.0,0.0,0.0,0.0,0.0,0.0,0.0,0.0,0.0,0.0,0.0,0.0,0.0,0.0,0.0,0.0,0.0,0.0,0.0,0.0,0.0,0.0,0.0,0.0,0.0,0.0,0.0,0.0,0.0,0.0,0.0,0.0,0.0,0.0,0.0,0.0,0.0,0.0,3.2983,3.4895,3.711,3.7271,3.5172,3.1341,2.8354,0.0,0.0,0.0,0.0,0.0,0.0,0.0,0.0,0.0,0.0,0.0,0.0,0.0,0.0,0.0,0.0,0.0,0.0,0.0,0.0,0.0,0.0,0.0,0.0,0.0,0.0,0.0,0.0,0.0,0.0,0.0,0.0,0.0,0.0,0.0,0.0,0.0,0.0,0.0,0.0,0.0,0.0,0.0,0.0,0.0,0.0,0.0,0.0,2.0602,0.0,0.0,0.0,0.0,0.0,0.0,0.0,0.0,0.0,0.0,0.0,0.0,0.0,0.0,0.0,0.0,0.0,0.0,0.0,0.0,0.0,0.0,0.0,0.0,0.0,0.0,0.0,0.0,0.0,0.0,0.0,0.0,0.0,0.0,0.0,0.0,0.0,0.0,0.0,0.0,0.0,0.0,0.0,0.0,0.0,0.0,0.0,0.0,0.0,0.0,0.0,0.0,0.0,0.0,0.0,0.0,0.0,0.0,0.0,3.4421,3.6637,3.821,3.8024,3.5924,3.2349,2.9372,0.0,0.0,0.0,0.0,0.0,0.0,0.0,0.0,0.0,0.0,0.0,0.0,0.0,0.0,0.0,0.0,0.0,0.0,0.0,0.0,0.0,0.0,0.0,0.0,0.0,0.0,0.0,0.0,0.0,0.0,0.0,0.0,0.0,0.0,0.0,0.0,0.0,0.0,0.0,0.0,0.0,0.0,0.0,0.0,0.0,0.0,0.0,0.0,0.0,0.0,0.0,0.0,0.0,0.0,0.0,0.0,0.0,0.0,0.0,0.0,0.0,0.0,0.0,0.0,0.0,0.0,0.0,0.0,0.0,0.0,0.0,0.0,0.0,0.0,0.0,0.0,0.0,0.0,0.0,0.0,0.0,0.0,0.0,0.0,0.0,0.0,0.0,0.0,0.0,0.0,0.0,0.0,0.0,0.0,0.0,0.0,0.0,0.0,0.0,0.0,0.0,0.0,0.0,0.0,0.0,0.0,0.0,3.3186,3.5605,3.8142,3.8751,3.8169,3.6388,3.3781,3.095,2.8009,0.0,0.0,0.0,0.0,0.0,0.0,0.0,0.0,0.0,0.0,0.0,0.0,0.0,0.0,0.0,0.0,0.0,0.0,0.0,0.0,0.0,0.0,0.0,0.0,0.0,0.0,0.0,0.0,0.0,0.0,0.0,0.0,0.0,0.0,0.0,0.0,0.0,0.0,1.8342,1.9864,0.0,0.0,0.0,0.0,0.0,0.0,0.0,0.0,2.1119,0.0,0.0,0.0,0.0,0.0,0.0,0.0,0.0,0.0,0.0,0.0,0.0,0.0,0.0,0.0,0.0,0.0,0.0,0.0,0.0,0.0,0.0,0.0,0.0,0.0,0.0,0.0,0.0,0.0,0.0,0.0,0.0,0.0,0.0,0.0,0.0,0.0,0.0,0.0,0.0,0.0,0.0,0.0,0.0,0.0,0.0,0.0,0.0,0.0,0.0,0.0,0.0,0.0,0.0,0.0,0.0,3.4602,3.3981,3.5588,3.9605,3.9242,3.8275,3.6729,3.443,3.1755,2.8762,0.0,0.0,0.0,0.0,0.0,0.0,0.0,0.0,0.0,0.0,0.0,0.0,0.0,0.0,0.0,0.0,0.0,0.0,0.0,0.0,0.0,0.0,0.0,0.0,0.0,0.0,0.0,0.0,0.0,0.0,0.0,0.0,0.0,0.0,0.0,0.0,0.0,0.0,0.0,1.9719,2.0881,0.0,0.0,0.0,0.0,0.0,0.0,0.0,0.0,2.1674,0.0,0.0,0.0,0.0,0.0,0.0,0.0,0.0,0.0,0.0,0.0,0.0,0.0,0.0,0.0,0.0,0.0,0.0,0.0,0.0,0.0,0.0,0.0,0.0,0.0,0.0,0.0,0.0,0.0,0.0,0.0,0.0,0.0,0.0,0.0,0.0,0.0,0.0,0.0,0.0,0.0,0.0,0.0,0.0,0.0,0.0,0.0,0.0,0.0,0.0,0.0,0.0,0.0,0.0,0.0,3.4197,3.4928,3.6778,3.9943,3.9377,3.8091,3.622,3.3832,3.1218,0.0,0.0,0.0,0.0,0.0,0.0,0.0,0.0,0.0,0.0,0.0,0.0,0.0,0.0,0.0,0.0,0.0,0.0,0.0,0.0,0.0,0.0,0.0,0.0,0.0,0.0,0.0,0.0,0.0,0.0,0.0,0.0,0.0,0.0,0.0,0.0,0.0,0.0,0.0,0.0,2.0118,2.0916,2.0884,0.0,0.0,0.0,0.0,0.0,0.0,2.2231,2.2436,0.0,0.0,0.0,0.0,0.0,0.0,0.0,0.0,0.0,0.0,0.0,0.0,0.0,0.0,0.0,0.0,0.0,0.0,0.0,0.0,0.0,0.0,0.0,0.0,0.0,0.0,0.0,0.0,0.0,0.0,0.0,0.0,0.0,0.0,0.0,0.0,0.0,0.0,0.0,0.0,0.0,0.0,0.0,0.0,0.0,0.0,0.0,0.0,0.0,0.0,0.0,0.0,0.0,0.0,0.0,3.3355,3.547,3.7726,3.9943,3.9208,3.777,3.5639,3.3024,3.0419,0.0,0.0,0.0,0.0,0.0,0.0,0.0,0.0,0.0,0.0,0.0,0.0,0.0,0.0,0.0,0.0,0.0,0.0,0.0,0.0,0.0,0.0,0.0,0.0,0.0,0.0,0.0,0.0,0.0,0.0,0.0,0.0,0.0,0.0,0.0,0.0,0.0,0.0,0.0,0.0,0.0,2.1322,2.1149,2.0588,0.0,0.0,0.0,0.0,2.1272,2.2816,0.0,0.0,0.0,0.0,0.0,0.0,0.0,0.0,0.0,0.0,0.0,0.0,0.0,0.0,0.0,0.0,0.0,0.0,0.0,0.0,0.0,0.0,0.0,0.0,0.0,0.0,0.0,0.0,0.0,0.0,0.0,0.0,0.0,0.0,0.0,0.0,0.0,0.0,0.0,0.0,0.0,0.0,0.0,0.0,0.0,0.0,0.0,0.0,0.0,0.0,0.0,0.0,0.0,0.0,0.0,0.0,3.3339,3.4962,3.7161,3.9876,3.8734,3.7239,3.5622,3.2722,3.0106,0.0,0.0,0.0,0.0,0.0,0.0,0.0,0.0,0.0,0.0,0.0,0.0,0.0,0.0,0.0,0.0,0.0,0.0,0.0,0.0,0.0,0.0,0.0,0.0,0.0,0.0,0.0,0.0,0.0,0.0,0.0,0.0,0.0,0.0,0.0,0.0,0.0,0.0,0.0,0.0,0.0,2.2228,2.0132,2.0427,2.0956,0.0,0.0,2.5185,2.2394,2.4121,0.0,0.0,0.0,0.0,0.0,0.0,0.0,0.0,0.0,0.0,0.0,0.0,0.0,0.0,0.0,0.0,0.0,0.0,0.0,0.0,0.0,0.0,0.0,0.0,0.0,0.0,0.0,0.0,0.0,0.0,0.0,0.0,0.0,0.0,0.0,0.0,0.0,0.0,0.0,0.0,0.0,0.0,0.0,0.0,0.0,0.0,0.0,0.0,0.0,0.0,0.0,0.0,0.0,0.0,0.0,3.0438,3.2894,3.5158,3.7308,3.9326,3.8048,3.6535,3.5013,3.1245,2.8948,0.0,0.0,0.0,0.0,0.0,0.0,0.0,0.0,0.0,0.0,0.0,0.0,0.0,0.0,0.0,0.0,0.0,0.0,0.0,0.0,0.0,0.0,0.0,0.0,0.0,0.0,0.0,0.0,0.0,0.0,0.0,0.0,0.0,0.0,0.0,0.0,0.0,0.0,0.0,0.0,0.0,0.0,2.1514,2.1367,0.0,0.0,0.0,2.5646,2.4397,0.0,0.0,0.0,0.0,0.0,0.0,0.0,0.0,0.0,0.0,0.0,0.0,0.0,0.0,0.0,0.0,0.0,0.0,0.0,0.0,0.0,0.0,0.0,0.0,0.0,0.0,0.0,0.0,0.0,0.0,0.0,0.0,0.0,0.0,0.0,0.0,0.0,0.0,0.0,0.0,0.0,0.0,0.0,0.0,0.0,0.0,0.0,0.0,0.0,0.0,0.0,0.0,0.0,0.0,0.0,0.0,0.0,3.2561,3.5366,3.7435,3.8614,3.7648,3.6186,3.4235,3.0302,0.0,0.0,0.0,0.0,0.0,0.0,0.0,0.0,0.0,0.0,0.0,0.0,0.0,0.0,0.0,0.0,0.0,0.0,0.0,0.0,0.0,0.0,0.0,0.0,0.0,0.0,0.0,2.0865,0.0,0.0,0.0,0.0,0.0,0.0,0.0,0.0,0.0,0.0,0.0,0.0,0.0,0.0,2.3454,2.2833,2.2709,2.2911,0.0,0.0,2.5879,2.5256,2.5619,2.5579,0.0,0.0,0.0,0.0,0.0,0.0,0.0,0.0,0.0,0.0,0.0,0.0,0.0,0.0,0.0,0.0,0.0,0.0,0.0,0.0,0.0,0.0,0.0,0.0,0.0,0.0,0.0,0.0,0.0,0.0,0.0,0.0,0.0,0.0,0.0,0.0,0.0,0.0,0.0,0.0,0.0,0.0,0.0,0.0,0.0,0.0,0.0,0.0,0.0,0.0,0.0,0.0,0.0,0.0,3.1023,3.2535,3.5339,3.7122,3.784,3.7852,3.6434,3.3541,3.075,2.8827,0.0,0.0,0.0,0.0,0.0,0.0,0.0,0.0,0.0,0.0,0.0,0.0,0.0,0.0,0.0,0.0,0.0,0.0,0.0,0.0,0.0,0.0,0.0,0.0,0.0,0.0,0.0,0.0,0.0,0.0,0.0,0.0,0.0,0.0,0.0,0.0,0.0,0.0,0.0,0.0,0.0,2.5479,2.3191,2.431,2.5151,0.0,2.6192,2.6548,2.3886,2.6143,2.6916,2.3194,0.0,0.0,0.0,0.0,0.0,0.0,0.0,0.0,0.0,0.0,0.0,0.0,0.0,0.0,0.0,0.0,0.0,0.0,0.0,0.0,0.0,0.0,0.0,0.0,0.0,0.0,0.0,0.0,0.0,0.0,0.0,0.0,0.0,0.0,0.0,0.0,0.0,0.0,0.0,0.0,0.0,0.0,0.0,0.0,0.0,0.0,0.0,0.0,0.0,0.0,0.0,0.0,0.0,3.0175,3.2017,3.4317,3.603,3.7058,3.6708,3.5492,3.3443,3.0164,2.8339,0.0,0.0,0.0,0.0,0.0,0.0,0.0,0.0,0.0,0.0,0.0,0.0,0.0,0.0,0.0,0.0,0.0,0.0,0.0,0.0,0.0,0.0,0.0,0.0,0.0,0.0,0.0,0.0,2.0579,2.0531,2.0575,0.0,0.0,0.0,0.0,0.0,0.0,0.0,0.0,0.0,0.0,2.5455,2.5758,2.7086,0.0,0.0,2.7106,2.7197,2.6061,2.6551,2.643,2.4432,2.3983,0.0,0.0,0.0,0.0,0.0,0.0,0.0,0.0,0.0,0.0,0.0,0.0,0.0,0.0,0.0,0.0,0.0,0.0,0.0,0.0,0.0,0.0,0.0,0.0,0.0,0.0,0.0,0.0,0.0,0.0,0.0,0.0,0.0,0.0,0.0,0.0,0.0,0.0,0.0,0.0,0.0,0.0,0.0,0.0,0.0,0.0,0.0,0.0,0.0,0.0,0.0,0.0,2.98,3.1643,3.3674,3.5248,3.6308,3.6061,3.5008,3.3072,3.0071,2.836,0.0,0.0,0.0,0.0,0.0,0.0,0.0,0.0,0.0,0.0,0.0,0.0,0.0,0.0,0.0,0.0,0.0,0.0,0.0,0.0,0.0,0.0,0.0,0.0,0.0,0.0,0.0,0.0,2.0745,2.0346,1.938,0.0,0.0,0.0,0.0,0.0,0.0,0.0,0.0,0.0,0.0,2.6318,2.7694,2.919,2.9744,2.8648,2.8304,2.8122,2.7867,2.7185,2.6189,2.4704,0.0,0.0,0.0,0.0,0.0,0.0,0.0,0.0,0.0,0.0,0.0,0.0,0.0,0.0,0.0,0.0,0.0,0.0,0.0,0.0,0.0,0.0,0.0,0.0,0.0,0.0,0.0,3.1302,0.0,0.0,3.114,0.0,0.0,0.0,0.0,0.0,0.0,0.0,0.0,0.0,0.0,0.0,0.0,0.0,0.0,0.0,0.0,0.0,0.0,0.0,0.0,0.0,0.0,3.0235,3.1495,3.3606,3.4973,3.5518,3.6263,3.5277,3.2453,3.0791,2.9156,2.7461,0.0,0.0,0.0,0.0,0.0,0.0,0.0,0.0,0.0,0.0,0.0,0.0,0.0,0.0,0.0,0.0,0.0,0.0,0.0,0.0,0.0,0.0,0.0,0.0,0.0,0.0,2.1383,2.1275,2.0393,0.0,0.0,0.0,0.0,0.0,0.0,0.0,0.0,0.0,2.4619,2.6832,2.8517,2.8562,3.0195,3.1092,3.0447,2.9921,2.9322,2.8629,2.7985,2.6486,0.0,0.0,0.0,0.0,0.0,0.0,0.0,0.0,0.0,0.0,0.0,0.0,0.0,0.0,0.0,0.0,0.0,0.0,0.0,0.0,0.0,0.0,0.0,0.0,0.0,0.0,0.0,3.2529,3.2178,0.0,0.0,0.0,0.0,0.0,0.0,0.0,0.0,0.0,0.0,0.0,3.4179,3.4977,0.0,0.0,0.0,0.0,0.0,0.0,0.0,0.0,0.0,0.0,0.0,0.0,3.0447,3.2123,3.3306,3.4394,3.5468,3.5781,3.4956,3.3076,3.1575,2.9598,2.7102,0.0,0.0,0.0,0.0,0.0,0.0,0.0,0.0,0.0,0.0,0.0,0.0,0.0,0.0,0.0,0.0,0.0,0.0,0.0,0.0,0.0,0.0,0.0,0.0,0.0,2.2663,0.0,0.0,0.0,0.0,0.0,0.0,0.0,0.0,0.0,0.0,0.0,2.4433,2.5764,2.7106,2.8109,2.8532,2.9535,2.9998,0.0,0.0,0.0,0.0,0.0,0.0,0.0,0.0,0.0,0.0,0.0,0.0,0.0,0.0,2.7208,2.4627,2.3791,2.3278,2.2589,0.0,0.0,0.0,0.0,0.0,0.0,0.0,0.0,0.0,0.0,0.0,0.0,0.0,0.0,3.4322,3.4532,3.4292,0.0,0.0,0.0,0.0,0.0,0.0,0.0,0.0,3.5549,3.6626,3.6207,3.727,3.7654,0.0,3.6955,3.5045,0.0,0.0,0.0,0.0,0.0,0.0,0.0,0.0,3.0896,3.2123,3.3275,3.4382,3.5429,3.5502,3.4958,3.3783,3.188,2.9611,2.6949,2.6477,2.6317,0.0,0.0,0.0,0.0,0.0,0.0,0.0,0.0,0.0,0.0,0.0,0.0,0.0,0.0,0.0,0.0,0.0,0.0,0.0,0.0,0.0,0.0,0.0,2.2855,0.0,0.0,0.0,0.0,0.0,0.0,0.0,0.0,0.0,2.4672,2.4837,2.5743,2.7694,2.8154,2.8543,2.9175,0.0,0.0,0.0,0.0,0.0,0.0,0.0,2.8244,2.7136,2.7705,2.8378,2.8562,2.735,2.72,2.9729,0.0,0.0,2.6328,2.5438,2.4908,2.4244,2.4073,2.4245,2.4874,2.4956,2.5023,0.0,0.0,0.0,0.0,3.3903,0.0,0.0,0.0,3.5878,3.6851,0.0,3.6507,0.0,0.0,0.0,0.0,3.2916,3.5893,0.0,0.0,3.9281,4.0074,3.7838,3.9589,3.9484,3.7719,3.8841,3.7738,3.4566,3.2007,0.0,0.0,0.0,0.0,0.0,0.0,3.154,3.1705,3.3529,3.4801,3.5474,3.5489,3.516,3.443,3.1693,2.9243,2.7225,2.7558,2.7264,2.5997,2.8167,0.0,0.0,0.0,0.0,0.0,0.0,0.0,0.0,0.0,0.0,0.0,0.0,0.0,0.0,0.0,0.0,0.0,0.0,0.0,0.0,2.3794,0.0,0.0,0.0,0.0,0.0,0.0,0.0,0.0,0.0,0.0,2.6767,2.733,2.8393,3.0253,0.0,0.0,0.0,0.0,2.9756,3.0342,2.9998,3.0088,3.1212,3.0896,2.9834,2.8049,0.0,0.0,2.8891,3.0313,3.1062,2.9953,3.0791,3.1346,3.0552,2.9232,2.8423,2.8323,2.732,2.6926,2.7405,2.6722,2.6138,3.838,0.0,0.0,0.0,0.0,3.9334,4.0771,4.2462,4.1983,4.1309,4.0457,3.9454,0.0,0.0,0.0,0.0,0.0,0.0,3.7629,3.8138,4.0853,4.1707,4.1048,4.2476,4.2402,4.1003,4.0861,3.9364,3.6596,3.5353,3.3729,3.1647,0.0,0.0,0.0,0.0,3.2183,3.3574,3.4219,3.4848,3.5489,3.5489,3.4951,3.383,3.158,2.9852,2.8682,2.7927,2.7553,2.7584,2.8154,0.0,0.0,0.0,0.0,0.0,0.0,0.0,0.0,0.0,0.0,0.0,0.0,0.0,0.0,0.0,0.0,0.0,0.0,0.0,2.5538,2.4642,2.4328,0.0,0.0,0.0,0.0,0.0,0.0,0.0,0.0,0.0,3.0537,3.0133,3.0058,0.0,0.0,3.0851,3.0552,2.9187,2.8573,2.9711,3.0477,0.0,3.0778,3.0642,3.0477,3.0374,3.1092,3.1764,3.2048,3.2557,3.2721,3.1974,3.2437,3.2587,3.1376,2.9777,2.8532,2.8019,2.7919,2.8233,2.8843,2.9011,2.9131,4.1745,4.0949,3.9969,4.032,4.1654,4.2551,4.3823,4.5259,4.4601,4.4077,4.3629,4.2192,4.0457,3.8521,3.7524,0.0,0.0,0.0,3.9694,4.104,4.2731,4.3429,4.3225,4.4212,4.4018,4.2746,4.2073,4.0816,3.8975,3.8093,3.6567,3.4457,0.0,3.2348,3.2482,3.2632,3.3155,3.4068,3.4622,3.5085,3.5489,3.5489,3.4861,3.3514,3.2317,3.099,2.9479,2.8615,2.8085,2.7964,2.8099,2.8214,0.0,0.0,0.0,0.0,0.0,0.0,0.0,0.0,0.0,0.0,0.0,2.7005,2.6595,0.0,0.0,0.0,2.6186,2.5989,2.6004,2.5644,0.0,0.0,0.0,0.0,0.0,0.0,0.0,2.8319,2.8951,3.0043,3.1839,3.2108,3.2228,3.2647,3.2004,3.1361,3.0971,0.0,2.8783,2.9804,3.0836,3.1451,3.133,3.13,3.1539,3.2168,3.2378,3.2587,3.3021,3.3305,3.3335,3.2931,3.2751,3.2542,3.2093,3.0763,2.9654,2.9235,2.9475,2.9894,3.0283,3.0642,3.0911,4.4291,4.4815,4.25,4.2314,4.3647,4.5068,4.5663,4.5559,4.4975,4.5693,4.7085,4.4575,4.3394,4.314,4.0778,0.0,4.0666,4.1309,4.2237,4.3409,4.4721,4.4945,4.4347,4.493,4.4556,4.326,4.2731,4.2141,4.1399,4.0232,3.8931,3.7539,3.516,3.3559,3.2871,3.3963,3.4294,3.3679,3.4876,3.5489,3.5489,3.5489,3.4861,3.3529,3.344,3.2198,2.9741,2.9372,2.8695,2.7519,2.7942,2.8236,2.8277,0.0,0.0,0.0,0.0,0.0,0.0,0.0,0.0,0.0,0.0,0.0,0.0,0.0,0.0,2.6656,2.6617,0.0,2.6662,2.6677,0.0,0.0,0.0,2.8981,2.9547,2.9086,2.9011,2.9669,0.0,0.0,3.1585,3.3365,3.4578,3.4518,3.2871,3.1645,3.16,3.0509,2.9966,3.0507,3.1092,3.175,3.2363,3.2527,3.2721,3.3245,3.2901,3.2422,3.2542,3.2886,3.311,3.2721,3.2049,3.1735,3.2557,3.1899,3.1496,3.1376,3.1406,3.1451,3.1406,3.1421,3.1436,4.3937,4.4929,4.3905,4.3986,4.4995,4.7852,4.879,4.8371,4.8147,4.7803,4.7189,4.5544,4.4272,4.326,4.2647,4.2453,4.2632,4.3329,4.3778,4.4122,4.4915,4.4945,4.4332,4.4481,4.4122,4.3319,4.314,4.2776,4.2171,4.1841,4.0726,3.8955,3.8282,3.6926,3.4891,3.5115,3.519,3.5026,3.534,3.5489,3.5489,3.5489,3.4876,3.3544,3.3006,3.1749,2.9696,2.9053,2.8393,2.7614,2.7604,2.7674,2.7753,2.8894,0.0,0.0,0.0,0.0,0.0,0.0,0.0,0.0,0.0,2.866,2.7925,0.0,2.8278,0.0,2.6911,2.6821,2.7315,2.736,0.0,0.0,2.937,2.9924,2.9609,2.9864,3.0313,3.0957,3.1615,3.2287,3.2946,3.4337,3.5055,3.4578,3.3649,3.2841,3.2347,3.157,3.1092,3.1227,3.1421,3.1929,3.3021,3.326,3.332,3.3455,3.2557,3.1914,3.2407,3.2168,3.1929,3.1824,3.166,3.1615,3.1839,3.163,3.154,3.1496,3.1496,3.1496,3.1496,3.1496,3.1496,4.3665,4.4142,4.4451,4.4644,4.503,4.7777,4.9097,4.9284,4.9,4.8416,4.7683,4.6651,4.5783,4.5095,4.4755,4.4635,4.4635,4.4721,4.4751,4.4766,4.5125,4.4945,4.4332,4.4317,4.3932,4.3305,4.3305,4.3095,4.2806,4.2545,4.1692,4.0307,3.9993,3.8826,3.6866,3.6492,3.6357,3.6357,3.5789,3.5489,3.5489,3.5489,3.5011,3.3963,3.3006,3.1734,3.0043,2.9101,2.8427,2.8064,2.7976,2.797,2.806,2.9197,2.9417,0.0,0.0,0.0,0.0,0.0,0.0,0.0,0.0,0.0,0.0,0.0,2.8992,2.8528,2.8169,2.8173,2.8843,2.916,2.949,2.9879,3.0763,3.115,3.0522,3.0746,3.1077,3.1451,3.2333,3.308,3.3484,3.4666,3.525,3.4608,3.4189,3.3589,3.2662,3.1929,3.1496,3.1511,3.2004,3.2721,3.3784,3.3933,3.3933,3.3858,3.308,3.2437,3.2452,3.1944,3.1496,3.1525,3.1974,3.2378,3.2378,3.2407,3.2378,3.2407,3.2422,3.2168,3.163,3.1496,3.1496,4.3363,4.304,4.4095,4.442,4.4429,4.6154,4.7785,4.9149,4.8536,4.8237,4.8132,4.7563,4.7309,4.7264,4.6621,4.6234,4.6157,4.5574,4.52,4.505,4.5125,4.4825,4.4197,4.4182,4.3843,4.3305,4.3305,4.3305,4.3275,4.2746,4.2141,4.1384,4.0801,3.9903,3.8676,3.7988,3.7494,3.7165,3.6297,3.5833,3.5744,3.5744,3.5385,3.4638,3.326,3.1884,3.0552,2.928,2.8637,2.8712,2.8652,2.8637,2.8753,2.9835,3.002,0.0,2.9972,0.0,0.0,0.0,0.0,0.0,0.0,0.0,0.0,2.8846,2.9146,2.9906,2.9906,3.0058,3.0582,3.1227,3.163,3.1645,3.2213,3.2333,3.16,3.1645,3.175,3.1765,3.2871,3.3619,3.3694,3.4726,3.5265,3.4788,3.4548,3.4084,3.2991,3.2183,3.175,3.1735,3.2811,3.3754,3.4309,3.4474,3.4474,3.4414,3.3844,3.332,3.2751,3.2138,3.1735,3.1959,3.2826,3.3514,3.3589,3.3514,3.3469,3.341,3.338,3.3066,3.2138,3.1869,3.175,4.2811,4.2326,4.2077,4.2891,4.4277,4.424,4.5838,4.8461,4.8327,4.7982,4.7489,4.7354,4.7309,4.7249,4.6621,4.598,4.5484,4.5349,4.4721,4.3718,4.4242,4.4152,4.3499,4.3484,4.3409,4.3305,4.3305,4.3305,4.3305,4.317,4.2551,4.1399,4.1302,4.0838,4.0023,0.0,0.0,0.0,3.7165,3.7584,3.7075,3.7045,3.6492,3.5325,3.3499,0.0,3.0537,2.928,2.8861,2.934,2.8891,0.0,0.0,0.0,0.0,0.0,0.0,0.0,0.0,0.0,0.0,0.0,3.1835,3.1549,3.0268,3.0133,3.0657,3.1809,3.148,3.1182,3.1316,3.1914,3.2303,3.2333,3.2916,3.2856,3.1705,3.2437,3.3125,3.314,3.3814,3.4324,3.4354,3.5011,3.5444,3.5265,3.4831,3.4444,3.4174,3.3215,3.2706,3.3095,3.3799,3.4339,3.4488,3.4533,3.4563,3.4429,3.3933,3.3514,3.332,3.2931,3.2886,3.3455,3.3903,3.4083,3.4068,3.3769,3.3589,3.3514,3.3529,3.341,3.317,3.3125,3.3125,4.1844,4.1329,4.1053,4.2084,0.0,4.3628,4.5149,4.7803,4.7803,4.7623,4.7309,4.7309,4.7309,4.7279,4.6965,4.6247,4.5289,4.5289,4.4586,4.3334,4.3633,4.3604,4.3305,4.3305,4.3305,4.3305,4.3305,4.3305,4.3305,4.3305,4.2836,4.1863,4.1572,4.1055,4.0397,3.9717,3.8601,3.6941,3.727,3.7285,3.6956,3.6626,3.6163,3.5489,3.3559,0.0,0.0,0.0,0.0,0.0,0.0,0.0,0.0,3.0971,0.0,3.1032,3.1943,3.2512,3.2467,3.2497,3.2467,3.2482,3.2811,3.2587,3.1569,3.1794,3.2123,3.2437,3.2497,3.2467,3.2482,3.308,3.3499,3.3499,3.3784,3.3799,3.3559,3.3469,3.3769,3.4352,3.4487,3.4503,3.4518,3.507,3.5474,3.5489,3.522,3.4981,3.4876,3.3948,3.3455,3.4307,3.4412,3.4653,3.4938,3.4981,3.4981,3.4921,3.4696,3.4367,3.4038,3.4083,3.4111,3.4023,3.4367,3.4846,3.4831,3.4637,3.4472,3.4502,3.4487,3.4487,3.4442,3.3963,3.3499,4.0962,4.0526,4.0526,4.1641,4.349,4.349,4.4932,4.7309,4.7309,0.0,0.0,4.7309,4.7309,4.7309,4.7174,4.6516,4.5484,4.5229,4.4601,4.3633,4.3514,4.3529,4.3618,4.3529,4.3469,4.3454,4.3349,4.3305,4.3305,4.3305,4.3,4.2396,4.1856,4.122,4.0576,3.9933,3.932,3.8721,3.7704,3.7094,3.6821,3.6297,3.5908,3.5699,3.3844,3.2811,3.2677,3.1031,3.0387,3.0986,3.0926,3.0911,3.1061,3.2078,3.2422,3.1959,3.2886,3.3499,3.3499,3.3499,3.3544,3.3664,3.3784,3.3574,3.2916,3.335,3.3499,3.3066,3.3529,3.3844,3.3858,3.4322,3.4683,3.4666,3.4651,3.4876,3.5325,3.4562,3.4322,3.522,3.4996,3.4698,3.4728,3.516,3.5489,3.5489,3.5459,3.5489,3.537,3.4577,3.4277,3.5145,3.5011,3.4923,3.5325,3.5459,3.5489,3.5429,3.5444,3.5295,3.4921,3.5115,3.5011,3.4173,3.4831,3.5355,3.5474,3.5415,3.5489,3.5489,3.5489,3.5489,3.54,3.4637,3.3948,4.0962,4.0526,4.0526,4.1641,4.349,4.349,4.4978,4.7266,4.7309,4.7309,4.7309,4.7309,4.7309,4.7279,4.6726,4.6352,4.6055,4.4975,4.4646,4.499,4.4436,4.4466,4.499,4.4451,4.4182,4.4137,4.3574,4.3305,4.3305,4.3305,4.3015,4.2485,4.2306,4.1916,4.125,4.0591,4.0217,4.0113,3.9948,3.929,3.8153,3.8033,3.7449,3.6357,3.4983,3.3933,3.3365,3.2542,3.2407,3.3021,3.2542,3.2482,3.3036,3.3245,3.332,3.323,3.3395,3.3499,3.3514,3.3499,3.3739,3.4339,3.4876,3.4936,3.4309,3.4309,3.4532,3.4996,3.51,3.522,3.522,3.5265,3.531,3.5325,3.534,3.5415,3.5489,3.531,3.522,3.5459,3.5429,3.5325,3.531,3.5429,3.5489,3.5489,3.5489,3.5489,3.5474,3.537,3.5295,3.5459,3.5429,3.5415,3.5474,3.5489,3.5489,3.5489,3.5489,3.5459,3.5325,3.5385,3.537,3.522,3.534,3.5459,3.5489,3.5489,3.5489,3.5489,3.5504,3.5489,3.5522,3.5282,3.513,4.03,4.0074,4.0074,4.1417,4.3598,4.4964,4.6651,4.8312,4.7982,4.7638,4.7324,4.7309,4.7309,4.7279,4.6995,4.6666,4.6249,4.5678,4.5364,4.5259,4.4975,4.5005,4.5259,4.4975,4.4661,4.4302,4.3977,4.3648,4.3319,4.3305,4.314,4.288,4.259,4.2081,4.1437,4.1085,4.0935,4.0905,3.9858,3.9005,3.8407,3.7704,3.7075,3.6525,3.5207,3.4369,3.4069,3.3395,3.3185,3.3484,3.32,3.3185,3.3484,3.3829,3.4054,3.4053,3.4382,3.4577,3.4592,3.4577,3.4711,3.5011,3.531,3.5385,3.507,3.5026,3.516,3.5474,3.5489,3.5489,3.5489,3.5489,3.5489,3.5489,3.5489,3.5489,3.5489,3.5489,3.5489,3.5489,3.5489,3.5489,3.5489,3.5489,3.5489,3.5489,3.5489,3.5489,3.5489,3.5489,3.5489,3.5489,3.5489,3.5489,3.5489,3.5489,3.5489,3.5489,3.5489,3.5489,3.5489,3.5489,3.5489,3.5489,3.5489,3.5489,3.5489,3.5489,3.5489,3.5504,3.5587,3.5604,3.5589,3.5701,3.5716,3.9193,3.9193,3.9193,4.0843,4.366,4.6234,4.8015,4.897,4.8641,4.8132,4.7578,4.7534,4.7444,4.7309,4.7309,4.7025,4.6576,4.6396,4.6112,4.5753,4.5589,4.5603,4.5708,4.5603,4.5185,4.4586,4.4392,4.3973,4.3364,4.3305,4.3305,4.3245,4.2836,4.2312,4.1833,4.1669,4.1647,4.1489,3.9933,3.8931,3.8601,3.7509,3.6851,3.6626,3.5597,3.4968,3.4938,3.4292,3.3948,3.3948,3.3948,3.3948,3.3978,3.4427,3.4696,3.4803,3.5205,3.5489,3.5489,3.5489,3.5489,3.5489,3.5489,3.5489,3.5489,3.5489,3.5489,3.5489,3.5489,3.5489,3.5489,3.5489,3.5489,3.5489,3.5489,3.5489,3.5489,3.5489,3.5489,3.5489,3.5489,3.5489,3.5489,3.5489,3.5489,3.5489,3.5489,3.5489,3.5489,3.5489,3.5489,3.5489,3.5489,3.5489,3.5489,3.5489,3.5489,3.5489,3.5489,3.5489,3.5489,3.5489,3.5489,3.5489,3.5489,3.5489,3.5489,3.5489,3.5489,3.5504,3.5589,3.5688,3.5752,3.5863,3.5925,3.7743,3.769,3.7743,3.9944,4.3655,4.6256,4.7766,4.8462,4.897,4.8805,4.8222,4.8192,4.7848,4.7354,4.7309,4.7249,4.713,4.6591,4.6606,4.6965,4.6516,4.6546,4.695,4.6459,4.5858,4.52,4.4646,4.4092,4.3439,4.3349,4.3319,4.3305,4.323,4.3155,4.3035,4.2551,4.2321,4.2306,4.1542,4.0516,3.9364,3.8601,3.7928,3.733,3.6671,3.6297,3.6252,3.5669,3.5325,3.531,3.528,3.5295,3.531,3.537,3.5385,3.54,3.5459,3.5489,3.5489,3.5489,3.5489,3.5489,3.5489,3.5489,3.5489,3.5489,3.5489,3.5489,3.5489,3.5489,3.5489,3.5489,3.5489,3.5489,3.5489,3.5489,3.5489,3.5489,3.5489,3.5489,3.5489,3.5489,3.5489,3.5489,3.5489,3.5489,3.5489,3.5489,3.5489,3.5489,3.5489,3.5489,3.5489,3.5489,3.5489,3.5489,3.5489,3.5489,3.5489,3.5489,3.5489,3.5489,3.5489,3.5489,3.5489,3.5489,3.5489,3.5489,3.5489,3.5537,3.5636,3.5752,3.5894,3.6005,3.6005,3.6972,3.6271,3.7133,3.9782,4.3521,4.5855,4.7622,4.8846,4.9532,4.9479,4.8955,4.891,4.8282,4.7324,4.7309,4.7309,4.7279,4.7025,4.7025,4.7279,4.701,4.7055,4.7249,4.704,4.6561,4.5933,4.5618,4.5113,4.4526,4.4107,4.3913,4.3868,4.3499,4.3305,4.3275,4.3075,4.2925,4.2925,4.2282,4.1722,4.107,3.9738,3.8871,3.8527,3.7584,3.703,3.6971,3.6417,3.6088,3.6058,3.5714,3.5489,3.5489,3.5489,3.5489,3.5489,3.5489,3.5489,3.5489,3.5489,3.5489,3.5489,3.5489,3.5489,3.5489,3.5489,3.5489,3.5489,3.5489,3.5489,3.5489,3.5489,3.5489,3.5489,3.5489,3.5489,3.5489,3.5489,3.5489,3.5489,3.5489,3.5489,3.5489,3.5489,3.5489,3.5489,3.5489,3.5489,3.5489,3.5489,3.5489,3.5489,3.5489,3.5489,3.5489,3.5489,3.5489,3.5489,3.5489,3.5489,3.5489,3.5489,3.5489,3.5489,3.5489,3.5489,3.5489,3.5489,3.5489,3.5569,3.5748,3.5958,3.6226,3.6289,3.6304,3.6168,3.5079,3.6703,3.9568,4.3059,4.5238,4.7124,4.8707,4.9567,4.9703,4.9299,4.8955,4.8207,4.7399,4.7309,4.7309,4.7309,4.7309,4.7309,4.7309,4.7309,4.7309,4.7309,4.7309,4.6965,4.6411,4.6264,4.5948,4.5319,4.484,4.4496,4.4272,4.3798,4.3469,4.3319,4.3305,4.3305,4.3245,4.2851,4.2626,4.2402,4.1055,4.0053,3.9619,3.8392,3.7674,3.7659,3.7075,3.6731,3.6731,3.6267,3.5953,3.5789,3.5774,3.5699,3.5519,3.5489,3.5489,3.5489,3.5489,3.5489,3.5489,3.5489,3.5489,3.5489,3.5489,3.5489,3.5489,3.5489,3.5489,3.5489,3.5489,3.5489,3.5489,3.5489,3.5489,3.5489,3.5489,3.5489,3.5489,3.5489,3.5489,3.5489,3.5489,3.5489,3.5489,3.5489,3.5489,3.5489,3.5489,3.5489,3.5489,3.5489,3.5489,3.5489,3.5489,3.5489,3.5489,3.5489,3.5489,3.5489,3.5489,3.5489,3.5489,3.5489,3.5489,3.5489,3.5489,3.5522,3.5619,3.5797,3.6037,3.6289,3.6414,3.6492,3.4987,3.3754,3.6314,3.9144,4.1875,4.448,4.6305,4.7683,4.8873,4.9389,4.9194,4.8102,4.7414,4.7354,4.7369,4.7309,4.7309,4.7309,4.7309,4.7309,4.7309,4.7309,4.7309,4.7294,4.698,4.6456,4.6384,4.6067,4.5409,4.5289,4.493,4.4377,4.4302,4.3932,4.3499,4.3439,4.3319,4.3349,4.3305,4.3245,4.3125,4.2536,4.1572,4.0412,3.9065,3.8392,3.8287,3.7719,3.7375,3.7375,3.727,3.703,3.6522,3.6417,3.6133,3.5624,3.5519,3.5489,3.5489,3.5489,3.5489,3.5489,3.5489,3.5489,3.5489,3.5489,3.5489,3.5489,3.5489,3.5489,3.5489,3.5489,3.5489,3.5489,3.5489,3.5489,3.5489,3.5489,3.5489,3.5489,3.5489,3.5489,3.5489,3.5489,3.5489,3.5489,3.5489,3.5489,3.5489,3.5489,3.5489,3.5489,3.5489,3.5489,3.5489,3.5489,3.5489,3.5489,3.5489,3.5489,3.5489,3.5489,3.5489,3.5489,3.5489,3.5489,3.5489,3.5522,3.5572,3.5653,3.5782,3.6022,3.6242,3.6383,3.6445,3.4558,3.4681,3.6649,3.903,4.1594,4.4339,4.6124,4.7384,4.9548,5.0272,4.9868,4.9374,4.873,4.7938,4.7938,4.7698,4.7339,4.7309,4.7309,4.7309,4.7309,4.7309,4.7309,4.7309,4.7204,4.6995,4.695,4.683,4.6561,4.6172,4.5801,4.5559,4.514,4.4811,4.4631,4.4601,4.4392,4.4003,4.3973,4.3723,4.329,4.2686,4.2141,4.1677,4.0382,3.9484,3.9065,3.8392,3.8033,3.8033,3.7644,3.7315,3.7075,3.6701,3.6387,3.6133,3.5744,3.5489,3.5489,3.5489,3.5489,3.5489,3.5489,3.5534,3.5489,3.5489,3.5489,3.5489,3.5489,3.5489,3.5489,3.5489,3.5489,3.5489,3.5489,3.5489,3.5489,3.5489,3.5489,3.5489,3.5489,3.5489,3.5489,3.5489,3.5489,3.5489,3.5489,3.5489,3.5489,3.5489,3.5489,3.5489,3.5489,3.5489,3.5489,3.5489,3.5489,3.5489,3.5489,3.5489,3.5489,3.5489,3.5489,3.5489,3.5489,3.5489,3.5489,3.5489,3.5539,3.5638,3.5799,3.5926,3.6148,3.6274,3.6383,3.4547,3.5746,3.734,3.9272,4.1572,4.4516,4.6145,4.7132,4.9677,5.0599,5.0211,4.9986,4.9314,4.8461,4.8506,4.8102,4.7369,4.7309,4.7309,4.7309,4.7309,4.7309,4.7309,4.7309,4.7309,4.7309,4.7309,4.7309,4.7264,4.686,4.6546,4.6277,4.5828,4.5514,4.5334,4.5289,4.505,4.4676,4.4421,4.4037,4.3574,4.3015,4.2605,4.2321,4.1527,4.0621,3.9783,3.908,3.8721,3.8661,3.8287,3.7958,3.7704,3.7135,3.6776,3.6731,3.6372,3.6133,3.6118,3.6118,3.6118,3.6118,3.6118,3.6058,3.5863,3.5818,3.5729,3.5579,3.5489,3.5489,3.5489,3.5489,3.5489,3.5489,3.5489,3.5489,3.5489,3.5489,3.5489,3.5489,3.5489,3.5489,3.5489,3.5489,3.5489,3.5489,3.5489,3.5489,3.5489,3.5489,3.5489,3.5489,3.5489,3.5489,3.5489,3.5489,3.5489,3.5489,3.5489,3.5489,3.5489,3.5489,3.5489,3.5489,3.5489,3.5489,3.5489,3.5489,3.5539,3.5606,3.5688,3.5816,3.599,3.6148,3.6242,3.5147,3.6331,3.8298,3.9959,4.1764,4.4703,4.6197,4.6823,4.9088,5.0221,5.0255,4.9688,4.9209,4.8626,4.906,4.8596,4.7653,4.7534,4.7474,4.7414,4.7399,4.7399,4.7399,4.7339,4.7309,4.7309,4.7309,4.7309,4.7294,4.7219,4.6935,4.6429,4.6324,4.6067,4.5364,4.5499,4.5394,4.52,4.4736,4.4347,4.4227,4.3559,4.2985,4.253,4.2321,4.1692,4.0502,3.9783,3.9379,3.9328,3.9284,3.905,3.8407,3.7778,3.7404,3.7404,3.736,3.7345,3.7315,3.7255,3.7195,3.7195,3.7315,3.7,3.6582,3.6477,3.6267,3.5848,3.5699,3.5639,3.5669,3.5624,3.5564,3.5489,3.5489,3.5489,3.5489,3.5489,3.5489,3.5489,3.5489,3.5489,3.5489,3.5489,3.5489,3.5489,3.5489,3.5489,3.5489,3.5489,3.5489,3.5489,3.5489,3.5489,3.5489,3.5489,3.5489,3.5489,3.5489,3.5489,3.5489,3.5489,3.5489,3.5489,3.5489,3.5489,3.5489,3.5489,3.5489,3.5572,3.5606,3.5688,3.5816,3.5975,3.6101,3.6496,3.6838,3.9472,4.1097,4.2099,4.4072,4.5549,4.6957,4.8761,4.9993,5.073,5.0705,5.0242,4.9763,4.9853,4.9464,4.873,4.8641,4.8416,4.8057,4.7982,4.7967,4.7878,4.7519,4.7309,4.7309,4.7309,4.7309,4.7309,4.7309,4.7174,4.704,4.6995,4.6905,4.6651,4.6666,4.6486,4.5963,4.5334,4.4781,4.4317,4.3633,4.32,4.3015,4.2635,4.2171,4.1767,4.0681,3.9903,3.9463,3.9388,3.9284,3.902,3.8452,3.8108,3.8033,3.7644,3.7404,3.7404,3.7434,3.7464,3.7419,3.7434,3.7345,3.7165,3.712,3.7015,3.6806,3.6821,3.6821,3.6761,3.6402,3.6043,3.5564,3.5489,3.5489,3.5489,3.5489,3.5489,3.5489,3.5489,3.5489,3.5489,3.5489,3.5489,3.5489,3.5489,3.5489,3.5489,3.5489,3.5489,3.5489,3.5489,3.5489,3.5489,3.5489,3.5489,3.5489,3.5489,3.5489,3.5489,3.5489,3.5489,3.5489,3.5489,3.5489,3.5489,3.5489,3.5489,3.5489,3.5539,3.5621,3.5688,3.5816,3.5943,3.7414,3.7404,4.0574,4.2145,4.2709,4.4454,4.5926,4.7337,4.9161,5.0397,5.112,5.1214,5.0808,5.033,5.0435,5.0092,4.9434,4.9778,4.9628,4.903,4.8716,4.858,4.8252,4.7608,4.7309,4.7309,4.7309,4.7309,4.7309,4.7309,4.7309,4.7309,4.7309,4.7294,4.7309,4.7294,4.707,4.6636,4.6037,4.5484,4.496,4.4127,4.3663,4.3559,4.306,4.2641,4.2381,4.1587,4.0816,4.0232,3.9933,3.9783,3.9738,3.9155,3.8766,3.8691,3.8437,3.8182,3.8118,3.8227,3.8167,3.8167,3.8153,3.8018,3.7853,3.7778,3.7704,3.7449,3.7375,3.7404,3.733,3.709,3.6641,3.6282,3.5759,3.5534,3.5489,3.5489,3.5489,3.5489,3.5489,3.5489,3.5489,3.5489,3.5489,3.5489,3.5489,3.5489,3.5489,3.5489,3.5489,3.5489,3.5489,3.5489,3.5489,3.5489,3.5489,3.5489,3.5489,3.5489,3.5489,3.5489,3.5489,3.5489,3.5489,3.5489,3.5489,3.5489,3.5489,3.5489,3.5489,3.5539,3.5621,3.5688,3.5816,3.7884,3.8086,4.1383,4.2787,4.3245,4.5462,4.6654,4.7517,4.9567,5.0807,5.112,5.1229,5.0853,5.051,5.09,5.0526,4.9763,5.0526,5.0735,5.0182,4.9688,4.9164,4.8297,4.7608,4.7324,4.7309,4.7309,4.7309,4.7309,4.7309,4.7309,4.7309,4.7309,4.7309,4.7309,4.7309,4.7294,4.713,4.6591,4.619,4.6085,4.502,4.4377,4.4317,4.3733,4.315,4.2755,4.2485,4.2066,4.1384,4.0711,4.0457,4.0337,3.9843,3.9589,3.9499,3.9418,3.9313,3.9358,3.9164,3.9194,3.9164,3.9134,3.9155,3.8556,3.8437,3.8257,3.7808,3.7719,3.7659,3.7674,3.7524,3.7419,3.724,3.6312,3.5714,3.5504,3.5489,3.5489,3.5489,3.5489,3.5489,3.5489,3.5489,3.5489,3.5489,3.5489,3.5489,3.5489,3.5489,3.5489,3.5489,3.5489,3.5489,3.5489,3.5489,3.5489,3.5489,3.5489,3.5489,3.5489,3.5489,3.5489,3.5489,3.5489,3.5489,3.5489,3.5489,3.5489,3.5489,3.5489,3.5489,3.5539,3.5621,3.5638,3.7057,3.8292,4.0371,4.1899,4.2961,4.3852,4.5289,4.7043,4.7873,4.9504,5.0807,5.1229,5.1124,5.0975,5.1124,5.1005,5.0825,5.1035,5.1169,5.0928,5.081,4.9733,4.8416,4.7638,4.7339,4.7339,4.7369,4.7309,4.7309,4.7309,4.7309,4.7309,4.7309,4.7309,4.7309,4.7309,4.7309,4.7204,4.6666,4.6309,4.619,4.5529,4.5065,4.4975,4.4407,4.3988,4.3733,4.3329,4.2521,4.1474,4.125,4.1153,4.1115,4.0891,4.0561,4.0217,4.0113,3.9903,3.9544,3.9418,3.9403,3.9388,3.9388,3.9298,3.9185,3.914,3.905,3.885,3.8886,3.8856,3.8781,3.8422,3.7988,3.7419,3.6746,3.6088,3.5669,3.5489,3.5489,3.5489,3.5489,3.5489,3.5489,3.5489,3.5489,3.5489,3.5489,3.5489,3.5489,3.5489,3.5489,3.5489,3.5489,3.5489,3.5489,3.5489,3.5489,3.5489,3.5489,3.5489,3.5489,3.5489,3.5489,3.5489,3.5489,3.5489,3.5489,3.5489,3.5489,3.5489,3.5489,3.5489,3.5489,3.5539,3.5539,3.671,3.8331,3.9931,4.1545,4.3017,4.3589,4.4779,4.6279,4.7554,4.8802,5.0239,5.1011,5.1229,5.1229,5.1229,5.1229,5.1229,5.1229,5.1214,5.1154,5.087,5.0122,4.9149,4.8446,4.7982,4.7713,4.7713,4.7563,4.7354,4.7309,4.7309,4.7309,4.7309,4.7309,4.7309,4.7309,4.7309,4.7249,4.692,4.6741,4.6681,4.6082,4.5768,4.5603,4.508,4.4631,4.4287,4.3633,4.2901,4.2297,4.1968,4.1826,4.1796,4.1557,4.1205,4.0831,4.0801,4.0531,3.9978,3.9828,3.9657,3.9463,3.9388,3.9388,3.9373,3.9388,3.9388,3.9343,3.9388,3.9388,3.9328,3.905,3.8527,3.7958,3.7494,3.6911,3.6028,3.5684,3.5519,3.5489,3.5489,3.5489,3.5489,3.5489,3.5489,3.5489,3.5489,3.5489,3.5489,3.5489,3.5489,3.5489,3.5489,3.5489,3.5489,3.5489,3.5489,3.5489,3.5489,3.5489,3.5489,3.5489,3.5489,3.5489,3.5489,3.5489,3.5489,3.5489,3.5489,3.5489,3.5489,3.5489,3.5489,3.5489,3.5489,3.6599,3.8342,3.9581,4.1157,4.2731,4.4004,4.4385,4.5315,4.7327,4.8752,4.9455,5.0493,5.0964,5.1229,5.1229,5.1229,5.1229,5.1229,5.1229,5.1065,5.0734,5.0285,5.0166,4.9359,4.873,4.8267,4.8267,4.7863,4.7459,4.7309,4.7309,4.7309,4.7309,4.7309,4.7309,4.7309,4.7309,4.7309,4.7249,4.7189,4.7115,4.6696,4.6441,4.6322,4.5753,4.5095,4.4511,4.3843,4.3379,4.3379,4.2806,4.2545,4.2425,4.1878,4.1594,4.1557,4.1497,4.1227,4.0636,4.0487,4.0247,3.9798,3.9582,3.9508,3.9597,3.9538,3.9388,3.9388,3.9388,3.9388,3.9373,3.9343,3.9095,3.8571,3.8407,3.7793,3.6881,3.6043,3.5579,3.5504,3.5489,3.5489,3.5489,3.5489,3.5489,3.5489,3.5489,3.5489,3.5489,3.5489,3.5489,3.5489,3.5489,3.5489,3.5489,3.5489,3.5489,3.5489,3.5489,3.5489,3.5489,3.5489,3.5489,3.5489,3.5489,3.5489,3.5489,3.5489,3.5489,3.5489,3.5489,3.5489,3.5489,3.5489,3.5489,3.5581,3.8104,3.7194,3.8653,4.1325,4.1565,4.2349,4.3792,4.5248,4.7183,4.8901,4.9518,5.0239,5.1229,5.1229,5.1229,5.1229,5.1229,5.1229,5.1137,5.1063,5.0958,5.0765,4.9898,4.8985,4.8521,4.8327,4.7952,4.7489,4.7384,4.7309,4.7309,4.7309,4.7309,4.7309,4.7309,4.7309,4.7309,4.7309,4.7309,4.7309,4.7174,4.704,4.698,4.6396,4.5768,4.511,4.4451,4.4082,4.3943,4.3509,4.3105,4.3015,4.2871,4.2596,4.2252,4.2186,4.1901,4.1324,4.1183,4.0965,4.0487,4.0292,4.0262,4.0382,3.9747,3.9463,3.9388,3.9388,3.9388,3.9388,3.9388,3.9284,3.908,3.8706,3.8302,3.7734,3.6866,3.6148,3.5714,3.5549,3.5504,3.5519,3.5519,3.5504,3.5504,3.5504,3.5504,3.5489,3.5489,3.5489,3.5489,3.5489,3.5489,3.5489,3.5489,3.5489,3.5489,3.5489,3.5489,3.5489,3.5489,3.5489,3.5489,3.5489,3.5489,3.5489,3.5489,3.5489,3.5489,3.5489,3.5489,3.5489,3.5489,3.5489,3.5939,3.8033,3.7254,3.8477,4.0516,3.9943,4.0455,4.2083,4.3386,4.5567,4.7959,4.8851,4.9936,5.1167,5.1229,5.1229,5.1229,5.1229,5.1229,5.1214,5.1214,5.1214,5.1154,5.0556,4.9853,4.9284,4.9224,4.8701,4.8012,4.7728,4.7623,4.7324,4.7339,4.7309,4.7309,4.7324,4.7309,4.7309,4.7309,4.7309,4.7309,4.7309,4.7309,4.7189,4.6696,4.607,4.5768,4.5125,4.4661,4.4317,4.3932,4.3574,4.3334,4.3305,4.3135,4.291,4.2821,4.2506,4.2066,4.1841,4.1609,4.11,4.0935,4.0935,4.0846,4.0307,3.9933,3.9798,3.9597,3.9388,3.9388,3.9388,3.9388,3.9328,3.9095,3.879,3.8521,3.7659,3.6716,3.6237,3.6058,3.6013,3.5938,3.5833,3.5609,3.5624,3.5594,3.5579,3.5504,3.5504,3.5489,3.5489,3.5489,3.5489,3.5489,3.5489,3.5489,3.5489,3.5489,3.5489,3.5489,3.5489,3.5489,3.5489,3.5489,3.5489,3.5489,3.5489,3.5489,3.5489,3.5489,3.5489,3.5489,3.5489,3.5489,3.703,3.8419,3.8309,3.9157,4.0269,3.8969,3.9051,4.0467,4.1796,4.3775,4.6206,4.7875,4.8829,5.0107,5.0353,5.0493,5.0445,5.0397,5.008,5.0143,5.0555,5.065,5.0701,5.0785,5.0795,5.036,5.0091,4.9464,4.8701,4.8446,4.8222,4.7743,4.7653,4.7713,4.7563,4.7459,4.7444,4.7339,4.7309,4.7309,4.7309,4.7309,4.7309,4.7204,4.689,4.6561,4.6352,4.5813,4.517,4.4526,4.4362,4.3917,4.3484,4.3305,4.3305,4.3275,4.3215,4.3,4.2641,4.2476,4.2282,4.1698,4.1587,4.1572,4.1437,4.0995,4.0636,4.0337,4.0119,3.9646,3.949,3.9481,3.9445,3.9445,3.9409,3.9388,3.9194,3.8362,3.7719,3.733,3.6911,3.6626,3.6492,3.6357,3.6028,3.5774,3.5759,3.5759,3.5729,3.5624,3.5684,3.6043,3.6207,3.6252,3.6252,3.6193,3.6103,3.5998,3.5893,3.5893,3.5804,3.5579,3.5579,3.5504,3.5489,3.5534,3.5534,3.5489,3.5489,3.5489,3.5489,3.5489,3.5489,3.5489,3.5489,3.8508,3.946,3.8576,3.9341,4.0634,3.8987,3.8507,3.9329,4.0385,4.1594,4.2977,4.4825,4.6302,4.7217,4.764,4.7808,4.8175,4.8282,4.8167,4.8353,4.8999,4.9518,4.9664,5.0287,5.0813,5.0945,5.0478,4.9685,4.9299,4.9134,4.894,4.8895,4.882,4.8611,4.8237,4.8102,4.7893,4.7593,4.7474,4.7414,4.7414,4.7339,4.7309,4.7309,4.71,4.707,4.6965,4.6486,4.5843,4.5185,4.4601,4.4032,4.3633,4.3483,4.3429,4.3305,4.3305,4.3185,4.309,4.312,4.308,4.291,4.2491,4.2246,4.2096,4.1647,4.1272,4.1025,4.0731,4.0248,3.9691,3.9676,3.9646,3.9625,3.9517,3.9424,3.9364,3.9161,3.8856,3.8571,3.7913,3.7255,3.7135,3.6985,3.6731,3.6596,3.6611,3.6641,3.6656,3.6372,3.6088,3.6596,3.7165,3.718,3.718,3.709,3.7015,3.6911,3.6821,3.6821,3.6567,3.5923,3.5699,3.5804,3.5774,3.5774,3.5714,3.5669,3.5759,3.5938,3.5759,3.5549,3.5609,3.5684,3.5504,4.1137,4.126,4.0743,4.0639,4.0399,3.8063,3.7566,3.8361,3.8103,3.9356,4.1501,4.3028,4.4559,4.6034,4.6883,4.7094,4.7112,4.7402,4.7371,4.741,4.7822,4.8125,4.8139,4.8851,4.9518,4.9848,4.9776,4.9789,4.9777,4.9778,4.9613,4.9329,4.9299,4.912,4.891,4.8835,4.8611,4.8267,4.7982,4.7788,4.7728,4.7519,4.7324,4.7309,4.7309,4.7309,4.7249,4.707,4.6516,4.5933,4.5529,4.5066,4.4707,4.443,4.4182,4.3578,4.3384,4.3329,4.3305,4.3305,4.3275,4.326,4.3,4.2895,4.2716,4.2297,4.185,4.1513,4.115,4.0731,4.0434,4.0132,3.9869,3.9839,3.9732,3.9604,3.9532,3.9604,3.9568,3.9436,3.8607,3.7993,3.7853,3.7674,3.7449,3.7404,3.7449,3.7494,3.7554,3.7255,3.6866,3.7135,3.7674,3.7689,3.7704,3.7734,3.7734,3.7689,3.7644,3.7644,3.7464,3.6866,3.6477,3.6342,3.6267,3.6462,3.6357,3.6477,3.6447,3.6372,3.6252,3.6118,3.5953,3.5833,3.5759,4.3808,4.322,4.3203,4.2525,4.1004,3.7761,3.7013,3.7646,3.6177,3.735,4.0501,4.1437,4.2988,4.4908,4.5917,4.6377,4.647,4.6866,4.6692,4.6407,4.6719,4.6873,4.6695,4.7094,4.7808,4.8688,4.9265,4.9625,5.0279,5.039,5.0122,4.9957,4.9718,4.9538,4.9508,4.9464,4.9434,4.912,4.8641,4.8282,4.7982,4.7608,4.7309,4.7309,4.7309,4.7309,4.7294,4.7249,4.6875,4.6511,4.6391,4.6366,4.6012,4.5988,4.541,4.4341,4.3988,4.381,4.3669,4.3669,4.3771,4.3771,4.3448,4.3314,4.3264,4.2908,4.2567,4.2055,4.1891,4.1611,4.1418,4.0781,4.0441,4.0299,4.0168,3.9889,3.9747,3.9747,3.9839,3.9571,3.8988,3.8752,3.8582,3.8497,3.8282,3.8237,3.8282,3.8272,3.8317,3.8212,3.7958,3.7913,3.8063,3.8078,3.8123,3.8212,3.8272,3.8282,3.8302,3.8302,3.8153,3.7883,3.7599,3.7419,3.7629,3.7793,3.7554,3.7165,3.7,3.6881,3.6791,3.6716,3.6611,3.6477,3.6372,4.5491,4.4988,4.4785,4.4645,4.3749,3.9674,3.7903,3.7896,3.5922,3.5881,3.7724,3.9353,4.0869,4.2408,4.3828,4.4252,4.4469,4.4989,4.5089,4.4823,4.5503,4.5673,4.5515,4.6591,4.6785,4.7415,4.8439,4.9858,5.0552,5.0849,5.102,5.0855,5.072,5.0705,5.0152,5.0122,4.9808,4.9344,4.8715,4.8072,4.7593,4.7399,4.7324,4.7309,4.7309,4.7381,4.7424,4.7394,4.7038,4.6698,4.7206,4.7247,4.6928,4.6998,4.7039,4.6705,4.621,4.5488,4.4849,4.4624,4.451,4.432,4.3888,4.3448,4.3482,4.3672,4.3487,4.2917,4.3168,4.3138,4.2613,4.1903,4.154,4.1152,4.0827,4.033,4.0021,4.0634,4.0629,4.0303,3.9923,3.9607,3.9349,3.9272,3.9179,3.9164,3.9155,3.9101,3.9026,3.8932,3.8872,3.8802,3.8772,3.8772,3.8742,3.8782,3.8777,3.8876,3.8856,3.8871,3.8766,3.8661,3.8945,3.8856,3.8975,3.8771,3.8342,3.7937,3.7569,3.7464,3.7494,3.7419,3.73,3.715,3.6926,4.8061,4.7363,4.571,4.4994,4.4377,3.9925,3.7879,3.7181,3.4505,3.4311,3.6169,3.7588,3.9634,4.2125,4.3413,4.3822,4.3915,4.4367,4.4317,4.389,4.4405,4.4472,4.4077,4.4535,4.4981,4.6017,4.6695,4.7974,4.947,5.0807,5.1229,5.1229,5.1214,5.1079,5.0704,5.0749,5.0661,5.0182,4.9419,4.8536,4.7938,4.7519,4.7309,4.7309,4.7309,4.7566,4.7819,4.7508,4.7573,4.7452,4.7808,4.7824,4.8137,4.8387,4.8485,4.8716,4.8988,4.7918,4.6028,4.5697,4.539,4.4909,4.4434,4.422,4.4197,4.4274,4.4593,4.4736,4.446,4.4219,4.3798,4.3098,4.2641,4.22,4.174,4.1045,4.0821,4.1469,4.1694,4.1302,4.0901,4.0668,4.0385,4.0173,3.9945,3.9606,3.9611,3.9581,3.9602,3.9586,3.9586,3.9617,3.9602,3.9617,3.9506,3.947,3.9309,3.9298,3.917,3.92,3.929,3.9364,3.946,3.9568,3.9459,3.9269,3.9008,3.8797,3.8517,3.8347,3.8227,3.8093,3.7928,3.7509,3.7353,4.9698,4.9455,4.7057,4.5778,4.4917,4.0519,3.8148,3.6914,3.4206,3.3954,3.5959,3.7929,4.0851,4.3309,4.4335,4.4513,4.4382,4.4528,4.4229,4.3953,4.3727,4.3589,4.3336,4.3295,4.3645,4.4522,4.5195,4.6279,4.7923,4.9616,5.0698,5.1167,5.1229,5.1199,5.1214,5.1139,5.1005,5.0631,4.9718,4.894,4.8252,4.7593,4.7384,4.7309,4.7381,4.7651,4.8141,4.7749,4.7749,4.79,4.8038,4.8214,4.8797,4.9028,4.9159,4.9359,4.9575,4.905,4.7637,4.7036,4.6394,4.5769,4.5174,4.5138,4.5153,4.5126,4.5274,4.5889,4.5729,4.5333,4.4914,4.4354,4.3843,4.3423,4.3003,4.2142,4.1569,4.2211,4.3069,4.3384,4.2879,4.198,4.1658,4.1232,4.076,4.0228,4.0066,4.0097,4.0061,4.0127,4.0333,4.0349,4.0162,4.0127,4.0026,3.994,3.9854,3.9787,3.9658,3.9526,3.9541,3.9547,3.9568,3.9661,3.9803,3.9854,3.9697,3.9581,3.943,3.9065,3.8796,3.8721,3.8497,3.8098,3.8022,4.9399,5.0964,4.9475,4.7808,4.5948,4.2853,3.9635,3.7133,3.5981,3.5758,3.7188,4.0582,4.4044,4.5934,4.5821,4.5647,4.5671,4.4973,4.4465,4.4086,4.374,4.3463,4.315,4.303,4.3073,4.3449,4.4167,4.4887,4.5925,4.801,4.9664,5.1011,5.112,5.1167,5.1109,5.096,5.09,5.0541,4.9793,4.912,4.8416,4.7803,4.7399,4.7324,4.7309,4.7352,4.7424,4.7381,4.7495,4.7749,4.8015,4.8429,4.8854,4.9087,4.9292,4.9565,4.9305,4.9102,4.8735,4.8331,4.803,4.7366,4.6574,4.5977,4.6083,4.6432,4.6604,4.6604,4.6651,4.6597,4.6212,4.5731,4.5088,4.4504,4.4006,4.3355,4.286,4.2947,4.3861,4.5029,4.4767,4.3624,4.305,4.2658,4.1922,4.1353,4.0938,4.0968,4.0491,4.0511,4.094,4.1024,4.0655,4.0519,4.0384,4.037,4.0512,4.0444,4.0248,3.9986,3.9811,3.9781,3.9938,3.9803,3.9945,4.0156,4.0331,4.0121,3.9874,3.9532,3.9284,3.9125,3.9172,3.9023,3.9144,4.9321,5.0017,5.011,4.9098,4.7123,4.2684,4.0075,3.8755,3.7336,3.8198,4.0508,4.3696,4.5645,4.637,4.675,4.6592,4.6502,4.5805,4.5347,4.4788,4.4324,4.3564,4.315,4.303,4.3042,4.3085,4.3657,4.4318,4.5236,4.6422,4.7974,4.9421,5.0529,5.0539,5.0406,5.0556,5.0629,5.0659,5.0167,4.9523,4.894,4.8252,4.7713,4.7324,4.7309,4.7694,4.803,4.7581,4.7764,4.7946,4.7973,4.8252,4.861,4.8847,4.9174,4.9649,4.9337,4.9384,4.9265,4.8901,4.8329,4.7603,4.6815,4.6486,4.6999,4.7085,4.7372,4.7522,4.7638,4.7488,4.707,4.6686,4.6249,4.5642,4.502,4.4372,4.4096,4.4076,4.4784,4.6025,4.5658,4.4733,4.4381,4.4109,4.3295,4.2544,4.2144,4.1747,4.1298,4.1426,4.2094,4.2459,4.2188,4.1814,4.1658,4.1515,4.133,4.1067,4.084,4.0643,4.0432,4.0474,4.0576,4.0314,4.0248,4.0655,4.0793,4.0551,4.0211,3.9803,3.9532,3.9343,3.9523,3.9737,4.0036,4.9119,4.976,5.027,4.9387,4.7258,4.3974,4.1688,4.0453,3.9599,4.1253,4.4954,4.6758,4.8076,4.8394,4.7892,4.8127,4.7836,4.6988,4.641,4.5737,4.4921,4.4032,4.3563,4.324,4.2986,4.2986,4.3085,4.3602,4.4264,4.4792,4.5987,4.762,4.9344,4.9592,5.0032,5.0002,5.0524,5.09,5.0361,4.9808,4.9224,4.8371,4.7818,4.7339,4.7309,4.7538,4.7834,4.7624,4.7609,4.7749,4.7792,4.7779,4.8072,4.8444,4.8759,4.9311,4.971,4.9645,4.9225,4.8675,4.8415,4.8275,4.7595,4.7648,4.7968,4.7952,4.8097,4.8356,4.8308,4.8099,4.7704,4.7439,4.69,4.6183,4.579,4.5221,4.4977,4.4945,4.5943,4.695,4.6429,4.6087,4.5855,4.5496,4.432,4.352,4.2895,4.2529,4.2268,4.2707,4.3902,4.4134,4.4081,4.3658,4.3263,4.2627,4.2021,4.1574,4.1397,4.1382,4.1282,4.1331,4.1351,4.128,4.1256,4.1326,4.1448,4.1513,4.0836,4.0001,3.9803,3.964,3.9839,4.0106,4.0459,4.8669,5.0607,5.0085,4.8613,4.6995,4.7392,4.5192,4.2215,4.293,4.5255,4.8387,4.9913,5.1658,5.2641,5.0819,5.0175,4.9798,4.829,4.7256,4.6898,4.5848,4.5141,4.4548,4.4016,4.3449,4.3085,4.303,4.3085,4.324,4.4167,4.4784,4.5497,4.744,4.9113,5.0014,5.0166,5.0539,5.0945,4.9987,4.9643,4.912,4.8252,4.7788,4.7354,4.7309,4.7467,4.7467,4.7467,4.7452,4.7495,4.7452,4.7424,4.7538,4.7581,4.7694,4.7876,4.8594,4.886,4.8858,4.8428,4.8663,4.9108,4.8413,4.8945,4.9532,4.942,4.9007,4.9325,4.8959,4.8683,4.8407,4.8065,4.7387,4.6601,4.6143,4.5619,4.5305,4.5619,4.6531,4.7538,4.7704,4.7622,4.7355,4.684,4.5477,4.4481,4.3743,4.338,4.3361,4.4151,4.5445,4.5761,4.5744,4.4952,4.4325,4.3374,4.2715,4.2245,4.2121,4.2212,4.2158,4.2132,4.2165,4.2189,4.2349,4.2479,4.2569,4.2674,4.1841,4.1024,4.0202,3.998,4.0191,4.0528,4.0981,4.6903,4.8329,4.9631,4.977,4.8908,4.7681,4.6256,4.5411,4.6557,4.8313,5.0383,5.2293,5.3257,5.3528,5.3434,5.2352,5.1331,5.0485,4.9364,4.8375,4.7132,4.6539,4.5978,4.5142,4.4359,4.4071,4.3657,4.3085,4.3085,4.37,4.3981,4.4676,4.6453,4.8464,4.9755,5.024,5.0524,5.1065,5.0705,5.0212,4.9344,4.8745,4.8147,4.7399,4.7324,4.7354,4.7309,4.7309,4.7352,4.7381,4.7424,4.7381,4.7424,4.7424,4.7651,4.8057,4.8825,4.9175,4.9584,4.9643,4.9251,4.928,4.9667,4.9959,4.9926,5.0368,5.033,5.0223,4.982,4.956,4.9382,4.8719,4.7853,4.655,4.5861,4.5163,4.4918,4.5789,4.6692,4.7852,4.8388,4.8246,4.8034,4.7719,4.6604,4.5832,4.5123,4.5132,4.5145,4.6015,4.7078,4.7325,4.7243,4.6293,4.541,4.4543,4.3862,4.3512,4.3402,4.3418,4.3341,4.3264,4.3029,4.3085,4.3349,4.3635,4.3917,4.391,4.3016,4.2136,4.147,4.0694,4.0588,4.1065,4.1728,4.4704,4.7006,4.8532,4.9694,5.0094,4.8752,4.7745,4.748,4.8868,5.0374,5.18,5.3799,5.5027,5.4984,5.4721,5.463,5.326,5.2498,5.1516,5.0393,4.9032,4.8354,4.7526,4.6474,4.5859,4.5356,4.4481,4.3755,4.3755,4.324,4.3489,4.4519,4.6217,4.7883,4.9172,4.9855,5.051,5.093,5.078,5.0212,4.9538,4.9045,4.8595,4.7758,4.7474,4.7593,4.7399,4.7352,4.7495,4.7609,4.7609,4.7722,4.7919,4.7849,4.8157,4.8882,4.9416,4.9915,5.0633,5.0898,5.0278,4.9358,5.0428,5.0827,5.0575,5.0957,5.1036,5.0914,5.0727,5.0527,5.0214,4.948,4.8779,4.748,4.6718,4.6086,4.4726,4.5541,4.7832,4.8894,4.9424,4.9134,4.874,4.8249,4.7651,4.7115,4.6609,4.6703,4.6786,4.7404,4.8017,4.8195,4.826,4.7424,4.655,4.575,4.517,4.4759,4.4569,4.4445,4.4909,4.493,4.4432,4.4192,4.4947,4.5482,4.5538,4.5224,4.435,4.3636,4.3064,4.2219,4.128,4.1633,4.2385,4.2255,4.64,4.6834,4.8214,5.0055,4.9828,4.8891,4.7514,4.9769,5.1393,5.2557,5.4078,5.5529,5.6917,5.5868,5.5401,5.5541,5.4799,5.3652,5.2557,5.1069,5.0221,4.9055,4.7873,4.7299,4.6682,4.5925,4.5048,4.4941,4.3849,4.3607,4.4361,4.5774,4.7319,4.8509,4.9519,5.0441,5.082,5.0779,5.0257,4.9658,4.9389,4.8716,4.8042,4.7833,4.7743,4.7562,4.751,4.7961,4.8141,4.8072,4.8815,4.8938,4.8366,4.9019,4.971,5.0242,5.1005,5.174,5.1938,5.1651,5.0827,5.0952,5.1507,5.1715,5.1714,5.1844,5.1674,5.1454,5.1352,5.1102,5.0788,5.0408,4.945,4.8576,4.7045,4.4971,4.6059,4.8879,5.0243,5.0687,5.0566,4.9947,4.9374,4.8746,4.8231,4.7779,4.7561,4.7647,4.782,4.8358,4.8597,4.8565,4.8358,4.7604,4.6784,4.6124,4.5599,4.5353,4.528,4.5913,4.632,4.5872,4.5881,4.6856,4.7292,4.7085,4.6537,4.5708,4.5096,4.4626,4.3693,4.276,4.2535,4.3074,4.0653,4.2783,4.4717,4.6886,4.8764,4.824,4.764,4.7615,4.9382,5.0663,5.1487,5.3253,5.5021,5.652,5.6106,5.6039,5.5965,5.5674,5.4431,5.3365,5.2365,5.1559,5.0514,4.9343,4.8738,4.8125,4.7402,4.6564,4.6118,4.4838,4.4181,4.4851,4.5573,4.6892,4.8282,4.9325,5.0235,5.0892,5.0883,5.0481,5.0092,4.9927,4.909,4.8431,4.8207,4.8026,4.769,4.8046,4.8527,4.8718,4.9311,4.9813,4.8907,4.8733,4.911,5.0242,5.1005,5.1885,5.2784,5.3025,5.28,5.2451,5.2533,5.2204,5.2382,5.2454,5.2639,5.2452,5.2198,5.2063,5.1928,5.1661,5.1279,5.0589,4.9774,4.8528,4.6868,4.7675,5.0358,5.1597,5.208,5.1438,5.0867,5.0364,4.9756,4.926,4.8878,4.8629,4.8514,4.8677,4.8709,4.8951,4.9424,4.94,4.8546,4.7696,4.707,4.6506,4.625,4.6186,4.6696,4.7004,4.6984,4.7254,4.7704,4.8144,4.8421,4.7663,4.6623,4.663,4.6176,4.5178,4.4354,4.4086,4.3894,3.861,4.0525,4.2712,4.4769,4.6211,4.5829,4.5648,4.6135,4.7715,4.9263,5.0998,5.2303,5.3917,5.5393,5.5482,5.5498,5.5474,5.5653,5.4799,5.3371,5.3117,5.2231,5.1306,5.078,5.0467,4.9814,4.9089,4.8425,4.7567,4.6384,4.5576,4.5856,4.5793,4.7262,4.8821,4.9814,5.0449,5.0949,5.1109,5.081,5.0524,5.036,4.9658,4.8656,4.8476,4.8308,4.797,4.8625,4.911,4.9679,5.0627,5.0397,4.9758,4.9797,4.915,5.0126,5.1117,5.1885,5.2627,5.323,5.3382,5.3518,5.3518,5.3162,5.2991,5.3044,5.323,5.323,5.2976,5.2756,5.2587,5.2369,5.1883,5.1428,5.074,5.0085,4.9964,5.0017,5.1312,5.2775,5.2824,5.2198,5.1657,5.1183,5.0764,5.0372,5.0057,4.9824,4.9624,4.9569,4.9441,4.9393,5.0121,5.0568,4.9642,4.8829,4.838,4.7829,4.7217,4.7253,4.7605,4.7473,4.7272,4.7655,4.8161,4.8495,4.8714,4.8197,4.7432,4.7501,4.7551,4.6898,4.6031,4.5442,4.5354,3.618,3.9078,4.0902,4.2434,4.3313,4.3442,4.349,4.364,4.5334,4.7671,5.0115,5.1317,5.2598,5.4003,5.4352,5.4614,5.4893,5.5198,5.4603,5.2931,5.3288,5.2658,5.191,5.2048,5.1528,5.1266,5.0659,4.9659,4.8893,4.7698,4.6865,4.7234,4.7726,4.8517,4.9118,4.9984,5.0588,5.1043,5.102,5.0689,5.0539,5.048,5.0331,4.876,4.8744,4.9039,4.8775,4.9125,4.9844,5.0773,5.1545,5.1429,5.0855,5.0419,4.9655,4.9876,5.0914,5.1704,5.24,5.299,5.3399,5.3518,5.3484,5.3433,5.3348,5.3348,5.3467,5.3518,5.323,5.3179,5.3061,5.301,5.2708,5.2454,5.2027,5.175,5.1837,5.1837,5.2194,5.3298,5.3281,5.2723,5.2452,5.1995,5.1758,5.1424,5.0953,5.0718,5.0756,5.0587,5.0423,5.0125,5.0709,5.1271,5.0771,5.0074,4.9807,4.9259,4.858,4.8563,4.9107,4.848,4.7522,4.7968,4.8475,4.8564,4.8589,4.8232,4.8199,4.844,4.8459,4.8383,4.7802,4.694,4.6287,3.3722,3.6127,3.9994,4.1789,4.2035,4.207,4.2593,4.3422,4.2887,4.4601,4.7369,4.9194,5.0929,5.2476,5.3074,5.355,5.4333,5.4374,5.3942,5.3199,5.3092,5.2505,5.1463,5.1712,5.1926,5.2094,5.1544,5.0484,4.9393,4.843,4.7637,4.7239,4.7692,4.8169,4.9357,5.0032,5.0397,5.109,5.0719,5.0495,5.0345,5.0495,5.0361,4.9149,4.8894,4.8803,4.8928,4.99,5.0279,5.0896,5.287,5.2452,5.0865,4.9829,4.9191,4.9215,5.0709,5.1541,5.2134,5.2749,5.323,5.3467,5.3518,5.3518,5.3484,5.3518,5.3518,5.3518,5.3518,5.3518,5.3518,5.3518,5.3467,5.3348,5.323,5.3348,5.3467,5.3348,5.323,5.3314,5.3467,5.3247,5.296,5.2808,5.2706,5.2198,5.1472,5.1206,5.1581,5.1581,5.1627,5.143,5.1479,5.1743,5.136,5.1207,5.0873,5.0688,5.0155,5.0301,5.0511,4.9208,4.8018,4.8365,4.8694,4.883,4.8883,4.8765,4.8827,4.897,4.8798,4.8482,4.8688,4.8111,4.7273,3.2555,3.4672,3.8652,4.0524,4.0718,4.0743,4.1169,4.1703,4.164,4.2587,4.45,4.6891,4.9149,5.0906,5.1559,5.2227,5.3121,5.339,5.2821,5.2367,5.2398,5.2,5.1661,5.1603,5.1758,5.2018,5.1573,5.0641,4.971,4.971,4.9277,4.8522,4.8264,4.8758,5.0017,5.0143,5.0397,5.1122,5.0495,5.0211,5.0166,5.0345,5.0197,4.9194,4.912,4.9074,4.9619,5.0563,5.1033,5.142,5.2732,5.2884,5.1533,5.0496,4.9726,4.9813,5.0573,5.1414,5.1938,5.2487,5.311,5.3348,5.3518,5.3518,5.3518,5.3518,5.3518,5.3518,5.3518,5.3518,5.3518,5.3518,5.3518,5.3433,5.3399,5.3433,5.3467,5.3433,5.3399,5.3433,5.3195,5.2559,5.2376,5.2342,5.2278,5.2417,5.1765,5.2131,5.2438,5.2366,5.2472,5.2503,5.2386,5.2118,5.1692,5.1749,5.1862,5.1692,5.1539,5.094,5.0408,4.9344,4.8564,4.9111,4.9357,4.9171,4.9207,4.8969,4.8832,4.8829,4.8656,4.837,4.8719,4.9018,4.8306,3.1901,3.4159,3.7516,3.9246,3.9698,3.9929,3.9929,4.0032,4.1032,4.1604,4.2115,4.4657,4.7253,4.9092,4.9965,5.0566,5.1264,5.2061,5.1703,5.1641,5.1835,5.164,5.1755,5.1941,5.1804,5.1712,5.1496,5.1008,5.0353,5.0381,5.0366,5.045,5.0689,5.1063,5.1184,5.1167,5.1214,5.099,5.0556,5.0091,5.0076,5.0136,4.9808,4.9718,4.9884,5.0335,5.0514,5.0943,5.1563,5.1959,5.2256,5.2531,5.2349,5.1382,5.0592,5.0512,5.1021,5.1594,5.1902,5.2277,5.2818,5.323,5.3433,5.3518,5.3518,5.3518,5.3518,5.3518,5.3518,5.3518,5.3518,5.3518,5.3518,5.3518,5.3518,5.3518,5.3518,5.3518,5.3518,5.3518,5.2956,5.2241,5.1977,5.1924,5.2084,5.2224,5.2592,5.311,5.3349,5.301,5.2842,5.2876,5.2826,5.2499,5.2182,5.2263,5.257,5.252,5.2217,5.1263,5.0626,5.056,5.0409,5.0109,5.0241,5.031,4.9478,4.8921,4.8833,4.8899,4.8719,4.8625,4.8767,4.9018,4.9018,3.0831,3.4252,3.7555,3.9182,3.9789,4.0743,4.0655,3.9968,4.1019,4.1604,4.1779,4.223,4.4443,4.793,4.8482,4.9421,5.0958,5.1364,5.1379,5.1319,5.1454,5.1349,5.1353,5.1603,5.1371,5.1511,5.1727,5.182,5.0814,5.051,5.0614,5.0868,5.039,5.0704,5.1199,5.1229,5.1184,5.093,5.0272,4.9688,4.9748,4.9793,4.9808,4.9793,4.9883,4.9824,4.9927,5.0516,5.1089,5.1531,5.1962,5.2506,5.2703,5.2332,5.1516,5.1208,5.1756,5.2062,5.2364,5.2505,5.3025,5.3348,5.3518,5.3518,5.3518,5.3518,5.3518,5.3518,5.3518,5.3518,5.3518,5.3518,5.3518,5.3518,5.3518,5.3518,5.3518,5.3518,5.3518,5.3433,5.323,5.2557,5.1957,5.2065,5.2383,5.2592,5.2835,5.3314,5.3484,5.3348,5.323,5.323,5.3195,5.3314,5.3196,5.3009,5.3145,5.3145,5.3027,5.2388,5.2253,5.2842,5.2623,5.1766,5.1715,5.1896,5.0859,4.9442,4.9182,4.9249,4.9041,4.894,4.9018,4.9018,4.9018]}]]